[[{"header":{"parameterUnit":"m.s-1","parameterCategory":1,"la1":30.6,"la2":29.2853,"lo1":-89.7004,"lo2":-87.6739,"dy":0.0162,"dx":0.0183,"nx":112,"ny":82,"refTime":"2024-09-10T06:00:00:Z","depth":0,"parameterNumber":2,"parameterNumberName":"U-component_of_WINDS"},"data":[0.0,0.0,0.0,0.0,0.0,0.0,0.0,0.0,0.0,0.0,0.0,0.0,0.0,0.0,0.0,0.0,0.0,0.0,0.0,0.0,0.0,0.0,0.0,0.0,0.0,0.0,0.0,0.0,0.0,0.0,0.0,0.0,0.0,0.0,0.0,0.0,0.0,0.0,0.0,0.0,0.0,0.0,0.0,0.0,0.0,0.0,0.0,0.0,0.0,0.0,0.0,0.0,0.0,0.0,0.0,0.0,0.0,0.0,0.0,0.0,0.0,0.0,0.0,0.0,0.0,0.0,0.0,0.0,0.0,0.0,0.0,0.0,0.0,0.0,0.0,0.0,0.0,0.0,0.0,0.0,0.0,0.0,0.0,0.0,0.0,0.0,0.0,0.0,0.0,0.0,0.0,-0.9883,-1.0378,-1.0683,-1.0683,-1.0527,-1.0114,-0.9395,0.0,0.0,0.0,0.0,0.0,0.0,0.0,0.0,0.0,0.0,0.0,0.0,0.0,0.0,0.0,0.0,0.0,0.0,0.0,0.0,0.0,0.0,0.0,0.0,0.0,0.0,0.0,0.0,0.0,0.0,0.0,0.0,0.0,0.0,0.0,0.0,0.0,0.0,0.0,0.0,0.0,0.0,0.0,0.0,0.0,0.0,0.0,0.0,0.0,0.0,0.0,0.0,0.0,0.0,0.0,0.0,0.0,0.0,0.0,0.0,0.0,0.0,0.0,0.0,0.0,0.0,0.0,0.0,0.0,0.0,0.0,0.0,0.0,0.0,0.0,0.0,0.0,0.0,0.0,0.0,0.0,0.0,0.0,0.0,0.0,0.0,0.0,0.0,0.0,0.0,0.0,0.0,0.0,0.0,0.0,0.0,0.0,0.0,0.0,0.0,0.0,0.0,0.0,0.0,-0.9555,-1.0304,-1.0473,-1.0527,-1.0527,-1.0276,-0.9849,-0.9282,0.0,0.0,0.0,0.0,0.0,0.0,0.0,0.0,0.0,0.0,0.0,0.0,0.0,0.0,0.0,0.0,0.0,0.0,0.0,0.0,0.0,0.0,0.0,0.0,0.0,0.0,0.0,0.0,0.0,0.0,0.0,0.0,0.0,0.0,0.0,0.0,0.0,0.0,0.0,0.0,0.0,0.0,0.0,0.0,0.0,0.0,0.0,0.0,0.0,0.0,0.0,0.0,0.0,0.0,0.0,0.0,0.0,0.0,0.0,0.0,0.0,0.0,0.0,0.0,0.0,0.0,0.0,0.0,0.0,0.0,0.0,0.0,0.0,0.0,0.0,0.0,0.0,0.0,0.0,0.0,0.0,0.0,0.0,0.0,0.0,0.0,0.0,0.0,0.0,0.0,0.0,0.0,0.0,0.0,0.0,0.0,0.0,0.0,0.0,0.0,0.0,0.0,0.0,-0.9523,-0.9795,-1.0534,-1.0541,-1.0493,-1.0493,-1.0222,-0.9795,-0.9248,-0.8866,0.0,0.0,0.0,0.0,0.0,0.0,0.0,0.0,0.0,0.0,0.0,0.0,0.0,0.0,0.0,0.0,0.0,0.0,0.0,0.0,0.0,0.0,0.0,0.0,0.0,0.0,0.0,0.0,0.0,0.0,0.0,0.0,0.0,0.0,0.0,0.0,0.0,0.0,0.0,0.0,0.0,0.0,0.0,0.0,0.0,0.0,0.0,0.0,0.0,0.0,0.0,0.0,0.0,0.0,0.0,0.0,0.0,0.0,0.0,0.0,0.0,0.0,0.0,0.0,0.0,0.0,0.0,0.0,0.0,0.0,0.0,0.0,0.0,0.0,0.0,0.0,0.0,0.0,0.0,0.0,0.0,0.0,0.0,0.0,0.0,0.0,0.0,0.0,0.0,0.0,0.0,0.0,0.0,0.0,0.0,0.0,0.0,0.0,0.0,0.0,0.0,0.0,-0.9724,-1.0209,-1.067,-1.0555,-1.0439,-1.0439,-1.0073,-0.9625,-0.913,-0.8615,0.0,0.0,0.0,0.0,0.0,0.0,0.0,0.0,0.0,0.0,0.0,0.0,0.0,0.0,0.0,0.0,0.0,0.0,0.0,0.0,0.0,0.0,0.0,0.0,0.0,0.0,0.0,0.0,0.0,0.0,0.0,0.0,0.0,0.0,0.0,0.0,0.0,0.0,0.0,0.0,0.0,0.0,0.0,0.0,0.0,0.0,0.0,0.0,0.0,0.0,0.0,0.0,0.0,0.0,0.0,0.0,0.0,0.0,0.0,0.0,0.0,0.0,0.0,0.0,0.0,0.0,0.0,0.0,0.0,0.0,0.0,0.0,0.0,0.0,0.0,0.0,0.0,0.0,0.0,0.0,0.0,0.0,0.0,0.0,0.0,0.0,0.0,0.0,0.0,0.0,0.0,0.0,0.0,0.0,0.0,0.0,0.0,0.0,0.0,0.0,0.0,0.0,-0.9387,-1.067,-1.0717,-1.0466,-1.0297,-1.0297,-0.9692,-0.9144,-0.8912,-0.8262,0.0,0.0,0.0,0.0,0.0,0.0,0.0,0.0,0.0,0.0,0.0,0.0,0.0,0.0,0.0,0.0,0.0,0.0,0.0,0.0,0.0,0.0,0.0,0.0,0.0,0.0,0.0,0.0,0.0,0.0,0.0,0.0,0.0,0.0,0.0,0.0,0.0,0.0,0.0,0.0,0.0,0.0,0.0,0.0,0.0,0.0,0.0,0.0,0.0,0.0,0.0,0.0,0.0,0.0,0.0,0.0,0.0,0.0,0.0,0.0,0.0,0.0,0.0,0.0,0.0,0.0,0.0,0.0,0.0,0.0,0.0,0.0,0.0,0.0,0.0,0.0,0.0,0.0,0.0,0.0,0.0,0.0,0.0,0.0,0.0,0.0,0.0,0.0,0.0,0.0,0.0,0.0,0.0,0.0,0.0,0.0,0.0,0.0,0.0,0.0,0.0,0.0,-0.9112,-1.0412,0.0,-1.046,-1.0283,-1.0283,-0.9761,-0.8909,-0.7719,0.0,0.0,0.0,0.0,0.0,0.0,0.0,0.0,0.0,0.0,0.0,0.0,0.0,0.0,0.0,0.0,0.0,0.0,0.0,0.0,0.0,0.0,0.0,0.0,0.0,0.0,0.0,0.0,0.0,0.0,0.0,0.0,0.0,0.0,0.0,0.0,0.0,0.0,0.0,0.0,0.0,0.0,0.0,0.0,0.0,0.0,0.0,0.0,0.0,0.0,0.0,0.0,0.0,0.0,0.0,0.0,0.0,0.0,0.0,0.0,0.0,0.0,0.0,0.0,0.0,0.0,0.0,0.0,0.0,0.0,0.0,0.0,0.0,0.0,0.0,0.0,0.0,0.0,0.0,0.0,0.0,0.0,0.0,0.0,0.0,0.0,0.0,0.0,0.0,0.0,0.0,0.0,0.0,0.0,0.0,0.0,0.0,0.0,0.0,0.0,0.0,0.0,-0.7238,-0.9093,-1.0378,0.0,-1.046,-1.0283,-1.0283,-0.9734,-0.8856,-0.7539,0.0,0.0,0.0,0.0,0.0,0.0,0.0,0.0,0.0,0.0,0.0,0.0,0.0,0.0,0.0,0.0,0.0,0.0,0.0,0.0,0.0,0.0,0.0,0.0,0.0,0.0,0.0,0.0,0.0,0.0,0.0,0.0,0.0,0.0,0.0,0.0,0.0,0.0,0.0,0.0,0.0,0.0,0.0,0.0,0.0,0.0,0.0,0.0,0.0,0.0,0.0,0.0,0.0,0.0,0.0,0.0,0.0,0.0,0.0,0.0,0.0,0.0,0.0,0.0,0.0,0.0,0.0,0.0,0.0,0.0,0.0,0.0,0.0,0.0,0.0,0.0,0.0,0.0,0.0,0.0,0.0,0.0,0.0,0.0,0.0,0.0,0.0,0.0,0.0,0.0,0.0,0.0,0.0,0.0,0.0,0.0,0.0,0.0,0.0,0.0,0.0,0.0,-0.7386,-0.9337,-1.0717,-1.0717,-1.046,-1.0283,-1.0283,-0.9462,-0.8824,0.0,0.0,0.0,0.0,0.0,0.0,0.0,0.0,0.0,0.0,0.0,0.0,0.0,0.0,0.0,0.0,0.0,0.0,0.0,0.0,0.0,0.0,0.0,0.0,0.0,0.0,0.0,0.0,0.0,0.0,0.0,0.0,0.0,0.0,0.0,0.0,0.0,0.0,0.0,0.0,0.0,0.0,0.0,0.0,0.0,0.0,0.0,0.0,0.0,0.0,0.0,0.0,0.0,0.0,0.0,0.0,0.0,0.0,0.0,0.0,0.0,0.0,0.0,0.0,0.0,0.0,0.0,0.0,0.0,0.0,0.0,0.0,0.0,0.0,0.0,0.0,0.0,0.0,0.0,0.0,0.0,0.0,0.0,0.0,0.0,0.0,0.0,0.0,0.0,0.0,0.0,0.0,0.0,0.0,0.0,0.0,0.0,0.0,0.0,0.0,0.0,0.0,0.0,-0.7269,-0.9337,-1.0717,-1.0717,-1.0548,-1.0392,-1.029,-0.9747,-0.8806,-0.7539,0.0,0.0,0.0,0.0,0.0,0.0,0.0,0.0,0.0,0.0,0.0,0.0,0.0,0.0,0.0,0.0,0.0,0.0,0.0,0.0,0.0,0.0,0.0,0.0,0.0,0.0,0.0,0.0,0.0,0.0,0.0,0.0,0.0,0.0,0.0,0.0,0.0,0.0,0.0,0.0,0.0,0.0,0.0,0.0,0.0,0.0,0.0,0.0,0.0,0.0,0.0,0.0,0.0,0.0,0.0,0.0,0.0,0.0,0.0,0.0,0.0,0.0,0.0,0.0,0.0,0.0,0.0,0.0,0.0,0.0,0.0,0.0,0.0,0.0,0.0,0.0,0.0,0.0,0.0,0.0,0.0,0.0,0.0,0.0,0.0,0.0,0.0,0.0,0.0,0.0,0.0,0.0,0.0,0.0,0.0,0.0,0.0,0.0,0.0,0.0,0.0,0.0,-0.8032,-0.9658,-1.0717,-1.0717,-1.0582,-1.0432,-1.029,-0.9917,-0.9117,-0.7714,0.0,0.0,0.0,0.0,0.0,0.0,0.0,0.0,0.0,0.0,0.0,0.0,0.0,0.0,0.0,0.0,0.0,0.0,0.0,0.0,0.0,0.0,0.0,0.0,0.0,0.0,0.0,0.0,0.0,0.0,0.0,0.0,0.0,0.0,0.0,0.0,0.0,0.0,0.0,0.0,0.0,0.0,0.0,0.0,0.0,0.0,0.0,0.0,0.0,0.0,0.0,0.0,0.0,0.0,0.0,0.0,0.0,0.0,0.0,0.0,0.0,0.0,0.0,0.0,0.0,0.0,0.0,0.0,0.0,0.0,0.0,0.0,0.0,0.0,0.0,0.0,0.0,0.0,0.0,0.0,0.0,0.0,0.0,0.0,0.0,0.0,0.0,0.0,0.0,0.0,0.0,0.0,0.0,0.0,0.0,0.0,0.0,0.0,0.0,0.0,0.0,0.0,-0.9026,-1.0098,-1.0717,-1.0717,-1.0595,-1.0453,-1.031,-1.0032,-0.9557,-0.8838,0.0,0.0,0.0,0.0,0.0,0.0,0.0,0.0,0.0,0.0,0.0,0.0,0.0,0.0,0.0,0.0,0.0,0.0,0.0,0.0,0.0,0.0,0.0,0.0,0.0,0.0,0.0,0.0,0.0,0.0,0.0,0.0,0.0,0.0,0.0,0.0,0.0,0.0,0.0,0.0,0.0,0.0,0.0,0.0,0.0,0.0,0.0,0.0,0.0,0.0,0.0,0.0,0.0,0.0,0.0,0.0,0.0,0.0,0.0,0.0,-0.3525,0.0,0.0,0.0,0.0,0.0,0.0,0.0,0.0,0.0,0.0,0.0,0.0,0.0,0.0,0.0,0.0,0.0,0.0,0.0,0.0,0.0,0.0,0.0,0.0,0.0,0.0,0.0,0.0,0.0,0.0,0.0,0.0,0.0,0.0,0.0,0.0,0.0,0.0,0.0,0.0,0.0,-0.7677,-0.9526,-1.0717,-1.0717,-1.069,-1.0609,-1.046,-1.0283,-0.9964,-0.9449,-0.894,0.0,0.0,0.0,0.0,0.0,0.0,0.0,0.0,0.0,0.0,0.0,0.0,0.0,0.0,0.0,0.0,0.0,0.0,0.0,0.0,0.0,0.0,0.0,0.0,0.0,0.0,0.0,0.0,0.0,0.0,0.0,0.0,0.0,0.0,0.0,0.0,0.0,0.0,0.0,0.0,0.0,0.0,0.0,0.0,0.0,0.0,0.0,0.0,0.0,0.0,0.0,0.0,0.0,0.0,0.0,0.0,0.0,0.0,0.0,0.0,-0.2652,0.0,0.0,0.0,0.0,0.0,0.0,0.0,0.0,0.0,0.0,0.0,0.0,0.0,0.0,0.0,0.0,0.0,0.0,0.0,0.0,0.0,0.0,0.0,0.0,0.0,0.0,0.0,0.0,0.0,0.0,0.0,0.0,0.0,0.0,0.0,0.0,0.0,0.0,0.0,0.0,-0.7225,-0.9317,-1.0717,-1.0717,-1.0717,-1.0656,-1.0507,-1.0426,-1.0188,-0.9741,-0.9354,0.0,0.0,0.0,0.0,0.0,0.0,0.0,0.0,0.0,0.0,0.0,0.0,0.0,0.0,0.0,0.0,0.0,0.0,0.0,0.0,0.0,0.0,0.0,0.0,0.0,0.0,0.0,0.0,0.0,0.0,0.0,0.0,0.0,0.0,0.0,0.0,0.0,0.0,0.0,0.0,0.0,0.0,0.0,0.0,0.0,0.0,0.0,0.0,0.0,0.0,0.0,0.0,0.0,0.0,0.0,0.0,0.0,0.0,-0.0072,-0.1147,-0.1047,0.0,0.0,0.0,0.0,0.0,0.0,0.0,0.0,0.0,0.0,0.0,0.0,0.0,0.0,0.0,0.0,0.0,0.0,0.0,0.0,0.0,0.0,0.0,0.0,0.0,0.0,-0.5063,-0.4961,0.0,0.0,0.0,0.0,0.0,0.0,0.0,0.0,0.0,0.0,0.0,0.0,-0.6916,-0.9182,-1.0717,-1.0717,-1.0717,-1.067,-1.0541,-1.0534,-1.0358,-0.9964,-0.9781,-0.951,0.0,0.0,0.0,0.0,0.0,0.0,0.0,0.0,0.0,0.0,0.0,0.0,0.0,0.0,0.0,0.0,0.0,0.0,0.0,0.0,0.0,0.0,0.0,0.0,0.0,0.0,0.0,0.0,0.0,0.0,0.0,0.0,0.0,0.0,0.0,0.0,0.0,0.0,0.0,0.0,0.0,0.0,0.0,0.0,0.0,0.0,0.0,0.0,0.0,0.0,0.0,0.0,0.0,0.0,0.0,0.0,0.0,0.0,-0.0151,0.0,0.0,0.0,0.0,0.0,0.0,0.0,0.0,0.0,0.0,0.0,0.0,0.0,0.0,0.0,0.0,0.0,0.0,0.0,0.0,0.0,0.0,0.0,0.0,0.0,-0.5427,-0.5355,-0.4152,-0.3042,0.0,-0.1411,0.0,0.0,0.0,0.0,0.0,0.0,0.0,0.0,0.0,0.0,-0.562,-0.859,-1.0717,-1.0717,-1.0717,-1.0711,-1.069,-1.069,-1.0609,-1.0419,-1.0148,-0.9903,-0.9713,-0.9293,0.0,0.0,0.0,0.0,0.0,0.0,0.0,0.0,0.0,0.0,0.0,0.0,0.0,0.0,0.0,0.0,0.0,0.0,0.0,0.0,0.0,0.0,0.0,0.0,0.0,0.0,0.0,0.0,0.0,0.0,0.0,0.0,0.0,0.0,0.0,0.0,0.0,0.0,0.0,0.0,0.0,0.0,0.0,0.0,0.0,0.0,0.0,0.0,0.0,0.0,0.0,0.0,0.0,0.0,0.0,0.0,0.0,0.0,0.0,0.0,0.0,-0.0067,0.0,0.0,0.0,0.0,-0.1573,-0.0986,-0.0934,-0.0534,0.0,0.0,0.0,0.0,0.0,0.0,0.0,0.0,0.0,0.0,0.0,0.0,0.0,-0.3874,-0.3341,-0.2494,-0.1409,-0.0546,0.0,0.0,0.0,0.0,0.0,0.0,0.0,0.0,0.0,-0.687,-0.6848,-0.908,-1.0717,-1.0717,-1.0717,-1.0717,-1.0717,-1.0717,-1.069,-1.0622,-1.0419,-1.027,-1.0202,-0.9768,-0.9462,0.0,0.0,0.0,0.0,0.0,0.0,0.0,0.0,0.0,0.0,0.0,0.0,0.0,0.0,0.0,0.0,0.0,0.0,0.0,0.0,0.0,0.0,0.0,0.0,0.0,0.0,0.0,0.0,0.0,0.0,0.0,0.0,0.0,0.0,0.0,0.0,0.0,0.0,0.0,0.0,0.0,0.0,0.0,0.0,0.0,0.0,0.0,0.0,0.0,0.0,0.0,0.0,0.0,0.0,0.0,0.0,0.0,0.0,0.0,0.0,0.0,0.0,0.0,0.0,0.0,0.0,0.0,0.0,0.0,0.0,0.0,0.0,0.0,0.0,0.0,0.0,0.0,0.0,-0.0333,-0.1649,-0.2095,-0.2118,-0.2004,-0.2097,-0.174,-0.0287,0.0,0.0,0.0,-0.0391,-0.0703,-0.0669,0.0,0.0,0.0,0.0,-0.8001,-0.7991,-0.9568,-1.0717,-1.0717,-1.0717,-1.0717,-1.0717,-1.0717,-1.0717,-1.0717,-1.0616,-1.0548,-1.0548,-1.0188,-0.9924,-0.9781,0.0,0.0,0.0,0.0,0.0,0.0,0.0,0.0,0.0,0.0,0.0,0.0,0.0,0.0,0.0,0.0,0.0,0.0,0.0,0.0,0.0,0.0,0.0,0.0,0.0,0.0,0.0,0.0,0.0,0.0,0.0,0.0,0.0,0.0,0.0,0.0,0.0,0.0,0.0,0.0,0.0,0.0,0.0,0.0,0.0,0.0,0.0,0.0,0.0,0.0,0.0,0.0,0.0,0.0,0.0,0.0,0.0,0.0,0.0,0.0,0.0,0.0,0.0,0.0,0.0,0.0,0.0,0.0,0.0,0.0,0.0,0.0,0.0,0.0,0.0,0.0,0.0,0.0,-0.0142,-0.0143,-0.0143,-0.0145,-0.0146,-0.0145,0.0,0.0,0.0,0.0,-0.1406,-0.2547,-0.2568,0.0,-0.5261,-0.5258,-0.6855,-0.7991,-0.7972,-0.9557,-1.0717,-1.0717,-1.0717,-1.0717,-1.0717,-1.0717,-1.0717,-1.0717,-1.0711,-1.0711,-1.0711,-1.0548,-1.0392,-1.0249,-0.9795,0.0,0.0,0.0,0.0,0.0,0.0,0.0,0.0,0.0,0.0,0.0,0.0,0.0,0.0,0.0,0.0,0.0,0.0,0.0,0.0,0.0,0.0,0.0,0.0,0.0,0.0,0.0,0.0,0.0,0.0,0.0,0.0,0.0,0.0,0.0,0.0,0.0,0.0,0.0,0.0,0.0,0.0,0.0,0.0,0.0,0.0,0.0,0.0,0.0,0.0,0.0,0.0,0.0,0.0,0.0,0.0,0.0,0.0,0.0,0.0,0.0,0.0,0.0,0.0,0.0,0.0,0.0,0.0,0.0,0.0,0.0,0.0,0.0,0.0,0.0,0.0,0.0,0.0,0.0,0.0,0.0,0.0,0.0,0.0,-0.1006,-0.185,-0.1832,-0.2357,-0.3193,-0.4375,-0.609,-0.7252,-0.7121,-0.8561,-0.9717,-0.9761,-1.0287,-1.0717,-1.0717,-1.0717,-1.0717,-1.0717,-1.0717,-1.0717,-1.0717,-1.0717,-1.0717,-1.0717,-1.067,-1.0527,-1.0283,-0.993,-0.9241,0.0,0.0,0.0,0.0,0.0,0.0,0.0,0.0,0.0,0.0,0.0,0.0,0.0,0.0,0.0,0.0,0.0,0.0,0.0,0.0,0.0,0.0,0.0,0.0,0.0,0.0,0.0,0.0,0.0,0.0,0.0,0.0,0.0,0.0,0.0,0.0,0.0,0.0,0.0,0.0,0.0,0.0,0.0,0.0,0.0,0.0,0.0,0.0,0.0,0.0,0.0,0.0,0.0,0.0,0.0,0.0,0.0,0.0,0.0,0.0,0.0,0.0,0.0,0.0,0.0,0.0,0.0,0.0,0.0,0.0,0.0,0.0,0.0,0.0,0.0,0.0,0.0,0.0,0.0,0.0,-0.051,-0.0947,-0.0947,-0.2529,-0.4087,-0.4729,-0.4805,-0.5137,-0.6401,-0.8043,-0.9103,-0.8999,-0.9949,-1.0717,-1.0717,-1.0717,-1.0717,-1.0717,-1.0717,-1.0717,-1.0717,-1.067,-1.0663,-1.0717,-1.0629,-1.0616,-1.0717,-1.0622,-1.05,-1.0351,-0.9565,-0.9168,-0.9256,0.0,0.0,0.0,0.0,0.0,0.0,0.0,0.0,0.0,0.0,0.0,0.0,0.0,0.0,0.0,0.0,0.0,0.0,0.0,0.0,0.0,0.0,0.0,0.0,0.0,0.0,0.0,0.0,0.0,0.0,0.0,0.0,0.0,0.0,0.0,0.0,0.0,0.0,0.0,0.0,0.0,0.0,0.0,0.0,0.0,0.0,0.0,0.0,0.0,0.0,0.0,0.0,0.0,0.0,0.0,0.0,0.0,0.0,0.0,0.0,0.0,0.0,0.0,0.0,0.0,0.0,0.0,0.0,0.0,-0.0073,-0.0073,0.0,-0.0073,-0.0073,0.0,0.0,-0.0073,-0.0073,-0.0073,-0.1602,-0.2979,-0.2979,-0.4576,-0.6532,-0.841,-0.8813,-0.8729,-0.8591,-0.9874,-1.0887,-1.088,-1.0819,0.0,-1.0717,-1.0717,-1.0717,-1.0717,-1.0717,-1.0717,-1.0717,-1.0582,-1.0561,-1.0711,-1.0453,-1.0426,-1.0711,-1.0446,-1.0358,-1.0487,-0.8801,-0.8602,-0.9984,0.0,0.0,0.0,0.0,0.0,0.0,0.0,0.0,0.0,0.0,0.0,0.0,0.0,0.0,0.0,0.0,0.0,0.0,0.0,0.0,0.0,0.0,0.0,0.0,0.0,0.0,0.0,0.0,0.0,0.0,0.0,0.0,0.0,0.0,0.0,0.0,0.0,0.0,0.0,0.0,0.0,0.0,0.0,0.0,0.0,0.0,0.0,0.0,0.0,0.0,0.0,0.0,0.0,0.0,0.0,0.0,0.0,0.0,0.0,0.0,0.0,0.0,0.0,0.0,0.0,0.0,0.0,0.0,-0.0301,-0.1799,-0.1191,-0.0296,-0.1846,-0.1174,0.0,0.0,-0.102,-0.211,-0.211,-0.3562,-0.5011,-0.5011,-0.7598,-1.0108,-1.0609,-1.2965,-1.3941,-1.1124,-1.0922,-1.107,-1.0894,-1.0819,0.0,-1.0717,-1.0717,-1.0717,-1.0717,-1.0717,-1.0717,-1.0717,-1.0683,-1.0677,-1.0717,-1.0643,-1.0636,-1.0717,-1.0643,-1.0568,-1.0493,-0.9882,-0.9738,0.0,0.0,0.0,0.0,0.0,0.0,0.0,0.0,0.0,0.0,0.0,0.0,0.0,0.0,0.0,0.0,0.0,0.0,0.0,0.0,0.0,0.0,0.0,0.0,0.0,0.0,0.0,0.0,0.0,0.0,0.0,0.0,0.0,0.0,0.0,0.0,0.0,0.0,0.0,0.0,0.0,0.0,0.0,0.0,0.0,0.0,0.0,0.0,0.0,0.0,0.0,0.0,0.0,0.0,0.0,0.0,0.0,0.0,0.0,0.0,0.0,0.0,0.0,0.0,0.0,0.0,-0.0155,-0.0996,-0.1296,-0.1674,-0.378,-0.3606,-0.2836,-0.4006,-0.3463,-0.249,-0.2478,-0.3272,-0.4141,-0.4141,-0.5591,-0.7251,-0.8035,-1.0537,-1.297,-1.3744,-1.568,0.0,-1.4226,-1.3083,-1.216,-1.1193,-1.0907,-1.0792,-1.0731,-1.0717,-1.0717,-1.0717,-1.0717,-1.0717,-1.0717,-1.0663,0.0,0.0,0.0,-1.0561,-1.0622,-1.0751,0.0,0.0,0.0,0.0,0.0,0.0,0.0,0.0,-0.9153,-0.8402,0.0,0.0,0.0,0.0,0.0,0.0,0.0,0.0,0.0,0.0,0.0,0.0,0.0,0.0,0.0,0.0,0.0,0.0,0.0,0.0,0.0,0.0,0.0,0.0,0.0,0.0,0.0,0.0,0.0,0.0,0.0,0.0,0.0,0.0,0.0,0.0,0.0,0.0,0.0,0.0,0.0,0.0,0.0,0.0,0.0,0.0,0.0,-0.0177,-0.0442,-0.0442,-0.0527,-0.0694,-0.0172,0.0,0.0,0.0,0.0,0.0,0.0,0.0,0.0,-0.2477,-0.3238,-0.3846,-0.6001,-0.6502,-0.633,-0.6329,-0.623,-0.5987,-0.5849,-0.6054,-0.6195,-0.6185,-0.7634,-0.9507,-1.1123,-1.3199,-1.5203,-1.6896,-1.7529,-1.7809,-1.7529,-1.5672,-1.3608,-1.1822,-1.12,-1.0847,-1.0765,-1.0744,-1.0738,-1.0724,0.0,0.0,-1.0717,-1.0609,-1.0602,-1.0738,-1.0514,-1.0446,-1.0588,-1.0867,-1.1084,-1.1212,-1.1246,-1.145,-1.183,-1.185,-1.1945,-1.2088,-0.9934,-0.9078,0.0,0.0,0.0,0.0,0.0,0.0,0.0,0.0,0.0,0.0,0.0,0.0,0.0,0.0,0.0,0.0,0.0,0.0,0.0,0.0,0.0,0.0,0.0,0.0,0.0,0.0,0.0,0.0,0.0,0.0,0.0,0.0,0.0,0.0,0.0,0.0,0.0,0.0,0.0,0.0,0.0,0.0,0.0,0.0,0.0,0.0,0.0,-0.1073,-0.2947,-0.2947,-0.3968,-0.5189,-0.146,0.0,0.0,0.0,0.0,0.0,0.0,-0.1098,-0.2583,-0.2967,-0.4289,-0.6075,-0.8152,-0.7629,0.0,-0.8308,-0.7565,-0.623,-0.6216,-0.7406,-0.8503,-0.8347,-0.9798,-1.1239,-1.1554,-1.429,-1.6756,-1.7107,-1.9704,-2.1321,-1.9773,-1.6569,-1.4067,-1.3686,-1.2237,-1.107,-1.0921,-1.084,-1.0793,-1.0731,-1.0717,-1.0717,-1.0717,-1.0806,-1.0806,-1.0833,-1.0962,-1.1063,-1.1212,-1.1389,-1.1504,-1.1531,-1.1762,-1.187,-1.183,-1.1959,-1.2155,-1.2413,-1.1815,-1.1671,0.0,0.0,0.0,0.0,0.0,0.0,0.0,0.0,0.0,0.0,0.0,0.0,0.0,0.0,0.0,0.0,0.0,0.0,0.0,0.0,0.0,0.0,0.0,0.0,0.0,0.0,0.0,0.0,0.0,0.0,0.0,0.0,0.0,0.0,0.0,0.0,0.0,0.0,0.0,0.0,0.0,0.0,0.0,0.0,0.0,-0.009,-0.1255,-0.2507,-0.3669,-0.4829,-0.6021,-0.6795,-0.4403,-0.3384,-0.3378,-0.3258,-0.322,-0.3262,-0.3145,-0.3836,-0.4849,-0.5939,-0.6956,-0.8205,-1.0308,-1.0269,-0.9587,-1.0609,-1.0084,-0.9262,-0.9205,-0.9944,-1.0604,-1.0545,-1.1273,-1.222,-1.3079,-1.4711,-1.6324,-1.7146,-1.9678,-2.0983,-1.903,-1.7017,-1.5375,-1.4371,-1.2564,-1.1226,-1.1077,-1.1056,-1.1023,-1.0948,-1.0941,-1.0941,-1.0941,-1.1009,-1.109,-1.1165,-1.124,-1.1375,-1.1599,-1.1687,-1.1796,-1.1952,-1.2101,-1.2169,-1.2169,-1.2244,-1.24,-1.2617,-1.2542,-1.2589,0.0,0.0,0.0,0.0,0.0,0.0,0.0,0.0,0.0,0.0,0.0,0.0,0.0,0.0,0.0,0.0,0.0,0.0,0.0,0.0,0.0,0.0,0.0,0.0,0.0,0.0,0.0,0.0,0.0,0.0,0.0,0.0,0.0,0.0,0.0,0.0,0.0,0.0,0.0,0.0,0.0,0.0,0.0,0.0,0.0,-0.018,-0.3045,-0.4561,-0.5186,-0.7506,-0.8522,-0.8428,-0.8338,-0.8158,-0.7942,-0.6937,-0.6529,-0.6453,-0.638,-0.658,-0.7193,-0.8828,-0.9687,-1.0308,-1.1953,-1.2501,-1.2474,-1.2366,-1.2332,-1.2305,-1.2182,-1.2149,-1.2142,-1.2115,-1.2108,-1.2543,-1.4046,-1.4613,-1.5298,-1.6735,-1.8502,-1.9233,-1.7622,-1.7025,-1.616,-1.4518,-1.2615,-1.1382,-1.1226,-1.1206,-1.1199,-1.1165,-1.1234,-1.1241,-1.1275,-1.1233,-1.1314,-1.1463,-1.1504,-1.164,-1.1911,-1.1918,-1.2067,-1.2372,-1.2345,-1.24,-1.2549,-1.2549,-1.2623,-1.2779,-1.28,-1.2881,0.0,0.0,0.0,0.0,0.0,0.0,0.0,0.0,0.0,0.0,0.0,0.0,0.0,0.0,0.0,0.0,0.0,0.0,0.0,0.0,0.0,0.0,0.0,0.0,0.0,0.0,0.0,0.0,0.0,0.0,0.0,0.0,0.0,0.0,0.0,0.0,0.0,0.0,0.0,0.0,0.0,0.0,0.0,0.0,0.0,-0.0269,-0.474,-0.7951,-1.0091,-1.2503,-1.3406,-1.3265,-1.3118,-1.2958,-1.2353,-0.8197,-0.6608,-0.6532,-0.6456,-0.7645,-0.9061,-0.9299,-1.0624,-1.2185,-1.2424,-1.2501,-1.2501,-1.2481,-1.2481,-1.2474,-1.2461,-1.2454,-1.242,-1.2291,-1.2264,-1.2306,-1.2387,-1.3741,-1.4973,-1.5177,-1.6708,-1.7937,-1.7699,-1.6232,-1.495,-1.4449,-1.2787,-1.1538,-1.1389,-1.1362,-1.1314,-1.1179,-1.1234,-1.1219,-1.1355,-1.1491,-1.1633,-1.1775,-1.1911,-1.206,-1.223,-1.2237,-1.2379,-1.2678,-1.2549,-1.2556,-1.2705,-1.2705,-1.2786,-1.2935,-1.3064,-1.3132,0.0,0.0,0.0,0.0,0.0,0.0,0.0,0.0,0.0,0.0,0.0,0.0,0.0,0.0,0.0,0.0,0.0,0.0,0.0,0.0,0.0,0.0,0.0,0.0,0.0,0.0,0.0,0.0,0.0,0.0,0.0,0.0,0.0,0.0,0.0,0.0,0.0,0.0,0.0,0.0,0.0,0.0,0.0,0.0,-0.0807,-0.224,-0.4206,-0.7235,-1.0806,-1.1788,-1.3009,-1.419,-1.4034,-1.3885,-1.3448,-1.1311,-1.0416,-1.0346,-1.0163,-1.0622,-1.1275,-1.1197,-1.1798,-1.2501,-1.2501,-1.2501,-1.2501,-1.2501,-1.2569,-1.2637,-1.2637,-1.2698,-1.2752,-1.2691,-1.2678,-1.2664,-1.2681,-1.312,-1.3632,-1.3535,-1.4927,-1.5851,-1.4646,-1.4695,-1.4498,-1.3263,-1.2299,-1.1687,-1.1545,-1.1525,-1.1531,-1.1552,-1.1633,-1.1787,-1.1775,-1.1843,-1.1938,-1.2088,-1.2074,-1.2169,-1.2406,-1.2332,-1.2427,-1.2725,-1.2664,-1.2712,-1.2868,-1.2868,-1.2942,-1.3085,-1.3146,-1.2516,0.0,0.0,0.0,0.0,0.0,0.0,0.0,0.0,0.0,0.0,0.0,0.0,0.0,0.0,0.0,0.0,0.0,0.0,0.0,0.0,0.0,0.0,0.0,0.0,0.0,0.0,0.0,0.0,0.0,0.0,0.0,0.0,0.0,0.0,0.0,0.0,0.0,0.0,0.0,0.0,0.0,0.0,0.0,0.0,-0.1345,-0.358,-0.358,-0.5901,-0.9735,-0.9735,-1.1161,-1.3299,-1.3154,-1.3387,-1.3858,-1.3451,-1.3247,-1.3146,-1.2929,-1.2827,-1.2766,-1.2617,-1.2562,-1.2556,-1.2515,-1.2528,-1.2562,-1.2562,-1.2678,-1.2793,-1.2793,-1.2874,-1.2963,-1.2963,-1.2963,-1.2963,-1.2963,-1.284,-1.2698,-1.2583,-1.3501,-1.3952,-1.2422,-1.3364,-1.3791,-1.2353,-1.206,-1.1952,-1.1762,-1.1742,-1.1782,-1.1884,-1.1993,-1.2135,-1.2135,-1.2101,-1.2189,-1.2338,-1.2284,-1.2359,-1.2617,-1.2528,-1.2596,-1.2847,-1.2813,-1.2868,-1.3097,-1.3097,-1.3091,-1.3234,-1.3281,-1.2509,0.0,0.0,0.0,0.0,0.0,0.0,0.0,0.0,0.0,0.0,0.0,0.0,0.0,0.0,0.0,0.0,0.0,0.0,0.0,0.0,0.0,0.0,0.0,0.0,0.0,0.0,0.0,0.0,0.0,0.0,0.0,0.0,0.0,0.0,0.0,0.0,0.0,0.0,0.0,0.0,0.0,0.0,0.0,0.0,-0.1345,-0.358,-0.358,-0.5008,-0.7235,-0.7235,-0.8664,-1.0796,-1.0678,-1.2039,-1.4027,-1.3729,-1.3424,-1.3173,-1.3159,-1.3071,-1.2929,-1.2773,-1.2725,-1.2698,-1.2549,-1.2603,-1.2725,-1.2725,-1.2834,-1.2956,-1.2956,-1.3036,-1.2963,-1.2963,-1.2963,-1.2963,-1.2963,-1.284,-1.2725,-1.2725,-1.2596,-1.2572,-1.2488,-1.2565,-1.2517,-1.2305,-1.2393,-1.2379,-1.2088,-1.2047,-1.2121,-1.2054,-1.2135,-1.2135,-1.2135,-1.2196,-1.2345,-1.2488,-1.263,-1.2779,-1.2942,-1.2942,-1.301,-1.3159,-1.3024,-1.3024,-1.3166,-1.3166,-1.3247,-1.3397,-1.3546,-1.361,0.0,0.0,0.0,0.0,0.0,0.0,0.0,0.0,0.0,0.0,0.0,0.0,0.0,0.0,0.0,0.0,0.0,0.0,0.0,0.0,0.0,0.0,0.0,0.0,0.0,0.0,0.0,0.0,0.0,0.0,0.0,0.0,0.0,0.0,0.0,0.0,0.0,0.0,0.0,0.0,0.0,0.0,0.0,0.0,-0.0449,-0.1256,-0.1256,-0.2597,-0.474,-0.474,-0.6168,-0.8304,-0.8272,-0.9638,-1.1679,-1.1594,-1.2356,-1.3444,-1.3241,-1.3139,-1.3078,-1.2929,-1.2813,-1.2718,-1.2671,-1.2691,-1.2732,-1.2732,-1.2908,-1.3105,-1.3105,-1.318,-1.3254,-1.3254,-1.3254,-1.3254,-1.3254,-1.3132,-1.2996,-1.2901,-1.2759,-1.2623,-1.2522,-1.2501,-1.2522,-1.2576,-1.2454,-1.2359,-1.2352,-1.244,-1.2508,-1.2508,-1.2596,-1.2736,-1.2736,-1.2705,-1.2759,-1.2807,-1.2854,-1.2908,-1.3043,-1.2963,-1.3078,-1.3322,-1.3275,-1.337,-1.3614,-1.3614,-1.3641,-1.3695,-1.3743,-1.2981,0.0,0.0,0.0,0.0,0.0,0.0,0.0,0.0,0.0,0.0,0.0,0.0,0.0,0.0,0.0,0.0,0.0,0.0,0.0,0.0,0.0,0.0,0.0,0.0,0.0,0.0,0.0,0.0,0.0,0.0,0.0,0.0,0.0,0.0,0.0,0.0,0.0,0.0,0.0,0.0,0.0,0.0,0.0,0.0,0.0,0.0,0.0,-0.0897,-0.233,-0.233,-0.3669,-0.5811,-0.5811,-0.7296,-0.9277,-0.9241,-1.0019,-1.1419,-1.2849,-1.3302,-1.3227,-1.3085,-1.2969,-1.2881,-1.2827,-1.2847,-1.2728,-1.1918,-1.1838,-1.1922,-1.1095,-1.1488,-1.2222,-1.2222,-1.281,-1.3403,-1.3403,-1.3281,-1.3146,-1.3057,-1.2915,-1.2779,-1.2684,-1.2664,-1.2718,-1.2868,-1.2725,-1.2623,-1.2657,-1.2752,-1.2813,-1.2813,-1.2901,-1.2963,-1.2963,-1.2963,-1.2983,-1.303,-1.3085,-1.3139,-1.32,-1.3247,-1.3363,-1.3553,-1.3559,-1.3648,-1.3838,-1.3838,-1.3871,-1.3926,-1.3926,-1.3127,0.0,0.0,0.0,0.0,0.0,0.0,0.0,0.0,0.0,0.0,0.0,0.0,0.0,0.0,0.0,0.0,0.0,0.0,0.0,0.0,0.0,0.0,0.0,0.0,0.0,0.0,0.0,0.0,0.0,0.0,0.0,0.0,0.0,0.0,0.0,0.0,0.0,0.0,0.0,0.0,0.0,0.0,0.0,0.0,0.0,0.0,0.0,0.0,0.0,0.0,-0.1345,-0.3403,-0.3403,-0.4829,-0.6872,-0.68,-0.6774,-0.7538,-1.176,-1.3204,-1.3217,-1.3241,-1.3186,-1.3146,-1.293,-1.2903,-1.2514,-1.0285,-0.9788,-0.9462,-0.7285,-0.829,-0.9878,-1.0044,-1.1718,-1.3231,-1.3403,-1.3288,-1.318,-1.3173,-1.3057,-1.2963,-1.2963,-1.305,-1.3017,-1.3152,-1.318,-1.3132,-1.3003,-1.299,-1.2996,-1.2996,-1.3003,-1.3003,-1.2996,-1.2996,-1.3051,-1.3186,-1.3336,-1.3485,-1.3634,-1.377,-1.3759,-1.3851,-1.3851,-1.3858,-1.3865,-1.3865,-1.3939,-1.4082,-1.4082,-1.4163,0.0,0.0,0.0,0.0,0.0,0.0,0.0,0.0,0.0,0.0,0.0,0.0,0.0,0.0,0.0,0.0,0.0,0.0,0.0,0.0,0.0,0.0,0.0,0.0,0.0,0.0,0.0,0.0,0.0,0.0,0.0,0.0,0.0,0.0,0.0,0.0,0.0,0.0,0.0,0.0,0.0,0.0,0.0,0.0,0.0,0.0,0.0,0.0,0.0,0.0,-0.0359,-0.0897,-0.0897,-0.2419,-0.4472,-0.4459,-0.5493,-0.7108,-0.8223,-0.9578,-1.1182,-1.2933,-1.3356,-1.2915,-1.1155,-1.0672,-1.0203,-0.7983,-0.747,-0.7455,-0.6871,-0.7118,-0.7956,-0.9628,-1.0466,-1.1386,-1.3065,-1.337,-1.3308,-1.3193,-1.3057,-1.2963,-1.2963,-1.3051,-1.3132,-1.3166,-1.3268,-1.3329,-1.3295,-1.339,-1.3458,-1.3458,-1.3553,-1.3573,-1.3464,-1.3458,-1.3471,-1.3512,-1.3553,-1.3634,-1.3783,-1.3824,-1.3899,-1.4014,-1.4014,-1.4068,-1.4183,-1.4183,-1.4204,-1.4245,-1.4245,-1.4265,0.0,0.0,0.0,0.0,0.0,0.0,0.0,0.0,0.0,0.0,0.0,0.0,0.0,0.0,0.0,0.0,0.0,0.0,0.0,0.0,0.0,0.0,0.0,0.0,0.0,0.0,0.0,0.0,0.0,0.0,0.0,0.0,0.0,0.0,0.0,0.0,0.0,0.0,0.0,0.0,0.0,0.0,0.0,0.0,0.0,0.0,0.0,0.0,0.0,0.0,0.0,0.0,0.0,-0.0807,-0.2061,-0.2061,-0.2765,-0.3987,-0.5105,-0.619,-0.741,-0.9765,-1.0471,-1.0112,-0.8788,-0.8458,-0.7962,-0.5728,-0.5171,-0.503,-0.4027,-0.4444,-0.5784,-0.804,-0.929,-1.0632,-1.2899,-1.3403,-1.3376,-1.3288,-1.3207,-1.3152,-1.3152,-1.322,-1.3295,-1.3363,-1.3444,-1.3526,-1.3587,-1.3614,-1.3654,-1.3715,-1.379,-1.381,-1.3729,-1.3722,-1.3722,-1.3722,-1.3783,-1.3858,-1.3939,-1.4007,-1.4082,-1.417,-1.417,-1.4211,-1.4299,-1.4299,-1.4299,-1.4299,-1.4299,-1.4299,0.0,0.0,0.0,0.0,0.0,0.0,0.0,0.0,0.0,0.0,0.0,0.0,0.0,0.0,0.0,0.0,0.0,0.0,0.0,0.0,0.0,0.0,0.0,0.0,0.0,0.0,0.0,0.0,0.0,0.0,0.0,0.0,0.0,0.0,0.0,0.0,0.0,0.0,0.0,0.0,0.0,0.0,0.0,0.0,-0.0182,-0.0455,-0.018,0.0,-0.0449,-0.009,0.0,0.0,0.0,0.0,0.0,0.0,0.0,-0.0269,-0.241,-0.301,-0.3318,-0.586,-0.6724,-0.663,-0.6369,-0.6282,-0.5784,-0.3608,-0.2939,-0.252,-0.0505,-0.1429,-0.3441,-0.57,-0.7956,-1.0211,-1.2478,-1.3148,-1.3403,-1.3403,-1.3403,-1.3403,-1.3403,-1.3403,-1.3451,-1.3607,-1.3627,-1.3688,-1.3851,-1.3763,-1.3736,-1.3858,-1.3892,-1.3892,-1.3871,-1.3871,-1.3871,-1.3871,-1.3994,-1.4082,-1.4102,-1.4231,-1.4299,-1.4299,-1.4299,-1.4299,-1.4299,-1.4299,-1.4299,-1.4299,-1.4299,-1.4299,0.0,0.0,0.0,0.0,0.0,0.0,0.0,0.0,0.0,0.0,0.0,0.0,0.0,0.0,0.0,0.0,0.0,0.0,0.0,0.0,0.0,0.0,0.0,0.0,0.0,0.0,0.0,0.0,0.0,0.0,0.0,0.0,0.0,0.0,0.0,0.0,0.0,0.0,0.0,0.0,0.0,0.0,0.0,0.0,-0.1097,-0.2874,-0.0898,0.0,-0.2866,-0.0807,0.0,0.0,0.0,0.0,0.0,0.0,0.0,-0.0089,-0.0438,-0.0608,-0.129,-0.5504,-0.6758,-0.6359,-0.4458,-0.386,-0.3441,-0.1178,-0.0589,-0.0505,-0.0084,-0.0253,-0.1178,-0.3442,-0.57,-0.7873,-1.0211,-1.2139,-1.3403,-1.3403,-1.3403,-1.3403,-1.3403,-1.3403,-1.3451,-1.3607,-1.3627,-1.3729,-1.4,-1.4007,-1.4007,-1.4027,-1.4143,-1.417,-1.4041,-1.4034,-1.4034,-1.4034,-1.4055,-1.4129,-1.4251,-1.4285,-1.4299,-1.4299,-1.4299,-1.4299,-1.4299,-1.4299,-1.4299,-1.4299,-1.4299,-1.4299,0.0,0.0,0.0,0.0,0.0,0.0,0.0,0.0,0.0,0.0,0.0,0.0,0.0,0.0,0.0,0.0,0.0,0.0,0.0,0.0,0.0,0.0,0.0,0.0,0.0,0.0,0.0,0.0,0.0,0.0,0.0,0.0,0.0,0.0,0.0,0.0,0.0,0.0,-0.0685,-0.1946,-0.1909,-0.1882,-0.1955,-0.1935,-0.1824,-0.1626,-0.054,0.0,-0.1614,-0.0449,0.0,0.0,0.0,0.0,0.0,0.0,0.0,0.0,0.0,0.0,-0.0348,-0.2587,-0.3244,-0.3044,-0.1936,-0.1597,-0.1346,-0.0337,0.0,0.0,0.0,0.0,-0.0589,-0.2855,-0.5951,-0.879,-0.9795,-1.1801,-1.3403,-1.3403,-1.3403,-1.3403,-1.3403,-1.3403,-1.3478,-1.3702,-1.3736,-1.3851,-1.415,-1.419,-1.419,-1.419,-1.4258,-1.4272,-1.4197,-1.419,-1.419,-1.419,-1.419,-1.4224,-1.4299,-1.4299,-1.4299,-1.4299,-1.4299,-1.4299,-1.4299,-1.4299,-1.4299,-1.4299,-1.4299,-1.4299,0.0,0.0,0.0,0.0,0.0,0.0,0.0,0.0,0.0,0.0,0.0,0.0,0.0,0.0,0.0,0.0,0.0,0.0,0.0,0.0,0.0,0.0,0.0,0.0,0.0,0.0,0.0,0.0,0.0,0.0,0.0,0.0,0.0,0.0,0.0,0.0,0.0,0.0,-0.098,-0.3026,-0.342,-0.3652,-0.3733,-0.3667,-0.2817,-0.1451,-0.045,0.0,0.0,-0.0179,0.0,0.0,0.0,0.0,0.0,0.0,0.0,0.0,0.0,0.0,0.0,0.0,0.0,0.0,0.0,0.0,0.0,0.0,0.0,0.0,0.0,0.0,-0.0589,-0.2771,-0.6035,-0.8874,-0.9795,-1.1469,-1.281,-1.3314,-1.3403,-1.3403,-1.3403,-1.3403,-1.3498,-1.3797,-1.3838,-1.3953,-1.4258,-1.4299,-1.4299,-1.4299,-1.4299,-1.4299,-1.4299,-1.4299,-1.4299,-1.4299,-1.4299,-1.4033,-1.3578,-1.3489,-1.3312,-1.2774,-1.2774,-1.2774,-1.2774,-1.2774,-1.2774,-1.2774,-1.2774,-1.2774,0.0,0.0,0.0,0.0,0.0,0.0,0.0,0.0,0.0,0.0,0.0,0.0,0.0,0.0,0.0,0.0,0.0,0.0,0.0,0.0,0.0,0.0,0.0,0.0,0.0,0.0,0.0,0.0,0.0,0.0,0.0,0.0,0.0,0.0,0.0,0.0,0.0,0.0,-0.0098,-0.0387,-0.2558,-0.3638,-0.3605,-0.3564,-0.4609,-0.6174,-0.1883,0.0,0.0,-0.0897,0.0,0.0,0.0,0.0,0.0,0.0,0.0,0.0,0.0,0.0,0.0,0.0,0.0,0.0,0.0,0.0,0.0,0.0,0.0,0.0,0.0,0.0,-0.0589,-0.2855,-0.3692,-0.5114,-0.9207,-1.0299,-1.0965,-1.2982,-1.3403,-1.3403,-1.3403,-1.3403,-1.3498,-1.3797,-1.3838,-1.3953,-1.4258,-1.4299,-1.4299,-1.4299,-1.4299,-1.4299,-1.4299,-1.4299,-1.4299,-1.4299,-1.4299,-1.3312,-1.1161,-1.1072,-1.0002,-0.7773,-0.777,-0.777,-0.777,-0.777,-0.777,-0.777,-0.777,-0.777,0.0,0.0,0.0,0.0,0.0,0.0,0.0,0.0,0.0,0.0,0.0,0.0,0.0,0.0,0.0,0.0,0.0,0.0,0.0,0.0,0.0,0.0,0.0,0.0,0.0,0.0,0.0,0.0,0.0,0.0,0.0,0.0,0.0,0.0,0.0,0.0,0.0,0.0,-0.0774,-0.2297,-0.3189,-0.4434,-0.5848,-0.4342,-0.4132,-0.4829,-0.1434,0.0,0.0,-0.0359,0.0,0.0,0.0,0.0,0.0,0.0,0.0,0.0,0.0,0.0,0.0,0.0,0.0,0.0,0.0,0.0,0.0,0.0,0.0,0.0,0.0,0.0,-0.0253,-0.1178,-0.2352,-0.386,-0.5616,-0.7121,-0.8707,-1.0965,-1.1386,-1.1801,-1.3148,-1.3403,-1.3471,-1.3682,-1.3783,-1.3919,-1.4136,-1.4245,-1.4299,-1.4299,-1.4299,-1.4299,-1.4299,-1.4299,-1.4299,-1.4299,-1.4299,-1.3224,-1.0806,-1.0717,-0.9553,-0.7149,-0.7057,-0.7057,-0.7057,-0.7057,-0.7057,-0.7057,-0.7057,-0.7057,0.0,0.0,0.0,0.0,0.0,0.0,0.0,0.0,0.0,0.0,0.0,0.0,0.0,0.0,0.0,0.0,0.0,0.0,0.0,0.0,0.0,0.0,0.0,0.0,0.0,0.0,0.0,0.0,0.0,0.0,0.0,0.0,0.0,0.0,0.0,0.0,0.0,0.0,-0.0865,-0.2653,-0.3259,-0.4864,-0.7258,-0.4765,-0.3938,-0.4474,0.0,0.0,0.0,0.0,0.0,0.0,0.0,0.0,0.0,0.0,0.0,0.0,0.0,0.0,0.0,0.0,0.0,0.0,0.0,0.0,0.0,0.0,0.0,0.0,0.0,0.0,0.0,0.0,-0.1178,-0.2519,-0.3191,-0.4612,-0.6617,-0.9545,-1.0044,-1.0715,-1.2982,-1.3403,-1.3451,-1.3607,-1.3749,-1.3899,-1.4055,-1.4204,-1.4299,-1.4299,-1.4299,-1.4299,-1.4299,-1.4299,-1.4299,-1.4299,-1.4299,-1.3224,-1.0806,-1.0002,-0.8486,-0.6076,-0.5365,-0.5008,-0.5008,-0.5008,-0.5008,-0.5008,-0.5008,-0.5008,0.0,0.0,0.0,0.0,0.0,0.0,0.0,0.0,0.0,0.0,0.0,0.0,0.0,0.0,0.0,0.0,0.0,0.0,0.0,0.0,0.0,0.0,0.0,0.0,0.0,0.0,0.0,0.0,0.0,0.0,0.0,0.0,0.0,0.0,0.0,0.0,0.0,0.0,0.0,-0.0094,-0.2415,-0.4864,-0.6987,-0.4675,-0.4829,0.0,0.0,0.0,0.0,0.0,0.0,0.0,0.0,0.0,0.0,0.0,0.0,0.0,0.0,0.0,0.0,0.0,0.0,0.0,0.0,0.0,0.0,0.0,0.0,0.0,0.0,0.0,0.0,0.0,0.0,-0.0673,-0.2855,-0.3358,-0.4695,-0.9124,-0.9961,-1.0715,-1.2982,-1.3403,-1.3451,-1.3607,-1.3749,-1.3899,-1.4055,-1.4204,-1.4299,-1.4299,-1.4299,-1.4299,-1.4299,-1.4299,-1.4299,-1.4299,-1.4299,-1.3224,-1.0806,-0.8397,-0.599,-0.3669,-0.1255,-0.009,-0.009,-0.009,-0.009,-0.009,-0.009,-0.009,0.0,0.0,0.0,0.0,0.0,0.0,0.0,0.0,0.0,0.0,0.0,0.0,0.0,0.0,0.0,0.0,0.0,0.0,0.0,0.0,0.0,0.0,0.0,0.0,0.0,0.0,0.0,0.0,0.0,0.0,0.0,0.0,0.0,0.0,0.0,0.0,0.0,0.0,0.0,0.0,-0.0734,-0.3273,-0.7004,-0.4657,0.0,0.0,0.0,0.0,0.0,-0.2418,-0.1524,0.0,0.0,0.0,0.0,0.0,0.0,0.0,0.0,0.0,0.0,0.0,0.0,0.0,0.0,0.0,0.0,0.0,0.0,0.0,0.0,0.0,0.0,0.0,0.0,-0.0168,-0.0925,-0.2268,-0.4279,-0.7205,-0.8957,-1.0715,-1.2982,-1.3403,-1.3417,-1.3464,-1.3682,-1.3858,-1.3905,-1.4136,-1.4299,-1.4299,-1.4299,-1.4299,-1.4299,-1.4299,-1.4299,-1.4299,-1.4299,-1.3224,-1.0806,-1.0002,-0.8397,-0.6079,-0.3669,-0.2418,-0.2419,-0.0807,0.0,0.0,0.0,0.0,0.0,0.0,0.0,0.0,0.0,0.0,0.0,0.0,0.0,0.0,0.0,0.0,0.0,0.0,0.0,0.0,0.0,0.0,0.0,0.0,0.0,0.0,0.0,0.0,0.0,0.0,0.0,0.0,0.0,0.0,0.0,0.0,0.0,0.0,0.0,0.0,0.0,0.0,0.0,0.0,-0.0911,-0.3346,-0.7057,-0.5544,0.0,0.0,0.0,0.0,0.0,-0.4897,-0.4012,-0.2685,-0.2586,-0.2678,-0.2683,-0.2643,-0.2635,-0.246,-0.1543,-0.1283,-0.1122,-0.0259,0.0,0.0,0.0,0.0,0.0,0.0,0.0,0.0,0.0,0.0,0.0,0.0,0.0,0.0,0.0,-0.1765,-0.4027,-0.6285,-0.8457,-1.0715,-1.2982,-1.3403,-1.3403,-1.3403,-1.3654,-1.3838,-1.3838,-1.4109,-1.4299,-1.4299,-1.4299,-1.4299,-1.4299,-1.4299,-1.4299,-1.4299,-1.4299,-1.3673,-1.2148,-1.1161,-1.0002,-0.8486,-0.6165,-0.4472,-0.358,-0.1166,0.0,0.0,0.0,0.0,0.0,0.0,0.0,0.0,0.0,0.0,0.0,0.0,0.0,0.0,0.0,0.0,0.0,0.0,0.0,0.0,0.0,0.0,0.0,0.0174,0.0,0.0,0.0367,0.0,0.0,0.0,0.0,0.0,0.0,0.0,0.0,0.0,0.0,0.0,0.0,0.0,0.0,0.0,0.0,0.0,-0.2273,-0.4695,-0.7057,-0.7057,-0.8486,0.0,0.0,0.0,0.0,-0.7244,-0.7166,-0.7037,-0.697,-0.6986,-0.7027,-0.6966,-0.6872,-0.655,-0.4324,-0.3465,-0.29,-0.0684,0.0,0.0,0.0,0.0,0.0,0.0,0.0,0.0,0.0,0.0,0.0,0.0,0.0,-0.0084,-0.0168,-0.2016,-0.4279,-0.6536,-0.8707,-1.0882,-1.3065,-1.3403,-1.3403,-1.3403,-1.3641,-1.3831,-1.3838,-1.4102,-1.4285,-1.4299,-1.4299,-1.4299,-1.4299,-1.4299,-1.4299,-1.4299,-1.4299,-1.4299,-1.4299,-1.2148,-1.0984,-1.0984,-0.8575,-0.6076,-0.358,-0.1345,-0.018,0.0,0.0,0.0,0.0,0.0,0.0,0.0,0.0,0.0,0.0,0.0,0.0,0.0,0.0,0.0,0.0,0.0,0.0,0.0,0.0,0.0,0.0,0.1595,0.0,0.5248,0.387,0.0,0.0,0.0,0.0,0.0,0.0,0.0,0.0,0.0,0.0,0.0,0.0,0.0,0.0,0.0,0.0,0.0,-0.054,-0.3052,-0.7057,-0.7057,-0.9468,0.0,0.0,0.0,-0.9707,-0.9763,-0.8653,-0.6809,-0.6845,-0.6835,-0.6795,-0.6788,-0.6764,-0.6679,-0.6068,-0.4789,-0.304,-0.0768,0.0,0.0,0.0,0.0,0.0,0.0,0.0,0.0,0.0,0.0,0.0,0.0,0.0,-0.0505,-0.2184,-0.4277,-0.6617,-0.879,-1.1048,-1.2727,-1.3314,-1.3403,-1.3403,-1.3403,-1.3559,-1.3715,-1.3824,-1.4007,-1.417,-1.4285,-1.4299,-1.4299,-1.4299,-1.4299,-1.4299,-1.4299,-1.4299,-1.4299,-1.4299,-1.3761,-1.3489,-1.3489,-1.1072,-0.7773,-0.358,-0.3045,-0.1793,0.0,0.0,0.0,0.0,0.0,0.0,0.0,0.0,0.0,0.0,0.0,0.0,0.0,0.0,0.0,0.0,0.0,0.0,0.0,0.0,0.0,0.0,0.0,0.2816,0.5248,0.3389,0.0,0.0,0.0,0.0,0.0,0.0,0.0,0.0,0.0,0.0,0.0,0.0,0.0,0.0,0.0,0.0,0.0,-0.1166,-0.3045,-0.5544,-0.7773,-1.018,0.0,0.0,0.0,-1.2132,-1.2138,-1.1275,-0.9951,-0.9956,-0.9956,-0.9936,-0.9913,-0.9874,-0.969,-0.8659,-0.6784,-0.47,-0.3465,-0.305,-0.2967,-0.305,-0.304,-0.2525,-0.0594,0.0,0.0,0.0,0.0,0.0,0.0,-0.0757,-0.1849,-0.3023,-0.5867,-0.854,-0.9795,-1.1807,-1.3403,-1.3403,-1.3403,-1.3403,-1.3403,-1.3532,-1.3654,-1.3736,-1.3871,-1.4027,-1.4177,-1.4129,-1.4143,-1.4285,-1.4238,-1.4224,-1.4292,-1.4299,-1.4299,-1.4299,-1.4299,-1.4299,-1.4299,-1.0806,-0.777,-0.5186,-0.3045,-0.1255,0.0,0.0,0.0,0.0,0.0,0.0,0.0,0.0,0.0,0.0,0.0,0.0,0.0,0.0,0.0,0.0,0.0,0.0,0.0,0.0,0.0,0.0967,0.0803,0.1534,0.4308,0.2264,0.0,0.0,0.0,0.0,0.0,0.0,0.0,0.0,0.0,0.0,0.0,0.0,0.0,0.0,0.0,-0.0179,-0.0538,-0.2597,-0.3938,-0.4829,-0.8842,-1.0895,-1.1344,0.0,0.0,-1.4027,-1.3919,-1.3838,-1.3763,-1.3668,-1.3688,-1.3763,-1.3641,-1.3593,-1.323,-1.0898,-0.8768,-0.71,-0.6753,-0.6539,-0.6502,-0.6663,-0.6556,-0.5696,-0.2006,-0.1008,-0.1009,-0.1009,-0.1009,-0.1009,-0.1009,-0.2436,-0.3944,-0.4279,-0.7285,-1.0128,-1.0466,-1.2056,-1.3403,-1.3403,-1.3403,-1.3403,-1.3403,-1.3512,-1.36,-1.3627,-1.3736,-1.3865,-1.4021,-1.3939,-1.398,-1.4245,-1.417,-1.4163,-1.4292,-1.4299,-1.4299,-1.4299,-1.4299,-1.4122,-1.3761,-0.9735,-0.7324,-0.6525,-0.2507,-0.0359,0.0,0.0,0.0,0.0,0.0,0.0,0.0,0.0,0.0,0.0,0.0,0.0,0.0,0.0,0.0,0.0,0.0,0.0,0.0,0.0,0.1389,0.0,0.0,0.4657,0.0,0.0,0.0,0.0,0.0,0.0,0.0,0.0,0.0,0.0,0.0,0.0,0.0,0.0,0.0,0.0,0.0,-0.0987,-0.3045,-0.3401,-0.5722,-0.9646,-1.0357,-1.1788,-1.3761,0.0,-1.4136,-1.3885,-1.3994,-1.381,-1.3478,-1.3587,-1.3559,-1.3464,-1.3444,-1.3437,-1.3078,-1.0683,-0.965,-0.898,-0.7018,-0.6337,-0.6344,-0.6499,-0.6516,-0.6345,-0.5696,-0.5574,-0.57,-0.57,-0.57,-0.57,-0.57,-0.5951,-0.67,-0.854,-0.9545,-1.0632,-1.2478,-1.3148,-1.3403,-1.3403,-1.3403,-1.3403,-1.3403,-1.3417,-1.3485,-1.3614,-1.3648,-1.3715,-1.3858,-1.3973,-1.4055,-1.4102,-1.4204,-1.4278,-1.4299,-1.4299,-1.4299,-1.4299,-1.4299,-1.3312,-1.1255,-1.0535,-0.8129,-0.4116,-0.3403,-0.1971,0.0,0.0,0.0,0.0,0.0,0.0,0.0,0.0,0.0,0.0,0.0,0.0,0.0,0.0,0.0,0.0,0.0,0.0,0.0,0.0,0.0792,0.2926,0.2321,0.0,0.0,0.0,0.0,0.0,0.0,0.0,0.0,0.0,0.0,0.0,0.0,0.0,0.0,0.0,0.0,0.0,0.0,-0.1241,-0.358,-0.3559,-0.5423,-0.8842,-1.0091,-1.1306,-1.2308,0.0,-1.4007,-1.3729,-1.3804,-1.3661,-1.341,-1.3478,-1.3464,-1.3403,-1.3403,-1.3349,-1.3104,-1.2037,-1.1556,-1.1328,-1.0292,-0.9949,-0.9975,-1.0085,-1.0122,-1.0132,-1.02,-0.8505,-0.6683,-0.6516,-0.6556,-0.669,-0.6649,-0.7588,-0.879,-0.9795,-1.0965,-1.2139,-1.3231,-1.3403,-1.3403,-1.3403,-1.3403,-1.3403,-1.3403,-1.3403,-1.3424,-1.3498,-1.3505,-1.3559,-1.3709,-1.3715,-1.377,-1.3933,-1.4007,-1.4122,-1.4292,-1.4299,-1.4299,-1.4299,-1.4299,-1.3135,-1.0717,-0.938,-0.706,-0.358,-0.233,-0.1076,0.0,0.0,0.0,0.0,0.0,0.0,0.0,0.0,0.0,0.0,0.0,0.0,0.0,0.0,0.0,0.0,0.0,0.0,0.0,0.0,0.0177,0.0798,0.0,0.0,0.0,0.0,0.0,0.0,0.0,0.0,0.0,0.0,0.0,0.0,0.0,0.0,0.0,0.0,0.0,0.0,-0.0518,-0.2003,-0.4351,-0.4402,-0.5904,-0.8808,-1.0558,-1.1401,-1.1423,-1.3239,-1.3871,-1.3627,-1.3627,-1.3539,-1.3403,-1.3403,-1.3376,-1.3349,-1.3349,-1.3254,-1.3119,-1.3085,-1.2996,-1.2901,-1.2868,-1.2854,-1.2888,-1.3071,-1.3098,-1.3098,-1.3254,-1.0799,-0.8115,-0.799,-0.8048,-0.8123,-0.8052,-0.9409,-1.0804,-1.0749,-1.209,-1.3356,-1.3397,-1.3403,-1.3403,-1.3403,-1.3403,-1.3403,-1.3403,-1.3403,-1.3403,-1.3403,-1.3403,-1.3444,-1.3559,-1.3505,-1.3308,-1.3041,-1.3006,-1.2941,-1.2626,-1.3653,-1.4033,-1.3489,-1.4033,-1.2863,-0.9913,-0.804,-0.5633,-0.2776,-0.0897,0.0,0.0,0.0,0.0,0.0,0.0,0.0,0.0,0.0,0.0,0.0,0.0,0.0,0.0,0.0,0.0,0.0,0.0,0.0,0.0,0.0,0.0806,0.0,0.0,0.0,0.0,0.0,0.0,0.0,0.0,0.0,0.0,0.0,0.0,0.0,0.0,0.0,0.0,0.0,0.0,0.0,-0.2116,-0.4335,-0.6676,-0.6672,-0.9056,-1.3639,-1.3588,-1.3681,-1.38,-1.3833,-1.377,-1.3627,-1.3627,-1.3539,-1.3403,-1.3403,-1.3315,-1.3186,-1.3186,-1.3098,-1.2956,-1.2813,-1.2752,-1.2725,-1.2583,-1.2535,-1.2589,-1.2888,-1.2874,-1.2793,-1.2949,-1.2829,-1.2607,-1.2713,-1.2667,-1.2501,-1.2568,-1.2661,-1.2782,-1.2915,-1.3105,-1.3227,-1.337,-1.3403,-1.3403,-1.3403,-1.3403,-1.3403,-1.3403,-1.3403,-1.3403,-1.3403,-1.3403,-1.3403,-1.3417,-1.3532,-1.2815,-1.0886,-1.0733,-0.9835,-0.7746,-1.1814,-1.3312,-1.1072,-1.3135,-1.2148,-0.7413,-0.7146,-0.4829,-0.0269,-0.009,0.0,0.0,0.0,0.0,0.0,0.0,0.0,0.0,0.0,0.0,0.0,0.0,0.0,0.0,0.0,0.0,0.0,0.0,0.0,0.0,0.0,0.0352,0.0,0.0,0.0,0.0,0.0,0.0,0.0,0.0,0.0,0.0,0.0,0.0,0.0,0.0,0.0,0.0,0.0,0.0,0.0,-0.2242,-0.45,-0.6797,-0.834,-1.0763,-1.3926,-1.3865,-1.3824,-1.3797,-1.3736,-1.3627,-1.3485,-1.3485,-1.3451,-1.3403,-1.3403,-1.3308,-1.3173,-1.3173,-1.3024,-1.2807,-1.2752,-1.2671,-1.2576,-1.2522,-1.2569,-1.2664,-1.2779,-1.284,-1.2888,-1.2942,-1.2895,-1.2807,-1.2766,-1.2861,-1.2935,-1.284,-1.2895,-1.2976,-1.303,-1.3044,-1.3057,-1.3119,-1.32,-1.3261,-1.3261,-1.3336,-1.3403,-1.3403,-1.2222,-1.1303,-1.1303,-1.0044,-0.9207,-0.9207,-0.9244,-0.9052,-0.8296,-0.8248,-0.7346,-0.5051,-0.9378,-1.161,-1.0717,-1.3046,-1.2774,-0.9375,-0.9375,-0.6968,-0.224,-0.224,-0.1434,0.0,-0.1524,-0.224,0.0,0.0,0.0,0.0,0.0,0.0,0.0,0.0,0.0,0.0,0.0,0.0,0.0,0.0,0.0,0.0,0.0,0.0,0.0,0.0,0.0,0.0,0.0,0.0,0.0,0.0,0.0,0.0,0.0,0.0,0.0,-0.065,-0.065,0.0,-0.065,-0.0976,-0.0976,-0.3188,-0.5409,-0.7619,-0.9983,-1.2101,-1.377,-1.3722,-1.3675,-1.3627,-1.358,-1.3498,-1.3403,-1.3403,-1.3403,-1.3397,-1.3349,-1.3234,-1.3098,-1.3051,-1.2874,-1.2657,-1.2657,-1.2589,-1.2501,-1.2501,-1.2569,-1.2664,-1.2718,-1.2773,-1.2827,-1.2874,-1.2779,-1.263,-1.2528,-1.2657,-1.2793,-1.2684,-1.2739,-1.2827,-1.2881,-1.2888,-1.2901,-1.2949,-1.3078,-1.3159,-1.3112,-1.3268,-1.3383,-1.3336,-1.2026,-1.1048,-1.1048,-0.9124,-0.7539,-0.6784,-0.67,-0.6469,-0.5842,-0.5778,-0.4874,-0.2588,-0.6943,-0.9596,-0.9596,-1.2573,-1.3135,-1.0717,-1.0717,-0.8753,-0.474,-0.474,-0.3848,-0.224,-0.3938,-0.474,0.0,0.0,0.0,0.0,0.0,0.0,0.0,0.0,0.0,0.0,0.0,0.0,0.0,0.0,0.0,0.0,0.0,0.0,0.0,0.0,0.0,0.0,0.0,0.0,0.0,0.0,0.0,0.0,0.0,0.0,0.0,-0.2029,-0.2191,-0.0081,-0.2029,-0.3161,-0.308,-0.5342,-0.7524,-0.9632,-1.19,-1.3193,-1.3614,-1.3464,-1.3485,-1.3614,-1.3464,-1.3403,-1.3403,-1.3397,-1.3397,-1.3383,-1.3227,-1.3085,-1.2942,-1.2786,-1.263,-1.2501,-1.2501,-1.2501,-1.2501,-1.2501,-1.2501,-1.2528,-1.2684,-1.2623,-1.2535,-1.2684,-1.2617,-1.2501,-1.2501,-1.2501,-1.2501,-1.2501,-1.2501,-1.2542,-1.2698,-1.2725,-1.2773,-1.2929,-1.3071,-1.3125,-1.2983,-1.32,-1.3342,-1.3193,-1.3295,-1.3314,-1.3314,-1.1386,-0.9124,-0.6867,-0.662,-0.5784,-0.3524,-0.3392,-0.2392,-0.0171,-0.4437,-0.7121,-0.7121,-1.172,-1.3224,-1.0806,-1.0717,-0.9557,-0.7146,-0.7146,-0.7146,-0.7057,-0.7146,-0.7146,0.0,0.0,0.0,0.0,0.0,0.0,0.0,0.0,0.0,0.0,0.0,0.0,0.0,0.0,0.0,0.0,0.0,0.0,0.0,0.0,0.0,0.0,0.0,0.0,0.0,0.0,0.0,0.0,0.0,0.0,0.0,-0.4981,-0.4349,-0.2216,-0.427,-0.4665,-0.3085,-0.685,-0.8955,-0.9596,-1.1936,-1.303,-1.3159,-1.3214,-1.3268,-1.3308,-1.3376,-1.3403,-1.339,-1.3288,-1.3302,-1.3376,-1.3125,-1.3077,-1.2942,-1.2786,-1.263,-1.2501,-1.2501,-1.2501,-1.2501,-1.2501,-1.2501,-1.2508,-1.2556,-1.2535,-1.2508,-1.2556,-1.2535,-1.2501,-1.2501,-1.2501,-1.2501,-1.2501,-1.2501,-1.2515,-1.2562,-1.2569,-1.2583,-1.263,-1.2759,-1.2847,-1.2807,-1.2963,-1.3078,-1.303,-1.1751,-0.9596,-0.6532,-0.4341,-0.2771,-0.21,-0.2016,-0.1681,-0.1093,-0.1012,-0.1436,-0.2364,-0.5293,-0.7008,-0.7118,-1.172,-1.3938,-1.3224,-1.3224,-1.2059,-0.9646,-0.9646,-0.8753,-0.7146,-0.8842,-0.9646,0.0,0.0,0.0,0.0,0.0,0.0,0.0,0.0,0.0,0.0,0.0,0.0,0.0,0.0,0.0,0.0,0.0,0.0,0.0,0.0,0.0,0.0,0.0,0.0,0.0,0.0,0.0,0.0,0.0,0.0,0.0,-0.7111,-0.6566,-0.4459,-0.641,-0.6878,-0.5627,-0.8185,-0.9949,-1.0739,-1.2174,-1.2779,-1.2786,-1.2996,-1.3085,-1.3098,-1.3247,-1.3308,-1.3302,-1.3214,-1.3193,-1.32,-1.2963,-1.2868,-1.2854,-1.2698,-1.2583,-1.2501,-1.2501,-1.2467,-1.242,-1.242,-1.242,-1.242,-1.242,-1.242,-1.242,-1.242,-1.2372,-1.2325,-1.2325,-1.2372,-1.2433,-1.2488,-1.2501,-1.2501,-1.2501,-1.2501,-1.2501,-1.2501,-1.2623,-1.2712,-1.2651,-1.282,-1.2942,-1.2881,-1.1789,-0.9102,-0.3872,-0.2823,-0.1924,-0.0168,0.0,0.0,0.0,-0.0842,-0.1933,-0.3274,-0.6434,-0.8305,-0.833,-1.215,-1.4238,-1.4299,-1.4299,-1.3584,-1.2148,-1.2148,-1.1344,-1.0002,-1.1433,-1.2148,0.0,0.0,0.0,0.0,0.0,0.0,0.0,0.0,0.0,0.0,0.0,0.0,0.0,0.0,0.0,0.0,0.0,0.0,0.0,0.0,0.0,0.0,0.0,0.0,0.0,0.0,0.0,0.0,0.0,0.0,0.0,-0.8644,-0.8721,-0.6626,-0.8566,-0.9578,-0.9346,-0.9578,-1.0589,-1.2461,-1.2461,-1.2467,-1.2494,-1.28,-1.2949,-1.305,-1.3098,-1.3152,-1.3152,-1.3139,-1.3064,-1.2942,-1.2773,-1.2718,-1.2712,-1.2556,-1.2501,-1.2501,-1.2501,-1.2406,-1.2291,-1.2291,-1.2284,-1.2271,-1.2271,-1.2271,-1.2271,-1.2271,-1.2169,-1.2135,-1.2135,-1.2176,-1.2325,-1.2454,-1.2494,-1.2501,-1.2501,-1.2501,-1.2501,-1.2501,-1.2617,-1.2664,-1.2528,-1.2732,-1.2788,-1.2489,-1.2198,-1.0061,-0.4356,-0.5105,-0.4716,-0.0755,-0.0505,-0.0505,-0.0336,-0.2351,-0.3692,-0.4027,-0.7949,-1.0377,-1.0556,-1.2853,-1.4122,-1.4278,-1.4278,-1.4285,-1.4299,-1.4299,-1.4299,-1.4299,-1.4033,-1.3938,0.0,0.0,0.0,0.0,0.0,0.0,0.0,0.0,0.0,0.0,0.0,0.0,0.0,0.0,0.0,0.0,0.0,0.0,0.0,0.0,0.0,0.0,0.0,0.0,0.0,0.0,0.0,0.0,0.0,0.0,-1.0863,-1.1246,-1.0555,-0.8431,-1.0405,-1.0712,-0.9041,-1.0706,-1.1773,0.0,-1.2155,-1.2223,-1.2345,-1.2644,-1.2847,-1.2963,-1.299,-1.301,-1.2996,-1.2874,-1.2881,-1.2935,-1.2657,-1.2623,-1.2712,-1.2556,-1.2501,-1.2501,-1.2501,-1.2406,-1.2291,-1.2291,-1.221,-1.2108,-1.2108,-1.2108,-1.2108,-1.2108,-1.2088,-1.2135,-1.2135,-1.2176,-1.2298,-1.2332,-1.242,-1.2501,-1.2501,-1.2501,-1.2501,-1.2501,-1.2528,-1.2542,-1.2508,-1.2556,-1.2037,-1.0353,-0.7287,-0.5374,-0.5761,-0.4754,-0.3634,-0.2734,-0.4255,-0.4595,-0.282,-0.4672,-0.6703,-0.854,-0.9564,-1.0881,-1.2771,-1.3541,-1.396,-1.4116,-1.4122,-1.4183,-1.4299,-1.4299,-1.4299,-1.421,-1.2325,-1.1433,0.0,0.0,0.0,0.0,0.0,0.0,0.0,0.0,0.0,0.0,0.0,0.0,0.0,0.0,0.0,0.0,0.0,0.0,0.0,0.0,0.0,0.0,0.0,0.0,0.0,0.0,0.0,0.0,0.0,-1.2135,-1.2135,-1.2135,-1.1606,-1.0473,-1.1531,-1.1531,-1.0473,-1.1531,-1.2135,-1.2135,-1.2135,-1.2101,-1.2189,-1.2488,-1.2705,-1.2854,-1.2854,-1.2854,-1.284,-1.2766,-1.2732,-1.2725,-1.2562,-1.2549,-1.261,-1.2528,-1.2461,-1.24,-1.24,-1.2257,-1.2074,-1.2074,-1.202,-1.1952,-1.1952,-1.1952,-1.1952,-1.1952,-1.1904,-1.185,-1.185,-1.1959,-1.2088,-1.2162,-1.2345,-1.2501,-1.2501,-1.2501,-1.2501,-1.2501,-1.2501,-1.2501,-1.2501,-1.2501,-1.1482,-0.8361,-0.6915,-0.5783,-0.4971,-0.4869,-0.4824,-0.4824,-0.5973,-0.617,-0.4951,-0.6991,-0.879,-0.9961,-1.1048,-1.1671,-1.1903,-1.1969,-1.21,-1.2385,-1.1308,-1.075,-1.0812,-1.0869,-1.0806,-1.0806,-0.9553,-0.9019,0.0,0.0,0.0,0.0,0.0,0.0,0.0,0.0,0.0,0.0,0.0,0.0,0.0,0.0,0.0,0.0,0.0,0.0,0.0,0.0,0.0,0.0,0.0,0.0,0.0,0.0,0.0,0.0,0.0,-1.1986,-1.1986,-1.1986,-1.1986,-1.1986,-1.1986,-1.1986,-1.1986,-1.1986,-1.1986,-1.1986,-1.2013,-1.202,-1.2033,-1.2305,-1.2494,-1.2617,-1.2617,-1.2617,-1.2617,-1.2617,-1.2542,-1.2427,-1.2454,-1.2467,-1.2467,-1.2494,-1.2413,-1.2291,-1.2291,-1.2088,-1.183,-1.183,-1.1816,-1.1796,-1.1796,-1.1796,-1.1796,-1.1796,-1.1708,-1.1619,-1.1619,-1.1728,-1.1864,-1.1993,-1.225,-1.2474,-1.2494,-1.2501,-1.2501,-1.2501,-1.2501,-1.2501,-1.2501,-1.2185,-1.0701,-0.6878,-0.7423,-0.706,-0.3578,-0.5145,-0.6469,-0.6374,-0.7248,-0.7639,-0.7047,-0.9196,-1.0517,-1.0517,-1.1961,-1.1973,-1.0044,-0.9295,-0.9034,-0.9284,-0.7838,-0.7108,-0.7121,-0.7109,-0.7057,-0.7057,-0.6704,-0.6522,0.0,0.0,0.0,0.0,0.0,0.0,0.0,0.0,0.0,0.0,0.0,0.0,0.0,0.0,0.0,0.0,0.0,0.0,0.0,0.0,0.0,0.0,0.0,0.0,0.0,0.0,0.0,0.0,-1.1681,-1.1681,-1.1681,-1.1681,-1.1681,-1.1681,-1.1681,-1.1681,-1.1681,-1.1681,-1.1681,-1.1681,-1.1803,-1.1864,-1.187,-1.204,-1.2135,-1.2149,-1.2149,-1.2149,-1.2149,-1.2149,-1.2142,-1.2135,-1.2271,-1.2318,-1.2332,-1.2454,-1.2413,-1.2291,-1.2291,-1.2088,-1.183,-1.183,-1.1748,-1.1647,-1.1647,-1.1647,-1.1647,-1.1647,-1.1633,-1.1619,-1.1619,-1.1728,-1.1837,-1.1857,-1.2094,-1.2352,-1.2474,-1.2501,-1.2501,-1.2501,-1.2501,-1.2501,-1.2501,-1.1011,-0.8983,-0.6648,-0.4927,-0.3772,-0.3421,-0.5308,-0.6612,-0.6463,-1.0007,-1.1451,-0.9367,-1.1409,-1.2785,-1.2785,-1.1322,-1.0294,-1.0044,-0.6366,-0.4283,-0.4296,-0.601,-0.6969,-0.7121,-0.7109,-0.7057,-0.7057,-0.5008,-0.4027,0.0,0.0,0.0,0.0,0.0,0.0,0.0,0.0,0.0,0.0,0.0,0.0,0.0,0.0,0.0,0.0,0.0,0.0,0.0,0.0,0.0,0.0,0.0,0.0,0.0,0.0,0.0,0.0,-1.1538,-1.1491,-1.1491,-1.1491,-1.1491,-1.1491,-1.1572,-1.1619,-1.1619,-1.1538,-1.1491,-1.1491,-1.1552,-1.1633,-1.1714,-1.1782,-1.1904,-1.2135,-1.2135,-1.2135,-1.2135,-1.2135,-1.2135,-1.2142,-1.2135,-1.2162,-1.2169,-1.223,-1.2162,-1.2033,-1.2033,-1.1891,-1.1714,-1.1714,-1.1674,-1.1619,-1.1619,-1.1619,-1.1619,-1.1619,-1.1619,-1.1619,-1.1619,-1.1667,-1.1735,-1.1809,-1.1932,-1.2074,-1.2223,-1.2325,-1.2359,-1.2271,-1.2257,-1.2284,-1.2366,-1.1606,-0.9927,-0.6796,-0.5474,-0.4466,-0.339,-0.4143,-0.5192,-0.6312,-0.8282,-0.9069,-0.7961,-0.888,-0.9536,-0.9536,-0.8652,-0.7631,-0.639,-0.4431,-0.2771,-0.1513,-0.2473,-0.3024,-0.3144,-0.3089,-0.3115,-0.3134,-0.2061,-0.1614,0.0,0.0,0.0,0.0,0.0,0.0,0.0,0.0,0.0,0.0,0.0,0.0,0.0,0.0,0.0,0.0,0.0,0.0,0.0,0.0,0.0,0.0,0.0,0.0,0.0,0.0,0.0,0.0,-1.1396,-1.1335,-1.1335,-1.1335,-1.1348,-1.1389,-1.1463,-1.1525,-1.1558,-1.1409,-1.1335,-1.1335,-1.1335,-1.1396,-1.1504,-1.1504,-1.1626,-1.191,-1.1918,-1.1952,-1.1952,-1.1952,-1.1952,-1.1952,-1.1986,-1.2006,-1.2006,-1.2047,-1.1965,-1.183,-1.183,-1.1735,-1.1619,-1.1619,-1.1619,-1.1619,-1.1619,-1.1619,-1.1619,-1.1619,-1.1619,-1.1619,-1.1619,-1.1619,-1.1647,-1.1748,-1.1803,-1.187,-1.2026,-1.2149,-1.2196,-1.2088,-1.2135,-1.2108,-1.2264,-1.2291,-1.0944,-0.6866,-0.6332,-0.5318,-0.2662,-0.2927,-0.3886,-0.5324,-0.6211,-0.6578,-0.6501,-0.6564,-0.6689,-0.6689,-0.6113,-0.5095,-0.3465,-0.283,-0.176,0.0,0.0,0.0,0.0,0.0,0.0,0.0,0.0627,0.0628,0.0,0.0,0.0,0.0,0.0,0.0,0.0,0.0,0.0,0.0,0.0,0.0,0.0,0.0,0.0,0.0,0.0,0.0,0.0,0.0,0.0,0.0,0.0,0.0,0.0,0.0,0.0,0.0,-1.1179,-1.1241,-1.1241,-1.1241,-1.124,-1.1389,-1.126,-1.1253,-1.1402,-1.1253,-1.1241,-1.1241,-1.1241,-1.1179,-1.1185,-1.1185,-1.1261,-1.1226,-1.1518,-1.164,-1.164,-1.164,-1.164,-1.1653,-1.1789,-1.1843,-1.1864,-1.2006,-1.1965,-1.183,-1.183,-1.1735,-1.1619,-1.1619,-1.1619,-1.1619,-1.1619,-1.1619,-1.1619,-1.1619,-1.1619,-1.1619,-1.1619,-1.1619,-1.1619,-1.1626,-1.1735,-1.187,-1.2026,-1.2142,-1.2149,-1.206,-1.2135,-1.2108,-1.2264,-1.2291,-1.0944,-0.6866,-0.6332,-0.4852,-0.0706,-0.2059,-0.3331,-0.329,-0.5218,-0.6418,-0.6346,-0.6404,-0.6525,-0.6525,-0.4592,-0.3426,-0.3383,-0.1324,-0.0083,0.0,0.0,0.0,0.0,0.0,0.0,0.0088,0.2318,0.215,0.0224,0.0,0.0,0.0,0.0,0.0,0.0,0.0,0.0,0.0,0.0,0.0,0.0,0.0,0.0,0.0,0.0,0.0,0.0,0.0,0.0,0.0,0.0,0.0,0.0,0.0,0.0,0.0,0.0,-1.1023,-1.1023,-1.1023,-1.105,-1.1104,-1.1145,-1.1145,-1.1111,-1.1056,-1.1023,-1.1023,-1.1023,-1.1077,-1.1234,-1.1234,-1.1234,-1.1234,-1.128,-1.1382,-1.147,-1.147,-1.1531,-1.1626,-1.1674,-1.1694,-1.1701,-1.1755,-1.1742,-1.1694,-1.1694,-1.166,-1.1619,-1.1619,-1.1619,-1.1619,-1.1619,-1.1619,-1.1619,-1.1619,-1.1619,-1.1619,-1.1619,-1.1619,-1.1619,-1.1619,-1.166,-1.1708,-1.1769,-1.185,-1.1884,-1.1796,-1.1775,-1.1857,-1.2101,-1.2142,-1.1308,-0.8648,-0.8283,-0.7267,-0.4383,-0.4789,-0.5265,-0.5165,-0.5886,-0.6363,-0.6336,-0.5103,-0.4328,-0.4328,-0.2312,-0.1212,-0.1226,-0.0412,0.0,0.0,0.0,0.0,0.0,0.0,0.0,0.0,0.0877,0.0791,0.0919,0.0672,0.0584,0.0124,0.0,0.0,0.0,0.0,0.0,0.0,0.0,0.0,0.0,0.0,0.0,0.0,0.0,0.0,0.0,0.0,0.0,0.0,0.0,0.0,0.0,0.0,0.0,0.0,0.0,0.0,-1.0806,-1.0806,-1.0806,-1.0806,-1.1016,-1.1023,-1.0806,-1.0806,-1.0806,-1.0806,-1.0806,-1.0921,-1.1016,-1.1016,-1.1016,-1.1016,-1.1016,-1.1158,-1.1389,-1.1389,-1.1484,-1.1619,-1.1619,-1.1619,-1.1619,-1.1619,-1.1619,-1.1619,-1.1619,-1.1619,-1.1619,-1.1619,-1.1619,-1.1619,-1.1619,-1.1619,-1.1619,-1.1619,-1.1619,-1.1619,-1.1619,-1.1619,-1.1476,-1.0815,-1.1109,-1.1397,-1.0743,-1.1181,-1.1735,-1.164,-1.1619,-1.1714,-1.2013,-1.2135,-1.1478,-0.965,-0.9376,-0.8672,-0.6566,-0.6332,-0.6332,-0.6332,-0.6332,-0.6332,-0.6332,-0.5006,-0.4146,-0.4146,-0.221,-0.1037,-0.105,-0.0407,0.0,0.0,0.0,0.0,0.0,0.0,0.0,0.0,0.0867,0.0781,0.0,0.0,0.0,0.0418,0.0061,0.0063,0.0066,0.0,0.0065,0.0067,0.0067,0.0,0.0,0.0,0.0,0.0,0.0,0.0,0.0,0.0,0.0,0.0,0.0,0.0,0.0,0.0,0.0,0.0,-1.0717,-1.0717,-1.0717,-1.0717,-1.0717,-1.0717,-1.0799,-1.0806,-1.0724,-1.0717,-1.0717,-1.0717,-1.0717,-1.0717,-1.0717,-1.0717,-1.0717,-1.0717,-1.0724,-1.0975,-1.1382,-1.1382,-1.1477,-1.1613,-1.1619,-1.1619,-1.1619,-1.1619,-1.1619,-1.1619,-1.1619,-1.1619,-1.1619,-1.1619,-1.1619,-1.1619,-1.1619,-1.1619,-1.1619,-1.1619,-1.1619,-1.1619,-1.1619,-1.1548,-1.1038,-0.9141,-1.0089,-1.0959,-0.9064,-1.0161,-1.1548,-1.1619,-1.1619,-1.1714,-1.2006,-1.2054,-1.1472,-0.9722,-0.9449,-0.8745,-0.6722,-0.6488,-0.6488,-0.6488,-0.6488,-0.6488,-0.6488,-0.6414,-0.641,-0.641,-0.4381,-0.3147,-0.3105,-0.1198,-0.008,0.0,0.0,0.0,0.0,0.0,0.0,0.0086,0.2329,0.2248,0.3446,0.0,0.0,0.0,0.0,0.0,0.0,0.0,0.1641,0.1771,0.0,0.0,0.0,0.0,0.0,0.0,0.0,0.0,0.0,0.0,0.0,0.0,0.0,0.0,0.0,0.0,0.0,0.0,-1.0717,-1.0717,-1.0717,-1.0717,-1.0717,-1.0717,-1.0758,-1.0765,-1.0717,-1.0717,-1.0717,-1.0717,-1.0717,-1.0717,-1.0717,-1.0717,-1.0717,-1.0724,-1.0772,-1.1016,-1.1226,-1.1226,-1.1314,-1.1463,-1.1572,-1.1619,-1.1619,-1.1619,-1.1619,-1.1619,-1.1619,-1.1619,-1.1619,-1.1619,-1.1619,-1.1619,-1.1619,-1.1619,-1.1619,-1.1619,-1.1619,-1.1619,-1.1619,-1.0593,-0.9357,-0.8848,-0.8054,-0.7621,-0.8487,-0.9136,-0.9939,-1.1325,-1.1619,-1.1681,-1.1864,-1.1898,-1.177,-1.153,-1.1498,-1.1299,-1.0845,-1.0779,-1.0779,-1.0779,-1.0779,-1.0779,-1.0779,-0.9376,-0.8517,-0.8517,-0.6566,-0.4719,-0.3186,-0.2551,-0.1525,0.0,0.0,0.0,0.0,0.0,0.0,0.0,-0.0931,-0.1785,0.4065,0.4549,0.4767,0.0,0.0,0.0,0.0,0.3321,0.0,0.0,0.0,0.0,0.0,0.0,0.0,0.0,0.0,0.0,0.0,0.0,0.0,0.0,0.0,0.0,0.0,-1.0758,-1.0717,-1.0717,-1.0717,-1.1049,-1.1762,-1.1762,-1.1762,-1.1762,-1.1115,-1.0717,-1.0717,-1.0717,-1.0717,-1.0717,-1.0717,-1.0717,-1.0717,-1.0717,-1.0717,-1.0731,-1.0813,-1.0995,-1.1084,-1.1206,-1.1348,-1.1497,-1.1586,-1.1619,-1.1619,-1.1619,-1.1619,-1.1619,-1.1619,-1.1619,-1.1619,-1.1619,-1.1619,-1.1619,-1.1619,-1.1619,-1.1619,-1.1619,-1.1619,-1.1619,-1.1619,-1.0743,-0.9723,-0.892,-0.8487,-0.8343,-0.8631,-0.9357,-1.0233,-1.1404,-1.1619,-1.1667,-1.1809,-1.183,-1.2132,-1.3192,-1.3514,-1.3884,-1.4738,-1.4144,-1.3716,-1.3791,-1.2979,-1.244,-1.2494,-1.1405,-1.0701,-1.0701,-0.875,-0.7056,-0.5764,-0.4031,-0.2541,-0.1281,-0.0403,0.0,0.0,0.0,0.0,0.0,-0.1346,-0.2949,0.4556,0.5618,0.6304,0.0,0.0,0.0,0.4902,0.4936,0.4958,0.0,0.0,0.0,0.0,0.0,0.0,0.0,0.0,0.0,0.0,0.0,0.0,0.0,0.0,0.0,-1.088,-1.0812,-1.0724,-1.0744,-1.0744,-1.1453,-1.3193,-1.3128,-1.3128,-1.3325,-1.1637,-1.0717,-1.0717,-1.0717,-1.0717,-1.0717,-1.0717,-1.0717,-1.0717,-1.0518,-1.0386,-1.0392,-1.0354,-1.0283,-1.0308,-1.0658,-1.1057,-1.1599,-1.1613,-1.1619,-1.1619,-1.1619,-1.1619,-1.1619,-1.1619,-1.1619,-1.1619,-1.1619,-1.1619,-1.1619,-1.1619,-1.1619,-1.1619,-1.1619,-1.1619,-1.1619,-1.1619,-1.1476,-1.0815,-0.9136,-0.9867,-1.0527,-0.8992,-1.0083,-1.1325,-1.1548,-1.1619,-1.166,-1.1782,-1.1949,-1.2721,-1.4637,-1.524,-1.6163,-1.7827,-1.6563,-1.552,-1.5489,-1.3718,-1.2574,-1.2488,-1.2501,-1.2501,-1.2501,-1.0779,-0.9609,-0.9376,-0.5783,-0.3677,-0.3443,-0.1663,-0.0722,-0.0731,-0.0247,0.0,0.0,-0.0505,-0.2855,0.7037,0.804,0.8011,0.6488,0.0,0.0,0.6464,0.6493,0.6121,0.0,0.0,0.0,0.0,0.0,0.0,0.0,0.0,0.0,0.0,0.0,0.0,0.0,0.0,0.0,-1.088,-1.0812,-1.0772,-1.0826,-1.084,-1.1576,-1.3202,-1.196,-1.1828,-1.3259,-1.1637,-1.0717,-1.0717,-1.0717,-1.0717,-1.0717,-1.0717,-1.0717,-1.0651,-0.9172,-0.8501,-0.8446,-0.7219,-0.6603,-0.6615,-0.6797,-0.8709,-1.145,-1.1572,-1.1619,-1.1619,-1.1619,-1.1619,-1.1619,-1.1619,-1.1619,-1.1619,-1.1619,-1.1619,-1.1619,-1.1619,-1.1619,-1.1619,-1.1619,-1.1619,-1.1619,-1.1619,-1.0449,-0.9141,-0.8776,-0.7761,-0.7259,-0.8415,-0.8992,-0.9723,-1.1325,-1.1619,-1.1626,-1.1653,-1.2862,-1.4121,-1.4672,-1.6094,-1.7257,-1.7736,-1.7463,-1.673,-1.5294,-1.4767,-1.3991,-1.2642,-1.2501,-1.2501,-1.2501,-1.2108,-1.1172,-0.9454,-0.8594,-0.7423,-0.5708,-0.5254,-0.5055,-0.5035,-0.1636,0.0,-0.0083,-0.3677,-0.5867,0.7248,0.8164,0.862,0.8017,0.0,0.0,0.0,0.8109,0.7847,0.7272,0.5806,0.0,0.0,0.0,0.0,0.0,0.0,0.0,0.0,0.0,0.0,0.0,0.0,0.0,-1.088,-1.0812,-1.0751,-1.0826,-1.1621,-1.2441,-1.3267,-1.2479,-1.2413,-1.3259,-1.1637,-1.0717,-1.0717,-1.0717,-1.0717,-1.0717,-0.9775,-0.9371,-0.9305,-0.7498,-0.6698,-0.664,-0.5931,-0.5583,-0.5594,-0.5747,-0.6941,-0.8698,-0.9772,-1.0155,-1.0155,-1.0155,-0.9507,-0.8709,-0.8709,-0.8709,-0.8709,-0.8709,-0.8709,-0.8709,-0.8709,-0.9363,-1.0389,-1.1411,-1.1674,-1.1619,-1.1619,-1.0887,-1.0155,-1.0155,-0.9435,-0.8925,-0.9939,-1.0155,-1.0449,-1.1397,-1.1619,-1.1619,-1.1619,-1.2395,-1.334,-1.4424,-1.6296,-1.798,-1.8957,-1.9221,-1.8581,-1.6805,-1.5786,-1.4438,-1.2642,-1.2501,-1.2501,-1.2501,-1.2501,-1.203,-1.1017,-0.992,-0.8439,-0.6336,-0.6332,-0.6275,-0.6312,-0.4181,-0.3173,-0.3191,-0.4383,-0.6148,0.0,0.0,0.0,0.0,0.0,0.911,0.0,0.0,0.0,0.9078,0.0,0.0,0.0,0.0,0.0,0.0,0.0,0.0,0.0,0.0,0.0,0.0,0.0,0.0,0.0,-0.9996,-0.9848,-1.018,-1.1212,-1.1922,-1.225,-1.2258,-1.2455,-1.2783,-1.1431,-1.0717,-1.0717,-1.0717,-1.0518,-1.018,-0.8701,-0.7831,-0.7431,-0.5696,-0.4894,-0.4833,-0.4609,-0.4527,-0.4547,-0.466,-0.4927,-0.5446,-0.7399,-0.8121,-0.8121,-0.8121,-0.7183,-0.5808,-0.5808,-0.5808,-0.5808,-0.5808,-0.5808,-0.5808,-0.5808,-0.6894,-0.8502,-1.0134,-1.0825,-1.1038,-1.1038,-1.1325,-1.1619,-1.1619,-1.1619,-1.1619,-1.1619,-1.1619,-1.1691,-1.2043,-1.1828,-1.1619,-1.1619,-1.19,-1.2674,-1.4148,-1.6192,-1.8162,-1.9651,-2.0035,-1.9459,-1.7645,-1.6071,-1.4458,-1.2601,-1.2488,-1.2501,-1.2501,-1.2501,-1.2501,-1.2501,-1.0856,-0.9216,-0.7501,-0.7501,-0.7501,-0.7505,-0.7102,-0.6702,-0.6294,-0.5076,-0.6423,0.0,0.0,0.0,0.0,0.9347,0.0,0.0,0.0,0.8784,0.7337,0.0,0.0,0.0,0.0,0.0,0.0,0.0,0.0,0.0,0.0,0.0,0.0,0.0,0.0,0.0,-0.7152,-0.676,-0.823,-0.7156,-0.7075,-0.8513,-0.8607,-0.9275,-1.0833,-1.0756,-1.0717,-1.0717,-1.0717,-0.9908,-0.8296,-0.8097,-0.7165,-0.5629,-0.3823,-0.3021,-0.2888,-0.1298,-0.0624,-0.0632,-0.0641,-0.1657,-0.3415,-0.5373,-0.6098,-0.6098,-0.6098,-0.6025,-0.5808,-0.5808,-0.5808,-0.5808,-0.5808,-0.5808,-0.5808,-0.5808,-0.5953,-0.6174,-0.6398,-0.7697,-0.8992,-0.8992,-1.0305,-1.1619,-1.1619,-1.1619,-1.1619,-1.1619,-1.1619,-1.2115,-1.3729,-1.2745,-1.1619,-1.1619,-1.296,-1.4148,-1.4361,-1.5999,-1.7359,-1.757,-1.759,-1.6984,-1.5261,-1.4996,-1.4207,-1.245,-1.2427,-1.2501,-1.2501,-1.2501,-1.2501,-1.2501,-1.2269,-1.203,-1.1798,-1.1798,-1.1798,-1.1798,-0.9936,-0.8115,-0.6383,-0.8229,-0.9298,0.0,0.0,0.0,0.0,0.0,0.0,0.0,0.0,0.8867,0.0,0.0,0.0,0.0,0.0,0.0,0.0,0.0,0.0,0.0,0.0,0.0,0.0,0.0,0.0,0.0,0.0,0.0,0.0,-0.5852,-0.5774,-0.6477,-0.6489,-0.7289,-0.901,-0.8158,-0.8102,-0.9105,-0.8102,-0.7236,-0.6498,-0.5426,-0.4557,-0.3756,-0.1947,-0.1143,-0.1076,-0.0342,0.0,0.0,0.0,-0.0504,-0.1311,-0.2111,-0.3127,-0.4141,-0.4141,-0.3417,-0.2401,-0.2401,-0.2401,-0.2401,-0.2401,-0.2401,-0.2695,-0.3887,-0.4165,-0.4366,-0.5567,-0.7297,-0.8703,-0.8703,-1.0155,-1.1619,-1.1619,-1.1619,-1.1619,-1.1619,-1.2466,-1.3452,-1.4219,-1.4645,-1.4512,-1.3381,-1.296,-1.2745,-1.2745,-1.4361,-1.5557,-1.5557,-1.6732,-1.6768,-1.4928,-1.488,-1.4258,-1.2429,-1.2345,-1.2413,-1.2494,-1.1405,-1.0701,-1.0701,-0.9532,-0.8905,-0.8905,-0.8905,-0.9532,-1.0701,-0.9842,-0.9553,-0.9923,-0.977,-1.0367,0.8979,0.0,0.0,0.0,0.0,0.0,0.0,0.0,0.0,0.0,0.0,0.0,0.0,0.0,0.0,0.0,0.0,0.0,0.0,0.0,0.0,0.0,0.0,0.0,0.0,0.0,0.0,0.0,0.0,-0.3934,-0.3954,-0.4359,-0.5228,-0.6494,-0.583,-0.603,-0.7298,-0.603,-0.5162,-0.4626,-0.3354,-0.2417,-0.1948,-0.0606,0.0,0.0,0.0,0.0,0.0,0.0,0.0,0.0,0.0,-0.0865,-0.2089,-0.2105,-0.1239,0.0,0.0,0.0,0.0,0.0,0.0,-0.0292,-0.1767,-0.22,-0.2551,-0.4551,-0.6501,-0.8049,-0.8559,-1.0155,-1.1619,-1.1619,-1.1619,-1.1619,-1.1619,-1.2674,-1.38,-1.429,-1.507,-1.5425,-1.4574,-1.3238,-1.218,-1.1691,-1.2745,-1.3658,-1.3658,-1.5051,-1.5498,-1.4002,-1.4083,-1.3675,-1.2368,-1.2264,-1.2352,-1.2494,-1.0546,-0.9376,-0.9376,-0.7423,-0.6332,-0.6332,-0.6332,-0.7033,-0.8517,-0.8517,-0.9299,-1.0785,-1.06,-1.1372,0.0,0.0,0.0,0.9323,0.0,0.0,0.0,0.0,0.9166,0.0,0.0,0.0,0.0,0.0,0.0,0.2459,0.0,0.0,0.0,0.0,0.0,0.0,0.0,0.0,0.0,0.0,0.0,0.0,0.0,0.0,-0.0201,-0.1814,-0.2819,-0.2887,-0.4492,-0.5429,-0.5496,-0.5429,-0.4492,-0.2819,-0.2752,-0.1814,-0.0067,0.0,0.0,0.0,0.0,0.0,0.0,0.0,0.0,0.0,0.0,-0.007,-0.007,-0.0072,-0.0073,0.0,0.0,0.0,0.0,0.0,0.0,0.0,-0.0073,-0.0073,-0.051,-0.2474,-0.4434,-0.6315,-0.8194,-1.0155,-1.1619,-1.1619,-1.1619,-1.1619,-1.1619,-1.1619,-1.2252,-1.4077,-1.296,-1.2323,-1.4077,-1.4361,-1.3658,-1.19,-1.1619,-1.1691,-1.1691,-1.1763,-1.177,-1.1698,-1.1828,-1.1971,-1.2054,-1.2203,-1.2352,-1.2494,-1.0546,-0.9376,-0.9376,-0.7423,-0.6332,-0.6332,-0.6332,-0.6336,-0.641,-0.641,-0.6414,-0.657,-1.0678,-1.2734,0.0,0.0,0.9646,0.9496,0.0,0.0,0.0,0.0,0.0,0.0,0.0,0.0,0.0,0.0,0.5472,0.3968,0.2863,0.0,0.0,0.0,0.0,0.0,0.0,0.0,0.0,0.0,0.0,0.0,-0.0322,0.0,0.0,-0.0606,-0.1478,-0.2685,-0.2148,-0.2417,-0.3622,-0.2417,-0.1545,-0.0941,-0.0941,-0.0606,0.0,0.0,0.0,0.0,0.0,0.0,0.0,0.0,0.0,0.0,0.0,0.0,0.0,0.0,0.0,0.0,0.0,-0.0874,-0.1892,-0.1892,-0.2763,-0.3853,-0.3853,-0.3853,-0.3998,-0.4649,-0.6242,-0.7905,-0.8559,-1.0155,-1.1619,-1.1619,-1.1619,-1.1619,-1.1619,-1.2602,-1.3658,-1.429,-1.4858,-1.5141,-1.4503,-1.4432,-1.3729,-1.19,-1.1619,-1.1619,-1.1619,-1.1619,-1.1619,-1.1619,-1.166,-1.1748,-1.1898,-1.2142,-1.2352,-1.2494,-0.9294,-0.7345,-0.7345,-0.3992,-0.2117,-0.2117,-0.2117,-0.282,-0.4146,-0.4146,-0.4927,-0.6336,-0.7768,-0.9292,0.9295,0.9646,0.0,0.9557,0.9496,0.0,0.9255,0.0,0.0,0.0,0.0,0.0,0.0,0.0,0.0,0.4804,0.324,0.0,0.0,0.0452,0.0,0.0,0.0,0.0,0.0,0.0,0.0,0.0,0.0,0.0,0.0,0.0,-0.0538,-0.168,-0.0605,-0.0538,-0.1747,-0.0606,0.0,0.0,0.0,0.0,0.0,0.0,-0.0336,-0.0941,-0.0941,-0.0946,-0.0954,-0.0954,-0.0548,0.0,0.0,0.0,0.0,0.0,-0.043,-0.1153,-0.1815,-0.291,-0.3923,-0.3923,-0.4794,-0.5808,-0.5808,-0.5808,-0.5953,-0.6604,-0.7761,-0.8848,-0.9574,-1.0665,-1.1619,-1.1619,-1.1619,-1.1619,-1.1619,-1.2538,-1.3381,-1.3381,-1.4369,-1.4787,-1.3587,-1.3381,-1.2952,-1.1763,-1.1619,-1.1619,-1.1619,-1.1619,-1.1619,-1.1619,-1.1619,-1.1681,-1.1816,-1.2115,-1.2332,-1.242,-0.9273,-0.7037,-0.6336,-0.2975,-0.0785,0.0,0.0,-0.0628,-0.2037,-0.2037,-0.274,-0.407,-0.407,-0.5294]},{"header":{"parameterUnit":"m.s-1","parameterCategory":1,"la1":30.6,"la2":29.2853,"lo1":-89.7004,"lo2":-87.6739,"dy":0.0162,"dx":0.0183,"nx":112,"ny":82,"refTime":"2024-09-10T06:00:00:Z","depth":0,"parameterNumber":3,"parameterNumberName":"V-component_of_WINDS"},"data":[0.0,0.0,0.0,0.0,0.0,0.0,0.0,0.0,0.0,0.0,0.0,0.0,0.0,0.0,0.0,0.0,0.0,0.0,0.0,0.0,0.0,0.0,0.0,0.0,0.0,0.0,0.0,0.0,0.0,0.0,0.0,0.0,0.0,0.0,0.0,0.0,0.0,0.0,0.0,0.0,0.0,0.0,0.0,0.0,0.0,0.0,0.0,0.0,0.0,0.0,0.0,0.0,0.0,0.0,0.0,0.0,0.0,0.0,0.0,0.0,0.0,0.0,0.0,0.0,0.0,0.0,0.0,0.0,0.0,0.0,0.0,0.0,0.0,0.0,0.0,0.0,0.0,0.0,0.0,0.0,0.0,0.0,0.0,0.0,0.0,0.0,0.0,0.0,0.0,0.0,0.0,5.6049,5.8858,6.0589,6.0589,5.9704,5.7357,5.328,0.0,0.0,0.0,0.0,0.0,0.0,0.0,0.0,0.0,0.0,0.0,0.0,0.0,0.0,0.0,0.0,0.0,0.0,0.0,0.0,0.0,0.0,0.0,0.0,0.0,0.0,0.0,0.0,0.0,0.0,0.0,0.0,0.0,0.0,0.0,0.0,0.0,0.0,0.0,0.0,0.0,0.0,0.0,0.0,0.0,0.0,0.0,0.0,0.0,0.0,0.0,0.0,0.0,0.0,0.0,0.0,0.0,0.0,0.0,0.0,0.0,0.0,0.0,0.0,0.0,0.0,0.0,0.0,0.0,0.0,0.0,0.0,0.0,0.0,0.0,0.0,0.0,0.0,0.0,0.0,0.0,0.0,0.0,0.0,0.0,0.0,0.0,0.0,0.0,0.0,0.0,0.0,0.0,0.0,0.0,0.0,0.0,0.0,0.0,0.0,0.0,0.0,0.0,0.0,5.3846,5.8434,5.9396,5.9704,5.9704,5.828,5.5857,5.2308,0.0,0.0,0.0,0.0,0.0,0.0,0.0,0.0,0.0,0.0,0.0,0.0,0.0,0.0,0.0,0.0,0.0,0.0,0.0,0.0,0.0,0.0,0.0,0.0,0.0,0.0,0.0,0.0,0.0,0.0,0.0,0.0,0.0,0.0,0.0,0.0,0.0,0.0,0.0,0.0,0.0,0.0,0.0,0.0,0.0,0.0,0.0,0.0,0.0,0.0,0.0,0.0,0.0,0.0,0.0,0.0,0.0,0.0,0.0,0.0,0.0,0.0,0.0,0.0,0.0,0.0,0.0,0.0,0.0,0.0,0.0,0.0,0.0,0.0,0.0,0.0,0.0,0.0,0.0,0.0,0.0,0.0,0.0,0.0,0.0,0.0,0.0,0.0,0.0,0.0,0.0,0.0,0.0,0.0,0.0,0.0,0.0,0.0,0.0,0.0,0.0,0.0,0.0,5.401,5.5549,5.9742,5.9781,5.9511,5.9511,5.7973,5.5549,5.2115,5.0279,0.0,0.0,0.0,0.0,0.0,0.0,0.0,0.0,0.0,0.0,0.0,0.0,0.0,0.0,0.0,0.0,0.0,0.0,0.0,0.0,0.0,0.0,0.0,0.0,0.0,0.0,0.0,0.0,0.0,0.0,0.0,0.0,0.0,0.0,0.0,0.0,0.0,0.0,0.0,0.0,0.0,0.0,0.0,0.0,0.0,0.0,0.0,0.0,0.0,0.0,0.0,0.0,0.0,0.0,0.0,0.0,0.0,0.0,0.0,0.0,0.0,0.0,0.0,0.0,0.0,0.0,0.0,0.0,0.0,0.0,0.0,0.0,0.0,0.0,0.0,0.0,0.0,0.0,0.0,0.0,0.0,0.0,0.0,0.0,0.0,0.0,0.0,0.0,0.0,0.0,0.0,0.0,0.0,0.0,0.0,0.0,0.0,0.0,0.0,0.0,0.0,0.0,5.6592,5.7896,6.0512,5.9858,5.9204,5.9204,5.7126,5.4587,5.1779,4.8856,0.0,0.0,0.0,0.0,0.0,0.0,0.0,0.0,0.0,0.0,0.0,0.0,0.0,0.0,0.0,0.0,0.0,0.0,0.0,0.0,0.0,0.0,0.0,0.0,0.0,0.0,0.0,0.0,0.0,0.0,0.0,0.0,0.0,0.0,0.0,0.0,0.0,0.0,0.0,0.0,0.0,0.0,0.0,0.0,0.0,0.0,0.0,0.0,0.0,0.0,0.0,0.0,0.0,0.0,0.0,0.0,0.0,0.0,0.0,0.0,0.0,0.0,0.0,0.0,0.0,0.0,0.0,0.0,0.0,0.0,0.0,0.0,0.0,0.0,0.0,0.0,0.0,0.0,0.0,0.0,0.0,0.0,0.0,0.0,0.0,0.0,0.0,0.0,0.0,0.0,0.0,0.0,0.0,0.0,0.0,0.0,0.0,0.0,0.0,0.0,0.0,0.0,5.7639,6.0512,6.0781,5.9358,5.8396,5.8396,5.4615,5.1856,5.0866,4.6855,0.0,0.0,0.0,0.0,0.0,0.0,0.0,0.0,0.0,0.0,0.0,0.0,0.0,0.0,0.0,0.0,0.0,0.0,0.0,0.0,0.0,0.0,0.0,0.0,0.0,0.0,0.0,0.0,0.0,0.0,0.0,0.0,0.0,0.0,0.0,0.0,0.0,0.0,0.0,0.0,0.0,0.0,0.0,0.0,0.0,0.0,0.0,0.0,0.0,0.0,0.0,0.0,0.0,0.0,0.0,0.0,0.0,0.0,0.0,0.0,0.0,0.0,0.0,0.0,0.0,0.0,0.0,0.0,0.0,0.0,0.0,0.0,0.0,0.0,0.0,0.0,0.0,0.0,0.0,0.0,0.0,0.0,0.0,0.0,0.0,0.0,0.0,0.0,0.0,0.0,0.0,0.0,0.0,0.0,0.0,0.0,0.0,0.0,0.0,0.0,0.0,0.0,5.6338,5.905,0.0,5.9319,5.8319,5.8319,5.5357,5.2531,5.0152,0.0,0.0,0.0,0.0,0.0,0.0,0.0,0.0,0.0,0.0,0.0,0.0,0.0,0.0,0.0,0.0,0.0,0.0,0.0,0.0,0.0,0.0,0.0,0.0,0.0,0.0,0.0,0.0,0.0,0.0,0.0,0.0,0.0,0.0,0.0,0.0,0.0,0.0,0.0,0.0,0.0,0.0,0.0,0.0,0.0,0.0,0.0,0.0,0.0,0.0,0.0,0.0,0.0,0.0,0.0,0.0,0.0,0.0,0.0,0.0,0.0,0.0,0.0,0.0,0.0,0.0,0.0,0.0,0.0,0.0,0.0,0.0,0.0,0.0,0.0,0.0,0.0,0.0,0.0,0.0,0.0,0.0,0.0,0.0,0.0,0.0,0.0,0.0,0.0,0.0,0.0,0.0,0.0,0.0,0.0,0.0,0.0,0.0,0.0,0.0,0.0,0.0,5.3182,5.6222,5.8858,0.0,5.9319,5.8319,5.8319,5.5203,5.2223,4.9705,0.0,0.0,0.0,0.0,0.0,0.0,0.0,0.0,0.0,0.0,0.0,0.0,0.0,0.0,0.0,0.0,0.0,0.0,0.0,0.0,0.0,0.0,0.0,0.0,0.0,0.0,0.0,0.0,0.0,0.0,0.0,0.0,0.0,0.0,0.0,0.0,0.0,0.0,0.0,0.0,0.0,0.0,0.0,0.0,0.0,0.0,0.0,0.0,0.0,0.0,0.0,0.0,0.0,0.0,0.0,0.0,0.0,0.0,0.0,0.0,0.0,0.0,0.0,0.0,0.0,0.0,0.0,0.0,0.0,0.0,0.0,0.0,0.0,0.0,0.0,0.0,0.0,0.0,0.0,0.0,0.0,0.0,0.0,0.0,0.0,0.0,0.0,0.0,0.0,0.0,0.0,0.0,0.0,0.0,0.0,0.0,0.0,0.0,0.0,0.0,0.0,0.0,5.3398,5.7726,6.0781,6.0781,5.9319,5.8319,5.8319,5.3664,5.0366,0.0,0.0,0.0,0.0,0.0,0.0,0.0,0.0,0.0,0.0,0.0,0.0,0.0,0.0,0.0,0.0,0.0,0.0,0.0,0.0,0.0,0.0,0.0,0.0,0.0,0.0,0.0,0.0,0.0,0.0,0.0,0.0,0.0,0.0,0.0,0.0,0.0,0.0,0.0,0.0,0.0,0.0,0.0,0.0,0.0,0.0,0.0,0.0,0.0,0.0,0.0,0.0,0.0,0.0,0.0,0.0,0.0,0.0,0.0,0.0,0.0,0.0,0.0,0.0,0.0,0.0,0.0,0.0,0.0,0.0,0.0,0.0,0.0,0.0,0.0,0.0,0.0,0.0,0.0,0.0,0.0,0.0,0.0,0.0,0.0,0.0,0.0,0.0,0.0,0.0,0.0,0.0,0.0,0.0,0.0,0.0,0.0,0.0,0.0,0.0,0.0,0.0,0.0,5.3414,5.7726,6.0781,6.0781,5.9819,5.8934,5.8357,5.528,5.2271,4.9705,0.0,0.0,0.0,0.0,0.0,0.0,0.0,0.0,0.0,0.0,0.0,0.0,0.0,0.0,0.0,0.0,0.0,0.0,0.0,0.0,0.0,0.0,0.0,0.0,0.0,0.0,0.0,0.0,0.0,0.0,0.0,0.0,0.0,0.0,0.0,0.0,0.0,0.0,0.0,0.0,0.0,0.0,0.0,0.0,0.0,0.0,0.0,0.0,0.0,0.0,0.0,0.0,0.0,0.0,0.0,0.0,0.0,0.0,0.0,0.0,0.0,0.0,0.0,0.0,0.0,0.0,0.0,0.0,0.0,0.0,0.0,0.0,0.0,0.0,0.0,0.0,0.0,0.0,0.0,0.0,0.0,0.0,0.0,0.0,0.0,0.0,0.0,0.0,0.0,0.0,0.0,0.0,0.0,0.0,0.0,0.0,0.0,0.0,0.0,0.0,0.0,0.0,5.3344,5.7713,6.0781,6.0781,6.0012,5.9165,5.8357,5.6242,5.3407,4.9757,0.0,0.0,0.0,0.0,0.0,0.0,0.0,0.0,0.0,0.0,0.0,0.0,0.0,0.0,0.0,0.0,0.0,0.0,0.0,0.0,0.0,0.0,0.0,0.0,0.0,0.0,0.0,0.0,0.0,0.0,0.0,0.0,0.0,0.0,0.0,0.0,0.0,0.0,0.0,0.0,0.0,0.0,0.0,0.0,0.0,0.0,0.0,0.0,0.0,0.0,0.0,0.0,0.0,0.0,0.0,0.0,0.0,0.0,0.0,0.0,0.0,0.0,0.0,0.0,0.0,0.0,0.0,0.0,0.0,0.0,0.0,0.0,0.0,0.0,0.0,0.0,0.0,0.0,0.0,0.0,0.0,0.0,0.0,0.0,0.0,0.0,0.0,0.0,0.0,0.0,0.0,0.0,0.0,0.0,0.0,0.0,0.0,0.0,0.0,0.0,0.0,0.0,5.3224,5.7638,6.0781,6.0781,6.0089,5.9281,5.8473,5.6896,5.4203,5.0125,0.0,0.0,0.0,0.0,0.0,0.0,0.0,0.0,0.0,0.0,0.0,0.0,0.0,0.0,0.0,0.0,0.0,0.0,0.0,0.0,0.0,0.0,0.0,0.0,0.0,0.0,0.0,0.0,0.0,0.0,0.0,0.0,0.0,0.0,0.0,0.0,0.0,0.0,0.0,0.0,0.0,0.0,0.0,0.0,0.0,0.0,0.0,0.0,0.0,0.0,0.0,0.0,0.0,0.0,0.0,0.0,0.0,0.0,0.0,0.0,5.289,0.0,0.0,0.0,0.0,0.0,0.0,0.0,0.0,0.0,0.0,0.0,0.0,0.0,0.0,0.0,0.0,0.0,0.0,0.0,0.0,0.0,0.0,0.0,0.0,0.0,0.0,0.0,0.0,0.0,0.0,0.0,0.0,0.0,0.0,0.0,0.0,0.0,0.0,0.0,0.0,0.0,5.3357,5.7695,6.0781,6.0781,6.0627,6.0165,5.9319,5.8319,5.6511,5.3587,5.0702,0.0,0.0,0.0,0.0,0.0,0.0,0.0,0.0,0.0,0.0,0.0,0.0,0.0,0.0,0.0,0.0,0.0,0.0,0.0,0.0,0.0,0.0,0.0,0.0,0.0,0.0,0.0,0.0,0.0,0.0,0.0,0.0,0.0,0.0,0.0,0.0,0.0,0.0,0.0,0.0,0.0,0.0,0.0,0.0,0.0,0.0,0.0,0.0,0.0,0.0,0.0,0.0,0.0,0.0,0.0,0.0,0.0,0.0,0.0,0.0,5.521,0.0,0.0,0.0,0.0,0.0,0.0,0.0,0.0,0.0,0.0,0.0,0.0,0.0,0.0,0.0,0.0,0.0,0.0,0.0,0.0,0.0,0.0,0.0,0.0,0.0,0.0,0.0,0.0,0.0,0.0,0.0,0.0,0.0,0.0,0.0,0.0,0.0,0.0,0.0,0.0,5.3972,5.8006,6.0781,6.0781,6.0781,6.0435,5.9588,5.9127,5.778,5.5241,5.3049,0.0,0.0,0.0,0.0,0.0,0.0,0.0,0.0,0.0,0.0,0.0,0.0,0.0,0.0,0.0,0.0,0.0,0.0,0.0,0.0,0.0,0.0,0.0,0.0,0.0,0.0,0.0,0.0,0.0,0.0,0.0,0.0,0.0,0.0,0.0,0.0,0.0,0.0,0.0,0.0,0.0,0.0,0.0,0.0,0.0,0.0,0.0,0.0,0.0,0.0,0.0,0.0,0.0,6.4062,6.4883,6.543,6.5586,6.5937,6.625,6.1864,5.9991,5.9883,0.0,0.0,0.0,0.0,0.0,0.0,0.0,0.0,0.0,0.0,0.0,0.0,0.0,0.0,0.0,0.0,0.0,0.0,0.0,0.0,0.0,0.0,0.0,0.0,0.0,6.0139,6.05,0.0,0.0,0.0,0.0,0.0,0.0,0.0,0.0,0.0,0.0,0.0,0.0,5.4839,5.8384,6.0781,6.0781,6.0781,6.0512,5.9781,5.9742,5.8742,5.6511,5.5472,5.3933,0.0,0.0,0.0,0.0,0.0,0.0,0.0,0.0,0.0,0.0,0.0,0.0,0.0,0.0,0.0,0.0,0.0,0.0,0.0,0.0,0.0,0.0,0.0,0.0,0.0,0.0,0.0,0.0,0.0,0.0,0.0,0.0,5.3789,5.5547,0.0,0.0,0.0,0.0,0.0,0.0,0.0,0.0,0.0,0.0,0.0,0.0,0.0,6.418,6.5703,6.7383,6.8281,6.8398,7.0039,7.0469,6.9883,7.0625,7.0625,7.0,6.9297,0.0,6.3476,6.1601,0.0,0.0,0.0,0.0,0.0,0.0,0.0,0.0,0.0,0.0,0.0,0.0,0.0,0.0,0.0,0.0,0.0,0.0,0.0,0.0,0.0,0.0,6.2029,6.278,6.3341,6.3325,0.0,5.8772,5.5976,5.4961,5.3555,0.0,0.0,0.0,0.0,0.0,0.0,0.0,5.5811,5.879,6.0781,6.0781,6.0781,6.0742,6.0627,6.0627,6.0165,5.9088,5.755,5.6165,5.5088,5.2702,0.0,0.0,0.0,0.0,0.0,0.0,0.0,0.0,0.0,0.0,0.0,0.0,0.0,0.0,0.0,0.0,0.0,0.0,0.0,0.0,0.0,0.0,0.0,0.0,0.0,0.0,0.0,0.0,0.0,5.4414,5.6836,5.664,5.7148,5.6953,0.0,0.0,0.0,0.0,0.0,0.0,0.0,0.0,0.0,6.5312,6.6992,6.8242,6.9023,7.0742,7.1601,7.1601,7.2851,7.3242,7.289,7.2773,7.2539,7.2148,7.164,7.0078,6.7695,6.5,6.289,6.1211,0.0,0.0,0.0,0.0,6.0057,6.0226,6.1126,6.1208,0.0,5.9219,0.0,0.0,0.0,0.0,0.0,0.0,0.0,0.0,0.0,0.0,0.0,6.4493,6.5109,6.5304,6.4555,6.2576,6.0234,0.0,5.6875,5.5625,5.3242,0.0,0.0,0.0,0.0,5.6458,5.7327,5.9427,6.0781,6.0781,6.0781,6.0781,6.0781,6.0781,6.0627,6.0242,5.9088,5.8242,5.7857,5.5395,5.3664,0.0,0.0,0.0,0.0,0.0,0.0,0.0,0.0,0.0,0.0,0.0,0.0,0.0,0.0,0.0,0.0,0.0,0.0,0.0,0.0,0.0,0.0,0.0,0.0,0.0,0.0,0.0,0.0,5.7226,5.9375,5.8047,5.9453,5.9726,0.0,0.0,0.0,0.0,0.0,0.0,6.5195,6.7344,6.9023,7.0156,7.1601,7.2461,7.2695,7.375,7.4414,7.4648,7.5078,7.5273,7.5234,7.4609,7.4062,7.3594,7.3164,7.2109,7.0508,6.7695,6.5703,6.4258,6.3359,6.3047,6.3125,6.375,6.3867,6.3789,6.4648,6.4687,6.4023,6.2305,0.0,5.9531,5.7773,0.0,0.0,0.0,0.0,6.0976,6.2986,6.3989,6.4692,6.5594,6.6256,6.6461,6.5741,6.5078,6.375,0.0,5.9764,5.855,5.5738,0.0,0.0,0.0,0.0,5.7848,5.8716,5.9984,6.0781,6.0781,6.0781,6.0781,6.0781,6.0781,6.0781,6.0781,6.0204,5.9819,5.9819,5.778,5.628,5.5472,0.0,0.0,0.0,0.0,0.0,0.0,0.0,0.0,0.0,0.0,0.0,0.0,0.0,0.0,0.0,0.0,0.0,0.0,0.0,0.0,0.0,0.0,0.0,0.0,0.0,0.0,0.0,0.0,0.0,6.1445,6.2969,0.0,0.0,0.0,0.0,6.3906,6.5586,6.8047,7.1367,7.2461,7.375,7.5469,7.6406,7.7265,7.8086,7.7383,7.7422,7.8242,7.7422,7.707,7.707,7.7031,7.6094,7.457,7.5351,7.3789,7.0625,6.9609,6.8711,6.7851,6.6992,6.664,6.664,6.668,6.6172,6.5586,6.6484,6.5703,6.4414,6.5117,6.3633,6.1719,6.2383,6.2031,0.0,0.0,6.3398,6.4258,6.5195,6.5508,6.5742,6.6601,6.6875,6.664,6.5781,6.5586,6.5,0.0,6.1351,5.9828,5.8811,0.0,5.7259,5.722,5.7916,5.8716,5.9547,6.0341,6.0781,6.0781,6.0781,6.0781,6.0781,6.0781,6.0781,6.0781,6.0742,6.0742,6.0742,5.9819,5.8934,5.8127,5.5549,0.0,0.0,0.0,0.0,0.0,0.0,0.0,0.0,0.0,0.0,0.0,0.0,0.0,0.0,0.0,0.0,0.0,0.0,0.0,0.0,0.0,0.0,0.0,0.0,0.0,0.0,0.0,0.0,6.414,6.5742,0.0,6.5508,6.5976,6.7148,6.9101,7.0351,7.2305,7.5195,7.6172,7.7187,7.832,7.8633,7.8945,7.9258,7.8437,7.8203,7.8476,7.7617,7.7187,7.7187,7.6601,7.6015,7.543,7.5156,7.4375,7.3203,7.2851,7.1601,6.9726,6.8906,6.8906,6.9297,6.8711,6.8359,6.8164,6.8437,6.7773,6.668,6.5859,6.4609,6.3437,6.375,6.3633,6.3555,6.4414,6.4883,6.5351,6.6211,6.6445,6.6523,6.6836,6.6914,6.6797,6.6484,6.5891,6.5208,6.4583,6.3511,6.2223,6.0663,6.0475,6.015,5.9064,5.9504,6.0078,6.0348,6.0657,6.0781,6.0781,6.0781,6.0781,6.0781,6.0781,6.0781,6.0781,6.0781,6.0781,6.0781,6.0512,5.9704,5.8319,5.6319,5.3782,0.0,0.0,0.0,0.0,0.0,0.0,0.0,0.0,0.0,0.0,0.0,0.0,0.0,0.0,0.0,0.0,0.0,0.0,0.0,0.0,0.0,0.0,0.0,0.0,0.0,0.0,6.6289,6.6836,6.8945,7.0117,6.9531,7.0273,7.1601,7.3594,7.457,7.6055,7.8359,7.9023,7.9726,8.0547,8.0586,8.0586,8.0586,7.9765,7.9336,7.9336,7.8476,7.8047,7.8008,7.7148,7.6797,7.6758,7.6172,7.5586,7.5078,7.5351,7.4297,7.2383,7.1523,7.1367,7.1523,7.0937,7.0351,6.9844,6.9531,6.9062,6.8359,6.6953,6.6094,6.5547,6.5273,6.5195,6.5312,6.5898,6.6055,6.6172,6.6758,6.6914,6.6914,6.6914,6.6834,6.679,6.679,6.6202,6.5654,6.5572,6.4665,6.3503,6.221,6.2138,6.1833,6.0664,6.0674,6.0781,6.0781,6.0781,6.0781,6.0781,6.0781,6.0781,6.0781,6.0512,6.0473,6.0781,6.0281,6.0204,6.0781,6.0242,5.955,5.8704,5.6778,5.4785,5.2828,0.0,0.0,0.0,0.0,0.0,0.0,0.0,0.0,0.0,0.0,0.0,0.0,0.0,0.0,0.0,0.0,0.0,0.0,0.0,0.0,0.0,0.0,0.0,6.332,6.6914,6.9648,6.9726,7.2695,7.4062,7.2383,7.4531,7.6367,7.7265,7.8086,7.9297,8.0937,8.1054,8.1445,8.2265,8.2304,8.2304,8.2304,8.1445,8.1015,8.0976,8.0117,7.9687,7.9687,7.8906,7.8555,7.8555,7.8555,7.7578,7.6094,7.6914,7.6797,7.5937,7.4961,7.4101,7.3359,7.332,7.2226,7.0625,6.9805,6.9492,6.9297,6.8515,6.8242,6.8086,6.7226,6.6953,6.6953,6.6914,6.6914,6.6914,6.6914,6.6914,6.6875,6.6875,6.6738,6.6574,6.6574,6.6483,6.632,6.6108,6.4754,6.3623,6.3641,6.2783,6.2139,6.2101,6.1358,0.0,6.0781,6.0781,6.0781,6.0781,6.0781,6.0781,6.0781,6.0012,5.9896,6.0742,5.9281,5.9127,6.0742,5.9242,5.8742,5.9473,5.7178,5.63,5.6983,0.0,0.0,0.0,0.0,0.0,0.0,0.0,0.0,0.0,0.0,0.0,0.0,0.0,0.0,0.0,0.0,0.0,0.0,0.0,0.0,0.0,6.6015,6.8633,6.7773,7.0312,7.2969,7.4844,7.6484,7.7461,7.7578,7.8242,7.9023,7.9883,8.0195,8.0781,8.1875,8.1953,8.2031,8.2304,8.2304,8.2304,8.2304,8.1445,8.1015,8.0976,8.0117,7.9687,7.9687,7.9453,7.9375,7.9375,7.9375,7.9101,7.8672,7.8906,7.8867,7.8398,7.5664,7.4844,7.5039,7.3789,7.2617,7.1523,7.0664,7.0351,7.0195,6.9414,6.9101,6.9023,6.8687,6.8232,6.7812,6.767,6.7255,6.6914,6.6914,6.6789,6.6685,6.6685,6.6584,6.6452,6.6452,6.6049,6.5672,6.5593,6.481,6.4207,6.4318,6.3561,6.2781,6.2178,6.1358,0.0,6.0781,6.0781,6.0781,6.0781,6.0781,6.0781,6.0781,6.0589,6.055,6.0781,6.0358,6.0319,6.0781,6.0358,5.9935,5.9511,5.8269,5.7422,0.0,0.0,0.0,0.0,0.0,0.0,0.0,0.0,0.0,0.0,0.0,0.0,0.0,0.0,0.0,0.0,0.0,0.0,0.0,0.0,0.0,0.0,6.9961,7.2969,7.3164,7.4219,7.5742,7.7969,7.9023,7.9726,8.0195,8.0586,8.1015,8.1523,8.1523,8.1758,8.2265,8.2304,8.2304,8.2304,8.2304,8.2304,8.2304,8.1797,8.1523,8.1523,8.1015,8.0781,8.0781,8.039,8.0429,0.0,8.039,8.0234,8.0234,8.0234,8.0039,0.0,0.0,0.0,0.0,0.0,7.2734,7.1914,7.1406,7.125,7.1093,7.0227,6.9871,6.9745,6.9233,6.8812,6.8379,6.7929,6.7489,6.7102,6.679,6.6599,6.6512,6.6512,6.6406,6.6206,6.6036,6.5604,6.5207,6.5008,6.4689,0.0,6.4504,6.3949,6.3295,6.268,6.1858,6.1204,6.0858,6.0781,6.0781,6.0781,6.0781,6.0781,6.0781,6.0473,0.0,0.0,0.0,5.9896,6.0242,6.0973,0.0,0.0,0.0,0.0,0.0,0.0,0.0,0.0,6.1707,6.2248,0.0,0.0,0.0,0.0,0.0,0.0,0.0,0.0,0.0,0.0,0.0,0.0,0.0,0.0,0.0,0.0,7.3906,7.668,7.8515,7.8125,7.8203,7.9805,8.0664,8.1133,8.1133,8.1836,8.2304,8.2304,8.2304,8.2304,8.2304,0.0,0.0,0.0,0.0,8.2304,8.2304,8.2304,8.2304,8.2304,8.2304,8.2304,8.2265,8.1484,8.1562,8.2265,8.1484,8.1132,8.1092,8.1092,8.0545,7.9567,7.8789,7.789,7.6758,7.4336,7.289,7.2148,7.2031,0.0,0.0,7.0933,7.0629,7.0442,6.9468,6.9109,6.8889,6.8066,6.78,6.7587,6.6854,6.6679,6.6626,6.651,6.6359,6.6077,6.5587,6.5241,6.4883,6.4463,6.4294,6.4217,6.4294,6.4048,6.3679,6.3399,6.2719,6.1908,6.105,6.0935,6.0896,6.0819,0.0,0.0,6.0781,6.0165,6.0127,6.0896,5.9627,5.9242,6.005,6.1627,6.2858,6.3589,6.3782,6.4936,6.709,6.7205,6.7744,6.8552,6.4078,6.4087,0.0,0.0,0.0,0.0,0.0,0.0,0.0,0.0,0.0,0.0,0.0,0.0,0.0,0.0,0.0,7.3359,7.5586,7.7773,8.0195,8.0351,8.0664,8.1679,8.1953,8.2031,8.2031,8.2187,8.2304,8.2304,8.2304,8.2304,8.2304,8.2304,8.2304,8.2304,8.2304,8.2304,8.2304,8.2304,8.2304,8.2304,0.0,0.0,8.2304,8.2148,8.2148,8.2304,8.2109,8.1946,8.1822,8.1822,8.0762,7.9166,7.8697,7.7539,7.6015,7.4805,7.3789,7.2969,7.2226,7.1906,7.1711,7.154,7.1395,7.1226,7.0861,7.0369,0.0,6.9544,6.9079,6.8624,6.8468,6.8311,6.8025,6.7375,6.7061,6.6716,6.5948,6.513,6.45,6.4407,6.3702,6.3262,6.368,6.3781,6.378,6.3703,6.3321,6.2781,6.1935,6.187,6.1601,6.0858,6.0781,6.0781,6.0781,6.1281,6.1678,6.1831,6.2166,6.2743,6.3589,6.4589,6.5243,6.5397,6.6705,6.7321,6.709,6.7821,6.8936,7.0398,6.8758,6.8822,0.0,0.0,0.0,0.0,0.0,0.0,0.0,0.0,0.0,0.0,0.0,6.6523,6.9531,0.0,7.4023,7.6211,7.8008,7.9531,8.082,8.1367,8.1797,8.2265,8.2304,8.2304,8.2304,8.2304,8.2304,8.2304,8.2304,8.2304,8.2304,8.2304,8.2304,8.2304,8.2304,8.2304,8.2304,8.2304,8.2304,8.2304,8.2304,8.2304,8.2304,8.2304,8.2304,8.2304,8.2178,8.2071,8.1988,8.1889,8.1026,7.9671,7.9057,7.7504,7.5471,7.4616,7.3758,7.2896,7.2041,7.1694,7.1594,7.1472,7.142,7.1326,7.1092,7.0822,7.0444,6.9942,6.9546,6.9187,6.8761,6.858,6.8401,6.8015,6.7819,6.7576,6.6897,6.6357,6.5778,6.5124,6.4364,6.3868,6.3988,6.4067,6.404,6.3832,6.3893,6.3666,6.282,6.2704,6.2512,6.2089,6.205,6.205,6.205,6.2435,6.2897,6.332,6.3743,6.4512,6.5782,6.6282,6.6898,6.7782,6.8629,6.9013,6.9013,6.9436,7.0321,7.1552,7.1129,7.1398,0.0,0.0,0.0,0.0,0.0,0.0,0.0,6.1797,6.3125,6.664,6.8594,7.0625,7.375,7.5586,7.7148,7.8711,8.0117,8.1054,8.1211,8.1992,8.25,8.2304,8.2304,8.2383,8.2539,8.2383,8.2383,8.2539,8.2539,8.2539,8.2539,8.2539,8.2539,8.2539,8.2383,8.2304,8.2304,8.2304,8.2304,8.2304,8.2304,8.2304,8.2304,8.2304,8.2304,8.2304,8.2053,8.1904,8.1867,8.1687,8.1077,8.0183,7.9328,7.7619,7.556,7.46,7.3696,7.284,7.2022,7.1612,7.1435,7.1252,7.118,7.1092,7.0953,7.0898,7.0744,7.0129,6.9937,6.9783,6.909,6.8898,6.8859,6.8706,6.8667,6.851,6.7898,6.7659,6.7267,6.6198,6.5605,6.5191,6.4916,6.4954,6.4813,6.4159,6.452,6.4551,6.3666,6.3551,6.3512,6.332,6.3308,6.3346,6.3538,6.3705,6.4166,6.5013,6.5243,6.6013,6.7552,6.759,6.8436,7.0167,7.0014,7.0321,7.1168,7.1168,7.1591,7.2476,7.2591,7.3053,5.6562,5.75,5.9336,6.168,6.293,6.4609,0.0,6.8867,6.9375,7.2851,7.4375,7.5625,7.7578,7.8672,7.9609,8.0547,8.0898,8.1289,8.2031,8.289,8.3164,8.2383,8.2304,8.2617,8.3398,8.2734,8.2617,8.3398,8.3437,8.3437,8.3437,8.3437,8.3437,8.3437,8.2695,8.2304,8.2304,8.2304,8.2304,8.2304,8.2304,8.2304,8.2304,8.2304,8.2304,8.2265,8.1894,8.1645,8.1447,8.1231,8.0651,7.9803,7.8917,7.7954,7.6905,7.5611,7.4591,7.3735,7.2878,7.1978,7.1223,7.1231,7.1085,7.0914,7.0912,7.0898,7.0898,7.0783,7.0783,7.0744,7.0667,7.0629,7.0437,6.9706,6.9552,6.9346,6.8498,6.7921,6.754,6.7414,6.7011,6.6652,6.6635,6.6967,6.6745,6.5175,6.5402,6.5436,6.4589,6.4436,6.4166,6.3397,6.3308,6.3628,6.4397,6.5166,6.5974,6.6782,6.7552,6.8398,6.936,6.9398,7.0206,7.1898,7.1168,7.1206,7.2052,7.2052,7.2514,7.336,7.4091,7.4476,6.0039,6.1601,6.3281,6.4883,6.6328,6.8164,7.1484,7.1914,7.2656,7.6133,7.7539,7.8476,7.9726,8.0625,8.1328,8.1719,8.2187,8.2656,8.3008,8.3359,8.3476,8.3086,8.2617,8.2656,8.3515,8.3711,8.3945,8.4336,8.4375,8.4375,8.4375,8.4375,8.4375,8.4375,8.3984,8.3828,8.3828,8.332,8.3047,8.3047,8.2539,8.2304,8.2304,8.2304,8.2222,8.2118,8.1962,8.1672,8.1395,8.1298,8.0993,8.0477,7.9592,7.8746,7.7752,7.5683,7.4707,7.4204,7.2889,7.2152,7.1697,7.1195,7.0979,7.0898,7.0898,7.0898,7.0898,7.0898,7.1283,7.1668,7.1668,7.2014,7.2322,7.1975,7.1898,7.1822,7.1462,7.0787,7.0133,6.9634,6.875,6.7981,6.7811,6.7681,6.7483,6.706,6.6767,6.6282,6.5474,6.5359,6.5397,6.5513,6.5974,6.6423,6.6782,6.7167,6.7705,6.8552,6.8475,6.9013,7.036,6.9937,7.0475,7.2168,7.1822,7.2091,7.2976,7.2976,7.3399,7.4207,7.4553,7.5295,6.2734,6.4648,6.6289,6.7617,6.9609,7.1797,7.3906,7.4726,7.5859,7.8633,7.9648,8.0312,8.1211,8.207,8.2656,8.2656,8.3594,8.4219,8.3984,8.4179,8.4219,8.3984,8.3594,8.3633,8.4258,8.4453,8.4844,8.5547,8.5625,8.5703,8.5937,8.5742,8.5625,8.5625,8.5156,8.4883,8.4883,8.4258,8.3828,8.3594,8.2969,8.2539,8.2304,8.2304,8.2176,8.1992,8.1992,8.1819,8.1491,8.1491,8.1347,8.1104,8.0218,7.9466,7.8592,7.6284,7.513,7.4553,7.3322,7.2745,7.2399,7.1552,7.1245,7.1206,7.0975,7.1052,7.1245,7.1245,7.1898,7.2552,7.2552,7.3014,7.3514,7.3514,7.3514,7.3514,7.3514,7.2822,7.2014,7.136,7.0277,6.9352,6.9127,6.8752,6.8548,6.8742,6.8398,6.7782,6.6705,6.659,6.6821,6.7398,6.8013,6.8385,6.8385,6.8629,6.9129,6.9975,6.9667,7.009,7.1552,7.1052,7.1437,7.286,7.2668,7.2976,7.3808,7.3808,7.4245,7.5053,7.5322,7.6286,6.3789,6.5547,6.7461,6.9961,7.3164,7.5937,7.6875,7.8359,7.9765,8.0742,8.0937,8.1211,8.2109,8.2969,8.3554,8.3554,8.5,8.582,8.4961,8.5586,8.582,8.4961,8.5586,8.6094,8.6133,8.4609,8.4687,8.7226,8.7422,8.7773,8.8554,8.7851,8.7422,8.7422,8.5781,8.4883,8.4883,8.4883,8.4453,8.3594,8.3554,8.3125,8.2304,8.2304,8.2176,8.1992,8.1992,8.1878,8.1672,8.1672,8.1572,8.1318,8.0427,7.9958,7.9554,7.7861,7.613,7.4707,7.463,7.413,7.3322,7.2437,7.2168,7.2014,7.1168,7.1475,7.2168,7.2168,7.2783,7.3476,7.3476,7.3462,7.3514,7.3514,7.3514,7.3514,7.3514,7.2822,7.2168,7.2168,7.1437,7.0846,7.0821,7.0808,7.0538,6.9783,7.0283,7.0206,6.8552,6.8321,6.8308,6.8359,6.8385,6.8385,6.8385,6.9167,7.0014,7.0821,7.1629,7.2476,7.3399,7.3399,7.3783,7.463,7.386,7.386,7.4668,7.4668,7.513,7.5976,7.6823,7.7684,6.4844,6.7265,6.9883,7.1914,7.4609,7.7148,7.8555,7.9726,8.082,8.1679,8.1406,8.1094,8.1367,8.1679,8.2265,8.3398,8.5078,8.6289,8.6562,8.7851,8.8008,8.6015,8.6523,8.6836,8.625,8.5664,0.0,8.8164,8.7812,8.8086,8.9492,8.9297,8.914,8.914,8.8047,8.7422,8.7422,8.6328,8.5625,8.5312,8.414,8.3125,8.2304,8.2304,8.2264,8.2217,8.2217,8.2068,8.1894,8.1894,8.1799,8.157,8.126,8.0676,7.9932,7.9353,7.8012,7.6245,7.5091,7.4514,7.4168,7.3322,7.2668,7.2129,7.186,7.1975,7.2206,7.2206,7.3206,7.4322,7.4322,7.4745,7.5168,7.5168,7.5168,7.5168,7.5168,7.4476,7.3707,7.3168,7.236,7.1591,7.1014,7.0898,7.1014,7.1321,7.0629,7.009,7.0052,7.0552,7.0937,7.0937,7.1437,7.1769,7.1769,7.2052,7.236,7.2629,7.2899,7.3206,7.35,7.3514,7.4168,7.5553,7.5284,7.5822,7.7207,7.7207,7.7361,7.7669,7.7938,7.8623,6.6133,6.8789,7.1562,7.332,7.5742,7.7969,7.9023,7.9922,8.0625,8.0898,8.0508,8.0117,8.0117,8.0586,8.1679,8.3711,8.6015,8.7851,8.875,8.9804,8.9844,8.8203,8.7969,8.7812,8.7578,8.7265,0.0,8.9062,8.8984,8.9453,9.0859,9.0625,9.0469,9.0469,8.9336,8.8711,8.8711,8.7344,8.6523,8.6172,8.4414,8.332,8.2734,8.2422,8.2304,8.2304,8.2304,8.2221,8.2115,8.2115,8.1988,8.1825,8.1825,8.1353,8.064,8.0329,7.9449,7.8154,7.6269,7.5438,7.5014,7.4207,7.3553,7.3053,7.2745,7.286,7.3119,7.3176,7.4218,7.5272,7.5359,7.5735,7.6095,7.6095,7.6038,7.6015,7.6015,7.5322,7.4553,7.4053,7.3245,7.2476,7.1937,7.1822,7.2129,7.2976,7.2168,7.1591,7.1783,7.2322,7.2668,7.2668,7.3168,7.3514,7.3514,7.3514,7.363,7.3899,7.4207,7.4514,7.4861,7.513,7.5784,7.6861,7.6899,7.74,7.8477,7.8477,7.8669,7.8977,7.8977,7.9509,6.7578,7.0117,7.2461,7.418,7.6523,7.8437,7.8437,7.9023,7.9336,7.8515,7.832,7.8281,7.8281,7.9726,8.1758,8.4414,8.7695,9.0273,9.1211,9.1484,9.1523,0.0,0.0,0.0,0.0,0.0,0.0,9.0078,0.0,9.164,9.2539,9.1836,9.1367,9.1367,8.9726,8.8828,8.8828,8.8008,8.7109,8.6172,8.4531,8.3672,8.3554,8.2734,8.2344,8.2304,8.2304,8.2304,8.2304,8.2304,8.2176,8.2039,8.2039,8.1889,8.1625,8.0769,8.0457,8.0115,7.8104,7.6842,7.5928,7.5091,7.4784,7.4553,7.3798,7.412,7.478,7.4962,7.5619,7.6369,7.6529,7.6466,7.6316,7.6295,7.6135,7.6005,7.6015,7.5361,7.4745,7.4707,7.4053,7.3514,7.3514,7.3538,7.3822,7.4591,7.4745,7.4476,7.3745,7.3668,7.3707,7.3707,7.3745,7.3745,7.3707,7.3707,7.4014,7.4784,7.563,7.6476,7.7323,7.8092,7.853,7.8554,7.8554,7.8592,7.8631,7.8631,7.9054,7.9862,7.9862,8.0323,6.875,7.0976,7.3242,7.4336,7.6094,7.7539,7.7539,7.7695,7.7578,7.6758,7.6055,7.5586,7.5586,7.7539,8.0195,8.3398,8.6797,8.9804,9.1953,9.3945,0.0,9.25,0.0,9.2422,9.1992,9.1133,0.0,0.0,9.0937,9.1015,9.2539,9.2383,9.2265,9.2265,9.1211,9.0625,9.0625,8.914,8.7656,8.6172,8.5742,8.4844,8.3594,8.3359,8.289,8.2304,8.2304,8.2304,8.2304,8.2304,8.2265,8.2221,8.2221,8.2113,8.1909,8.1675,8.1103,8.0232,7.9066,7.8008,7.7123,7.677,7.5745,7.4672,7.464,7.475,7.4973,7.5163,7.5844,7.6552,7.6606,7.6545,7.6501,7.6348,7.6277,7.6185,7.6034,7.5822,7.5476,7.4822,7.4053,7.3514,7.3514,7.4014,7.4476,7.4668,7.5245,7.5592,7.5399,7.5938,7.6322,7.6322,7.6861,7.6976,7.6361,7.6322,7.6399,7.663,7.6861,7.7323,7.8169,7.84,7.8823,7.9477,7.9477,7.9785,8.0439,8.0439,8.0554,8.0785,8.0785,8.09,6.9765,7.1875,7.3984,7.4492,7.5625,7.6445,7.5664,7.5195,7.457,7.3359,7.2969,7.289,7.289,7.5664,7.8906,8.1953,8.5976,8.9609,9.2226,9.4179,9.4961,0.0,9.3515,0.0,9.3164,9.2383,9.207,0.0,9.1679,9.1562,9.2539,9.2617,9.2617,9.2617,9.1758,9.1133,9.0742,8.9375,8.8242,8.7304,8.6562,8.5703,8.4726,8.3945,8.332,8.2851,0.0,8.2304,8.2304,8.2304,8.2304,8.2304,8.2304,8.2222,8.2122,8.2122,8.175,8.1152,8.058,7.976,7.8754,7.7433,7.6316,7.5537,7.5663,7.5701,7.5754,7.5956,7.6348,7.6749,7.6847,7.6785,7.6696,7.6493,7.6351,7.6254,7.6062,7.6015,7.5861,7.5361,7.4899,7.4591,7.4591,7.4976,7.5399,7.5784,7.6245,7.6707,7.7053,7.7207,7.7438,7.7784,7.8207,7.8323,7.7861,7.7823,7.7823,7.7823,7.8169,7.8592,7.9054,7.9438,7.9862,8.0362,8.0362,8.0592,8.1093,8.1093,8.1093,8.1093,8.1093,8.1093,7.0625,7.2539,7.4297,7.4414,7.4922,7.4961,7.332,7.2187,7.1055,6.9492,6.9726,7.0234,7.0351,7.3828,7.7578,8.0234,8.4883,8.9179,9.2031,9.3281,9.4258,9.5273,9.3945,9.332,9.4297,9.3398,9.2812,9.2929,9.2734,9.2617,9.2617,9.2617,9.2617,9.2617,9.1875,9.1054,9.0195,8.9297,8.8828,8.8672,8.7109,8.625,8.5976,8.4453,8.3632,8.3358,8.2617,0.0,8.2264,8.2304,8.2304,8.2304,8.2304,8.2304,8.2304,8.2304,8.2226,8.2109,8.18,8.1116,8.0009,7.7709,7.6855,7.6745,7.665,7.6618,7.6696,7.6868,7.6936,7.699,7.7147,7.7057,7.6876,7.6702,7.6501,7.6273,7.6093,7.602,7.6015,7.6015,7.6015,7.6015,7.6015,7.6015,7.6284,7.7169,7.7284,7.763,7.8554,7.8054,7.79,7.8592,7.8784,7.8784,7.8669,7.8669,7.8669,7.8669,7.9361,7.9862,7.9977,8.0708,8.1093,8.1093,8.1093,8.1093,8.1093,8.1093,8.1093,8.1093,8.1093,8.1093,7.1367,7.2109,7.2617,7.3359,7.3086,7.2422,7.1367,6.9961,6.8555,6.7578,6.7461,6.7773,6.8515,7.1562,7.5078,7.8398,8.2656,8.6953,9.0976,9.289,9.4492,0.0,9.5351,9.5351,9.6875,9.5,0.0,0.0,9.3398,9.2617,9.2617,9.2617,9.2617,9.2617,9.2461,9.1953,9.1094,9.0195,8.9414,8.8672,8.7734,8.6523,8.5117,8.4804,8.3782,8.2293,8.23,0.0,8.2059,8.2222,8.2304,8.2304,8.2304,8.2304,8.2304,8.2304,8.1836,8.1133,8.035,7.9568,7.8856,7.8714,7.8224,7.7552,7.7019,7.6856,7.6876,7.71,7.7146,7.7147,7.7187,7.7187,7.71,7.6915,7.6702,7.651,7.6273,7.6108,7.6015,7.6015,7.6015,7.6015,7.6015,7.6015,7.6284,7.7169,7.7284,7.7861,7.94,7.9438,7.9438,7.9554,8.0208,8.0362,7.9631,7.9592,7.9592,7.9592,7.9708,8.0131,8.0823,8.1016,8.1093,8.1093,8.1093,8.1093,8.1093,8.1093,8.1093,8.1093,8.1093,8.1093,7.164,7.2344,7.2656,7.2617,7.2305,7.1406,6.9219,6.7734,6.6601,6.5742,6.5898,6.6484,6.7344,7.0312,7.3476,7.6055,7.9687,8.3867,8.8633,9.0781,9.2851,9.5508,9.5039,9.5039,9.6289,9.4453,9.3398,9.3828,9.3086,9.2617,9.2617,9.2617,9.2617,9.2617,9.2617,9.2383,9.1992,9.0664,8.9724,8.9197,8.7479,8.6229,8.5329,8.447,8.3613,8.2796,8.2459,0.0,8.2171,8.2264,8.2304,8.2304,8.2304,8.2304,8.2304,8.2304,8.2031,8.1562,8.0664,8.0117,7.9687,7.902,7.8214,7.7479,7.7163,7.7054,7.7097,7.7187,7.7187,7.7187,7.7187,7.7187,7.7146,7.6939,7.6683,7.641,7.6327,7.6122,7.6015,7.6015,7.6015,7.6015,7.6015,7.6015,7.6438,7.7707,7.79,7.8554,8.0246,8.0477,8.0477,8.0477,8.0862,8.0939,8.0516,8.0477,8.0477,8.0477,8.0477,8.0669,8.1093,8.1093,8.1093,8.1093,8.1093,8.1093,8.1093,8.1093,8.1093,8.1093,8.1093,8.1093,7.1445,7.2344,7.2812,7.1953,7.1445,7.039,6.7305,6.5781,6.4883,6.4414,6.4844,6.5625,6.6719,6.9258,7.1797,7.3711,7.6914,8.0937,8.5976,8.8437,9.0937,9.4258,9.4219,0.0,9.5117,9.3789,0.0,9.289,9.2695,0.0,9.2617,9.2617,9.2617,9.2617,9.2617,9.25,9.2304,9.0781,8.9838,8.9441,8.7042,8.5781,8.5504,8.3982,8.3272,8.3151,8.2577,0.0,0.0,8.2265,8.2304,8.2304,8.2304,8.2304,8.2304,8.2304,8.2187,8.1914,8.1015,8.0625,8.0234,7.8945,7.8047,7.7422,7.7265,7.7187,7.7187,7.7187,7.7187,7.7187,7.7187,7.7187,7.7146,7.6942,7.6677,7.64,7.6327,7.6172,7.6038,7.5991,7.6015,7.6015,7.6015,7.6015,7.6553,7.8246,7.8477,7.9131,8.0862,8.1093,8.1093,8.1093,8.1093,8.1093,8.1093,8.1093,8.1093,8.1093,8.1093,8.1139,8.1137,8.1152,8.1181,8.1228,8.1228,8.1228,8.1228,8.1228,8.1228,8.1228,8.1228,8.1228,7.039,7.1445,7.1914,7.1055,6.9687,6.8047,6.6133,6.4414,6.3437,6.414,6.4375,6.4922,6.6601,6.7812,6.9375,7.1836,7.5156,7.8945,8.3359,8.6758,8.9804,9.2539,0.0,0.0,9.5117,9.4336,9.3789,9.3789,0.0,0.0,9.2617,9.2617,9.2617,9.2617,9.2617,9.2226,9.1445,9.0469,8.9609,8.8788,8.6837,8.5469,8.4689,8.3713,8.2762,8.1877,8.2166,0.0,0.0,8.2221,8.2304,8.2304,8.2304,8.2304,8.2304,8.2304,8.1797,8.0976,8.0117,7.9336,7.8711,7.8555,7.8437,7.8242,7.7422,7.7187,7.7187,7.7187,7.7187,7.7187,7.7187,7.7187,7.7146,7.6939,7.6864,7.6744,7.6361,7.63,7.6207,7.6048,7.6015,7.6015,7.6015,7.6015,7.6553,7.8246,7.8477,7.9131,8.0862,8.1093,8.1093,8.1093,8.1093,8.1093,8.1093,8.1093,8.1093,8.1093,8.1093,8.1181,8.1347,8.1359,8.1458,8.1662,8.1623,8.1623,8.1623,8.1623,8.1623,8.1623,8.1623,8.1623,7.0234,7.1328,7.168,7.0312,6.9062,6.7617,6.5312,6.3867,6.3242,6.4101,6.4297,6.4844,6.6562,6.7617,6.8867,7.0898,7.2812,7.5742,8.0586,8.332,8.6406,9.0547,9.1797,0.0,0.0,0.0,9.3125,9.3125,0.0,0.0,9.1836,9.2304,9.2617,9.2617,9.2109,9.164,9.1289,8.9922,8.8707,8.7704,8.5956,8.461,8.3624,8.2855,8.2279,8.1889,8.2175,0.0,0.0,8.2265,8.2304,8.2304,8.2304,8.2304,8.2304,8.2304,8.207,8.1562,8.0195,7.9844,7.9844,7.8828,7.8828,7.9062,7.8242,7.7969,7.7851,7.7344,7.7187,7.7187,7.7187,7.7187,7.7187,7.71,7.6995,7.6856,7.6709,7.6583,7.6419,7.6207,7.6185,7.6122,7.602,7.6015,7.6399,7.7592,7.8169,7.8938,8.0169,8.0785,8.1093,8.1093,8.1093,8.1093,8.1093,8.1093,8.1093,8.1093,8.1093,8.1196,8.1395,8.1407,8.1473,8.1719,8.1688,8.1688,8.1688,8.1688,8.1688,8.1688,8.1688,8.1688,6.9101,7.039,7.0898,6.9453,6.8281,6.6875,6.4765,6.3437,6.293,6.4062,6.4297,6.4844,6.6562,6.7383,6.8359,7.0078,7.1484,7.4023,7.8672,8.1289,8.4219,8.8398,0.0,9.0742,0.0,9.2031,9.1836,0.0,0.0,0.0,9.0937,9.1484,9.1836,9.1836,9.125,9.0781,9.0547,8.9297,8.8081,8.6834,8.5328,8.4039,8.2964,8.2323,8.1976,8.1948,0.0,0.0,0.0,8.2304,8.2304,8.2304,8.2304,8.2304,8.2265,8.1992,8.207,8.2031,8.0039,7.9883,8.0429,7.9258,7.9258,7.9648,7.9336,7.9062,7.8711,7.8125,7.7773,7.7539,7.7265,7.7187,7.7187,7.7187,7.71,7.6951,7.6926,7.6775,7.659,7.6359,7.6295,7.6243,7.6048,7.6015,7.6284,7.7169,7.7977,7.8823,7.9708,8.0554,8.1093,8.1093,8.1093,8.1093,8.1093,8.1093,8.1093,8.1093,8.1093,8.1196,8.1395,8.1458,8.1591,8.1767,8.1855,8.1878,8.1878,8.1878,8.1878,8.1878,8.1878,8.1878,6.6484,6.8164,6.9219,6.8437,6.6914,6.539,6.4492,6.2969,6.2226,6.3945,6.4297,6.4844,6.6562,6.6914,6.7461,6.9219,7.164,7.4492,7.8008,8.1445,8.4258,0.0,0.0,8.7851,8.8672,8.9531,0.0,0.0,0.0,0.0,9.0,9.0039,9.0039,9.0039,9.0039,8.9609,8.875,8.8711,8.7851,8.6211,8.5122,8.4039,8.2987,8.2328,8.1889,0.0,0.0,0.0,0.0,8.2304,8.2304,8.2304,8.2304,8.2304,8.2187,8.1328,8.1562,8.1953,7.9375,7.9023,7.9726,7.9687,7.9687,7.9844,8.0703,8.0351,7.9687,7.9687,7.9101,7.8281,7.7422,7.7187,7.7187,7.7187,7.7187,7.7145,7.6939,7.6919,7.677,7.6371,7.6306,7.6243,7.6048,7.6015,7.6284,7.7169,7.7977,7.8823,7.9708,8.0554,8.1093,8.1093,8.1093,8.1093,8.1093,8.1093,8.1093,8.1093,8.1093,8.1196,8.1395,8.16,8.1812,8.1988,8.2178,8.2304,8.2304,8.2304,8.2304,8.2304,8.2304,8.2304,6.4062,6.5937,6.7344,6.5898,6.5117,6.4492,6.3594,6.2539,6.2187,6.3945,6.4297,6.4844,6.6562,6.7851,6.918,7.0937,7.289,7.5195,7.8086,8.0429,8.2695,8.5039,8.7617,8.9297,0.0,0.0,0.0,0.0,0.0,0.0,8.8281,8.7148,8.7578,8.9922,8.8906,8.8164,8.789,8.6719,8.5547,8.4414,8.4098,8.3295,8.2124,8.2016,0.0,0.0,0.0,0.0,0.0,8.2074,8.2173,8.2304,8.2304,8.2304,8.2187,8.1328,8.1172,8.1133,7.918,7.9023,7.9687,7.9687,8.0117,8.0742,8.1601,8.1289,8.0351,7.9219,7.8281,7.7539,7.7265,7.7187,7.7187,7.7187,7.7187,7.7187,7.7104,7.6998,7.6834,7.6576,7.6391,7.6243,7.6048,7.6015,7.6092,7.6361,7.7592,7.8592,7.8861,8.0169,8.1093,8.1093,8.1093,8.1093,8.1093,8.1093,8.1093,8.1093,8.1093,8.1196,8.1395,8.1458,8.16,8.1805,8.1988,8.2074,8.2113,8.2222,8.2304,8.2304,8.2304,8.2304,6.1836,6.3437,6.4765,6.3984,6.3555,6.3242,6.3047,6.2344,6.2187,6.3945,6.4297,6.4844,6.6562,6.7734,6.9023,7.0781,7.25,7.4648,7.7617,7.9726,0.0,8.4609,0.0,0.0,0.0,0.0,0.0,0.0,0.0,0.0,8.6523,8.5508,8.5898,8.8008,8.707,8.6523,8.6523,8.5429,8.4453,8.3594,8.351,8.2862,8.1688,8.1844,0.0,0.0,0.0,0.0,0.0,8.1533,8.1659,8.2026,8.1717,8.1792,8.1948,8.0738,8.0504,8.0509,7.8578,7.8427,7.9132,7.9218,7.9805,8.0625,8.1133,8.1172,8.0664,7.8984,7.8125,7.7617,7.7305,7.7187,7.7187,7.7187,7.7187,7.7187,7.7187,7.705,7.6847,7.6657,7.6448,7.6243,7.6048,7.6015,7.6015,7.6015,7.7438,7.8477,7.8477,8.0015,8.1093,8.1093,8.1093,8.1093,8.1093,8.1093,8.1093,8.1093,8.1093,8.1161,8.1285,8.1347,8.1458,8.1591,8.176,8.1909,8.1992,8.2218,8.2304,8.2304,8.2304,8.2304,0.0,6.0898,6.1797,6.2617,6.2265,6.1914,6.2734,6.2265,0.0,6.3945,6.4297,6.4883,6.6719,6.7031,6.7617,6.9531,7.1211,7.3476,7.6914,7.957,0.0,0.0,8.4179,0.0,0.0,0.0,0.0,0.0,0.0,0.0,8.4804,8.4765,8.4726,8.4726,8.4726,8.4726,8.4804,8.4765,8.4297,8.3515,8.3328,8.2679,8.1688,8.1688,8.1591,0.0,0.0,0.0,0.0,8.0769,8.0894,8.1454,8.0676,8.087,8.1337,7.9618,7.9547,7.9888,7.7653,7.7422,7.8149,7.8395,7.9023,7.9687,7.9648,8.0195,8.0508,7.8945,7.8476,7.8203,7.7422,7.7187,7.7187,7.7187,7.7187,7.7187,7.7187,7.7005,7.6834,7.6636,7.6419,7.6219,7.6034,7.6015,7.6015,7.6015,7.7361,7.8438,7.8477,7.9977,8.1016,8.1093,8.1093,8.1093,8.1093,8.1093,8.1093,8.1093,8.1093,8.1093,8.1093,8.1285,8.1371,8.1371,8.1582,8.1767,8.1992,8.2176,8.2304,8.2304,8.2304,8.2304,5.8203,0.0,6.0742,6.0976,6.1367,6.1758,0.0,6.1836,6.2187,6.3945,6.4297,6.5234,6.8242,6.832,6.9101,7.2812,7.4297,7.5937,7.8711,8.1234,0.0,8.429,8.4403,0.0,0.0,0.0,0.0,0.0,0.0,8.3906,8.3906,8.3281,8.289,8.289,8.289,8.3242,8.3906,8.3242,8.2812,8.2617,8.2576,8.2248,8.1688,8.1688,8.1522,0.0,0.0,0.0,8.051,8.0976,8.0631,7.9827,8.0255,8.0139,7.9671,7.8574,7.8302,7.8309,7.7105,7.6921,7.7362,7.8238,7.9023,7.9609,7.8984,7.8945,7.9023,7.8594,7.8008,7.7461,7.7265,7.7187,7.7187,7.7187,7.7187,7.7147,7.7,7.6795,7.659,7.641,7.6195,7.6052,7.5991,7.6015,7.6015,7.6015,7.6899,7.7784,7.84,7.9438,8.0362,8.1016,8.1093,8.1093,8.1093,8.1093,8.1093,8.1093,8.1093,8.1093,8.1093,8.1146,8.1152,8.1152,8.1359,8.1662,8.1992,8.2053,8.2168,8.2304,8.2304,8.2304,5.8242,5.9726,6.1172,6.1992,6.2539,6.3008,6.3398,6.2578,6.2187,6.3945,6.4297,6.5234,6.8281,6.8828,6.9805,7.289,7.4453,7.6484,0.0,0.0,8.3233,8.429,8.3916,0.0,0.0,0.0,0.0,0.0,0.0,8.3008,8.3008,8.2578,8.2304,8.2304,8.2304,8.2539,8.3008,8.2539,8.2304,8.2304,8.2218,8.2053,8.1844,8.1662,8.1436,0.0,0.0,0.0,7.9983,8.0022,7.9596,7.8906,7.8945,7.8945,7.879,7.7926,7.7616,7.7522,7.6739,7.6575,7.6848,7.7422,7.7635,7.7678,7.7635,7.7362,7.7146,7.7732,7.7578,7.7187,7.7187,7.7187,7.7187,7.7187,7.7145,7.7048,7.6933,7.669,7.6438,7.6327,7.616,7.6015,7.6015,7.6015,7.6015,7.6015,7.6746,7.7438,7.79,7.8669,7.9554,8.04,8.0131,8.0208,8.1016,8.0746,8.0669,8.1054,8.1093,8.1093,8.1093,8.1093,8.1093,8.1093,8.1395,8.1623,8.1867,8.2053,8.2178,8.2304,8.2304,8.2304,5.9297,6.1094,6.293,6.3867,6.4297,6.4648,6.5273,6.3672,6.2539,6.418,6.4492,6.539,6.8242,6.9258,7.0351,7.2461,7.4258,0.0,8.058,8.1754,8.272,8.3952,8.3016,0.0,0.0,0.0,0.0,0.0,0.0,8.2304,8.2304,8.2187,8.2109,8.2109,8.1953,8.1953,8.2109,8.2226,8.2265,8.2264,8.2068,8.1976,8.1889,8.1553,8.1383,8.1361,0.0,0.0,7.9554,7.8938,7.8477,7.8054,7.7515,7.763,7.8054,7.7361,7.7092,7.6996,7.6335,7.6216,7.635,7.6225,7.5694,7.5266,7.6154,7.5889,7.5528,7.6614,7.7024,7.7103,7.7103,7.7103,7.7103,7.7103,7.6993,7.6852,7.6834,7.6529,7.6284,7.6277,7.6121,7.6015,7.6015,7.6015,7.6015,7.6015,7.663,7.713,7.7284,7.79,7.8631,7.9515,7.9054,7.9285,8.0785,8.0362,8.0323,8.1054,8.1093,8.1093,8.1093,8.1093,8.1124,8.1146,8.1491,8.1664,8.1771,8.2071,8.2265,8.2304,8.2304,8.2304,6.0703,6.4219,6.6562,6.3867,6.4297,6.5234,6.4648,6.418,6.418,6.5195,6.539,6.664,7.0664,7.0937,7.1797,7.5742,0.0,7.9558,0.0,0.0,8.2016,0.0,0.0,0.0,0.0,0.0,0.0,0.0,0.0,8.2304,8.2304,8.1601,8.1211,8.1211,8.0469,8.0469,8.1172,8.1914,8.222,8.2053,8.2,8.1831,8.1501,8.1414,8.1298,8.1146,0.0,8.0169,7.8746,7.9361,7.8323,7.6438,7.7053,7.6899,7.6361,7.6245,7.6207,7.6111,7.5419,7.5203,7.5168,7.4592,7.43,7.4378,7.5227,7.5422,7.5358,7.5528,7.6124,7.6702,7.6702,7.6702,7.6702,7.6702,7.6683,7.6582,7.6438,7.6359,7.6254,7.6093,7.602,7.6015,7.6015,7.6015,7.6015,7.6015,7.6092,7.6476,7.7207,7.74,7.7784,7.8592,7.9246,7.9708,7.9977,8.0554,8.0977,8.1093,8.1093,8.1093,8.1093,8.1093,8.1181,8.1374,8.1391,8.1627,8.1967,8.2039,8.2125,8.2304,8.2304,8.2304,6.0039,6.3515,6.6523,6.539,6.7461,6.9531,6.8672,6.7383,6.664,6.7461,6.7305,6.8047,7.1367,7.2422,7.4062,7.793,0.0,8.0621,8.1236,8.1803,0.0,0.0,0.0,0.0,0.0,0.0,0.0,0.0,0.0,0.0,8.0898,8.0508,8.0312,8.0312,7.9922,7.9883,8.0273,8.0703,8.1279,8.1992,8.1524,8.1382,8.1553,8.1447,8.109,8.0549,0.0,7.9438,7.7861,7.8284,7.7476,7.6053,7.6438,7.6361,7.6015,7.6015,7.5707,7.5274,7.4938,7.4539,7.4139,7.3817,7.3706,7.39,7.4713,7.4984,7.5061,7.5565,7.6128,7.6388,7.5422,7.5889,7.6466,7.5999,7.6185,7.641,7.6327,7.6207,7.6108,7.6005,7.6015,7.6015,7.6015,7.6015,7.6015,7.6015,7.6015,7.613,7.6553,7.6592,7.6899,7.7746,7.7784,7.8092,7.9015,7.9438,8.0092,8.1054,8.1093,8.1093,8.1093,8.1093,8.121,8.1407,8.1532,8.1727,8.1992,8.2115,8.2219,8.2304,8.2304,8.2304,5.9687,6.2617,6.582,6.668,6.9531,7.2148,7.2265,7.0312,6.8828,7.0078,6.9492,6.9492,7.1875,7.4062,0.0,7.9258,8.0586,8.1289,8.1246,0.0,0.0,0.0,0.0,0.0,0.0,0.0,0.0,0.0,0.0,0.0,7.9687,7.9531,7.9414,7.9414,7.9219,7.9219,7.9414,7.9178,7.9818,8.1329,8.0622,8.0643,8.1243,8.0876,8.0485,8.0009,7.9649,7.8669,7.7284,7.7284,7.6784,7.6015,7.6015,7.5861,7.5707,7.5707,7.5168,7.4399,7.4207,7.3707,7.3168,7.2976,7.2899,7.3091,7.413,7.4284,7.4284,7.5168,7.5639,7.562,7.4455,7.4999,7.5698,7.5038,7.5273,7.5678,7.5883,7.5799,7.5745,7.5976,7.6015,7.6015,7.6015,7.6015,7.6015,7.6015,7.6015,7.6015,7.6015,7.6015,7.6245,7.6899,7.6592,7.6943,7.8455,7.8777,7.9461,8.0856,8.1045,8.1139,8.1152,8.1139,8.1214,8.1469,8.1636,8.1837,8.2062,8.2221,8.2304,8.2304,8.2304,8.2304,6.1094,6.3515,6.582,6.668,6.7734,6.9375,7.25,7.1172,7.0039,7.25,7.168,7.1055,7.2851,7.5937,7.8555,7.9531,8.1094,8.2144,0.0,0.0,0.0,0.0,0.0,0.0,0.0,0.0,0.0,0.0,0.0,0.0,7.9687,7.8984,7.8594,7.8594,7.7812,7.7773,7.8594,7.7588,7.7848,7.929,7.9251,7.9486,7.9899,7.9075,7.9099,7.9792,7.8953,7.8092,7.7284,7.7284,7.6784,7.6015,7.6015,7.5515,7.4784,7.4784,7.4284,7.3476,7.2668,7.2322,7.2168,7.136,7.1091,7.1398,7.3091,7.3014,7.2552,7.3437,7.3696,7.3853,7.4469,7.42,7.3713,7.3622,7.3686,7.3903,7.4672,7.4798,7.5014,7.5822,7.6015,7.6015,7.6015,7.6015,7.6015,7.6015,7.6015,7.6015,7.6015,7.6015,7.6015,7.6092,7.6746,7.7621,7.8704,7.9513,8.0101,8.0448,8.086,8.1181,8.1359,8.121,8.1285,8.1656,8.168,8.1889,8.2265,8.2304,8.2304,8.2304,8.2304,8.2304,5.9844,6.2422,6.5117,6.6562,6.793,6.957,7.1953,7.2578,7.3086,7.4609,7.4375,7.414,7.4805,7.6445,7.7969,7.8828,7.9922,8.0663,0.0,0.0,0.0,0.0,0.0,0.0,0.0,0.0,0.0,0.0,0.0,0.0,7.6562,7.625,7.6055,7.6055,7.5742,7.5742,7.6055,7.61,7.6313,7.6731,7.7718,7.8445,7.8977,7.8631,7.84,7.8246,7.79,7.7284,7.6476,7.6476,7.6284,7.6015,7.6015,7.5476,7.4707,7.4707,7.386,7.2629,7.2322,7.186,7.1321,7.1014,7.1283,7.1822,7.2476,7.2822,7.3091,7.3399,7.3129,7.2629,7.2399,7.2937,7.336,7.2822,7.3129,7.3591,7.3899,7.3976,7.4053,7.4399,7.4861,7.5207,7.5207,7.563,7.6015,7.6015,7.6095,7.6197,7.6197,7.6295,7.6361,7.6361,7.6671,7.7205,7.8115,7.8474,7.8995,7.9723,8.0746,8.1324,8.1407,8.1224,8.1228,8.1494,8.1494,8.1695,8.2118,8.2118,8.2175,8.2304,8.2173,8.2118,5.9414,6.168,6.4297,6.6055,6.7578,6.9219,7.1484,7.3125,7.4687,7.6367,7.5859,7.5078,7.5078,7.5781,0.0,0.0,7.8828,0.0,0.0,0.0,0.0,0.0,0.0,0.0,0.0,0.0,0.0,0.0,0.0,0.0,0.0,7.4528,7.4528,7.4609,7.4528,7.4525,7.4525,7.4893,7.5,7.4847,7.583,7.6945,7.8092,7.7823,7.7553,7.7284,7.7015,7.6553,7.6015,7.6015,7.6015,7.5976,7.5707,7.5053,7.4284,7.4014,7.3014,7.1783,7.1783,7.1398,7.0898,7.0898,7.1283,7.1822,7.2129,7.2437,7.2745,7.3014,7.2476,7.1629,7.1052,7.1783,7.2552,7.1937,7.2245,7.2745,7.3053,7.3091,7.3168,7.3437,7.4168,7.463,7.4361,7.5245,7.5899,7.563,7.5928,7.6195,7.6195,7.6371,7.6544,7.6575,7.6582,7.6837,7.7475,7.7754,7.8286,7.9059,8.0365,8.1075,8.1075,8.1101,8.121,8.1407,8.1407,8.1563,8.1894,8.1894,8.198,8.2118,8.1976,8.1894,6.039,6.164,6.3398,6.5156,6.6289,6.7812,7.1211,7.2695,7.4297,7.7773,7.5703,7.3281,7.3281,7.4023,0.0,0.0,0.0,0.0,0.0,0.0,0.0,0.0,0.0,0.0,0.0,0.0,0.0,0.0,0.0,0.0,0.0,7.4386,7.4382,7.457,7.4386,7.4269,7.4272,7.4065,7.3915,7.3788,7.3575,7.4822,7.7207,7.6361,7.6476,7.7207,7.6361,7.6015,7.6015,7.5976,7.5976,7.5899,7.5014,7.4207,7.3399,7.2514,7.1629,7.0898,7.0898,7.0898,7.0898,7.0898,7.0898,7.1052,7.1937,7.1591,7.1091,7.1937,7.1552,7.0898,7.0898,7.0898,7.0898,7.0898,7.0898,7.1129,7.2014,7.2168,7.2437,7.3322,7.413,7.4437,7.363,7.4861,7.5668,7.4822,7.5399,7.5991,7.5991,7.6185,7.6371,7.6567,7.6628,7.6696,7.6872,7.7699,7.8284,7.8476,7.9681,8.0388,8.0388,8.0834,8.1196,8.1395,8.1407,8.1512,8.168,8.168,8.168,8.1688,8.168,8.168,5.9375,6.0781,6.2656,6.5,6.7187,6.9297,7.1484,7.3633,7.5586,7.7265,7.5312,7.3281,7.3281,7.3515,0.0,0.0,0.0,0.0,0.0,0.0,0.0,0.0,0.0,0.0,0.0,0.0,0.0,0.0,0.0,0.0,0.0,7.2368,7.2408,7.2544,7.2413,7.2389,7.2473,7.2803,7.2929,7.2887,7.3292,7.3899,7.463,7.4938,7.5245,7.5476,7.5861,7.6015,7.5938,7.5361,7.5438,7.5861,7.4437,7.3692,7.3399,7.2514,7.1629,7.0898,7.0898,7.0898,7.0898,7.0898,7.0898,7.0937,7.1206,7.1091,7.0937,7.1206,7.1091,7.0898,7.0898,7.0898,7.0898,7.0898,7.0898,7.0975,7.1245,7.1283,7.136,7.1629,7.236,7.286,7.2629,7.3514,7.4168,7.3899,7.4192,7.4777,7.5617,7.6439,7.6942,7.7002,7.7005,7.7052,7.7101,7.7337,7.7447,7.7386,7.8141,7.9104,8.0349,8.0834,8.1116,8.1196,8.1196,8.1298,8.1501,8.1501,8.1563,8.168,8.1553,8.1501,6.039,6.1953,6.3867,6.6445,6.8555,7.0508,7.2578,7.4258,7.5547,7.6055,7.4375,7.289,7.3242,7.3008,0.0,0.0,0.0,0.0,0.0,0.0,0.0,0.0,0.0,0.0,0.0,0.0,0.0,0.0,0.0,0.0,0.0,7.1404,7.1457,7.1619,7.1471,7.1427,7.1497,7.184,7.1932,7.1858,7.2263,7.2476,7.2514,7.3707,7.4207,7.4284,7.513,7.5476,7.5438,7.4938,7.4822,7.4861,7.3514,7.2976,7.2899,7.2014,7.136,7.0898,7.0898,7.0706,7.0437,7.0437,7.0437,7.0437,7.0437,7.0437,7.0437,7.0437,7.0167,6.9898,6.9898,7.0167,7.0514,7.0821,7.0898,7.0898,7.0898,7.0898,7.0898,7.0898,7.1591,7.2091,7.1745,7.2706,7.3399,7.3053,7.3395,7.4131,7.5447,7.608,7.6655,7.7148,7.7187,7.7187,7.7187,7.7144,7.7046,7.6922,7.7428,7.8193,7.9251,8.0099,8.0746,8.1093,8.1093,8.1176,8.1285,8.1285,8.1361,8.1458,8.1349,8.1285,6.2305,6.4023,6.6015,6.8633,7.0078,7.1445,7.3828,7.4375,7.4375,7.4375,0.0,7.2226,7.293,7.2461,0.0,0.0,0.0,0.0,0.0,0.0,0.0,0.0,0.0,0.0,0.0,0.0,0.0,0.0,0.0,0.0,0.0,7.1038,7.1029,7.1255,7.1048,7.0958,7.0989,7.0958,7.0854,7.0667,7.0667,7.0706,7.086,7.2591,7.3437,7.3538,7.4284,7.4591,7.4591,7.4514,7.4091,7.3399,7.2437,7.2129,7.2091,7.1206,7.0898,7.0898,7.0898,7.036,6.9706,6.9706,6.9667,6.959,6.959,6.959,6.959,6.959,6.9013,6.8385,6.8385,6.9052,6.9898,7.0629,7.086,7.0898,7.0898,7.0898,7.0898,7.0898,7.1552,7.1822,7.1052,7.2206,7.299,7.2209,7.2893,7.3928,7.5264,7.5374,7.5752,7.691,7.7108,7.7108,7.7069,7.6956,7.6864,7.6847,7.7248,7.7511,7.7566,7.8921,8.0092,8.0977,8.0977,8.1016,8.1093,8.1093,8.1093,8.1093,8.1139,8.1116,6.0508,6.2226,6.4336,6.7656,7.0117,7.1875,7.2422,7.2578,7.2578,7.2578,7.2265,7.1836,7.1367,7.168,0.0,0.0,0.0,0.0,0.0,0.0,0.0,0.0,0.0,0.0,0.0,0.0,0.0,0.0,0.0,0.0,6.9073,6.9051,6.9081,6.9293,6.9104,6.9096,6.9256,6.9058,6.8963,0.0,6.8936,6.9321,7.0014,7.1706,7.286,7.3514,7.3668,7.3783,7.3707,7.3014,7.3053,7.336,7.1783,7.1591,7.2091,7.1206,7.0898,7.0898,7.0898,7.036,6.9706,6.9706,6.9244,6.8667,6.8667,6.8667,6.8667,6.8667,6.8552,6.8385,6.8385,6.9052,6.9744,6.9937,7.0437,7.0898,7.0898,7.0898,7.0898,7.0898,7.1052,7.1129,7.0937,7.1206,7.1454,7.1402,7.2368,7.3397,7.423,7.5045,7.5655,7.5927,7.6405,7.6503,7.6002,7.6381,7.6621,7.6438,7.6514,7.6811,7.7351,7.8291,7.9169,8.0054,8.0092,8.0439,8.1093,8.1093,8.1093,8.1108,8.1258,8.1349,5.9922,6.2578,6.5703,6.914,7.1015,7.1875,7.1484,7.1367,7.1133,7.0351,7.082,7.1094,7.0234,0.0,0.0,0.0,0.0,0.0,0.0,0.0,0.0,0.0,0.0,0.0,0.0,0.0,0.0,0.0,0.0,6.8385,6.8385,6.8385,6.8437,6.854,6.8449,6.8449,6.854,6.8449,6.8385,6.8385,6.8385,6.8629,6.9129,7.0821,7.2052,7.2899,7.2899,7.2899,7.2822,7.2399,7.2206,7.2168,7.1245,7.1168,7.1514,7.1052,7.0667,7.0321,7.0321,6.9513,6.8475,6.8475,6.8167,6.7782,6.7782,6.7782,6.7782,6.7782,6.7513,6.7205,6.7205,6.7821,6.8552,6.8975,7.0014,7.0898,7.0898,7.0898,7.0898,7.0898,7.0898,7.0898,7.0898,7.0898,7.0991,7.1308,7.1816,7.2465,7.3386,7.4294,7.4845,7.4845,7.5898,7.6274,7.5541,7.6086,7.641,7.6306,7.6195,7.6379,7.6778,7.7203,7.8052,7.9312,7.9828,8.0299,8.0764,8.119,8.1395,8.1395,8.1473,8.1534,5.9297,6.3047,6.7226,7.0508,7.1445,7.1367,7.0664,7.0469,7.0039,6.8515,6.9414,7.0195,0.0,0.0,0.0,0.0,0.0,0.0,0.0,0.0,0.0,0.0,0.0,0.0,0.0,0.0,0.0,0.0,0.0,6.7975,6.7975,6.7975,6.7975,6.7975,6.7975,6.7975,6.7975,6.7975,6.7975,6.7975,6.8129,6.8167,6.8244,6.9783,7.086,7.1552,7.1552,7.1552,7.1552,7.1552,7.1129,7.0475,7.0629,7.0706,7.0706,7.086,7.0398,6.9706,6.9706,6.8552,6.709,6.709,6.7013,6.6898,6.6898,6.6898,6.6898,6.6898,6.6397,6.5897,6.5897,6.6513,6.7282,6.8013,6.9475,7.0744,7.086,7.0898,7.0898,7.0898,7.0898,7.0898,7.0898,7.0914,7.1074,7.1427,7.1373,7.1684,7.2842,7.357,7.3936,7.3787,7.5277,7.5866,7.4903,7.5575,7.6034,7.6034,7.6057,7.6134,7.6295,7.639,7.705,7.8437,7.9576,8.0232,8.0388,8.1252,8.1688,8.1688,8.1757,8.1732,5.664,6.0781,6.5312,6.8047,6.9219,6.9726,6.9687,6.9609,6.9297,0.0,6.8945,6.9336,0.0,0.0,0.0,0.0,0.0,0.0,0.0,0.0,0.0,0.0,0.0,0.0,0.0,0.0,0.0,0.0,6.6244,6.6244,6.6244,6.6244,6.6244,6.6244,6.6244,6.6244,6.6244,6.6244,6.6244,6.6244,6.6936,6.7282,6.7321,6.8282,6.8821,6.8898,6.8898,6.8898,6.8898,6.8898,6.8859,6.8821,6.959,6.986,6.9937,7.0629,7.0398,6.9706,6.9706,6.8552,6.709,6.709,6.6628,6.6051,6.6051,6.6051,6.6051,6.6051,6.5974,6.5897,6.5897,6.6513,6.7128,6.7244,6.859,7.0052,7.0744,7.0898,7.0898,7.0898,7.0898,7.0898,7.0898,7.1026,7.1233,7.1488,7.1588,7.1971,7.2888,7.3598,7.3727,7.2956,7.4132,7.4397,7.2995,7.4127,7.4893,7.4893,7.576,7.6261,7.6295,7.6611,7.6912,7.7146,7.8559,7.9656,8.0388,8.1252,8.1688,8.1688,8.1878,8.1971,5.7617,6.0742,6.3711,6.7305,6.8476,6.875,6.875,6.875,6.8359,6.7031,6.7031,6.7305,0.0,0.0,0.0,0.0,0.0,0.0,0.0,0.0,0.0,0.0,0.0,0.0,0.0,0.0,0.0,0.0,6.5436,6.5166,6.5166,6.5166,6.5166,6.5166,6.5628,6.5897,6.5897,6.5436,6.5166,6.5166,6.5513,6.5974,6.6436,6.6821,6.7513,6.8385,6.8385,6.8385,6.8385,6.8385,6.8385,6.8423,6.8821,6.8975,6.9013,6.936,6.8975,6.8244,6.8244,6.7436,6.6436,6.6436,6.6205,6.5897,6.5897,6.5897,6.5897,6.5897,6.5897,6.5897,6.5897,6.6167,6.6551,6.6974,6.7667,6.8475,6.9321,6.9898,7.009,6.959,6.9513,6.9667,7.0129,7.0298,7.0634,7.1396,7.1549,7.1736,7.2225,7.2968,7.3097,7.2146,7.3401,7.3859,7.269,7.3646,7.4312,7.4312,7.5207,7.5788,7.5903,7.6551,7.6942,7.7055,7.8164,7.9161,8.0016,8.0878,8.1542,8.2049,8.2122,8.2171,5.7109,5.957,6.1601,6.5312,6.6719,6.7226,6.7226,6.7226,6.6836,0.0,6.5273,0.0,0.0,0.0,0.0,0.0,0.0,0.0,0.0,0.0,0.0,0.0,0.0,0.0,0.0,0.0,0.0,0.0,6.4628,6.4282,6.4282,6.4282,6.4359,6.4589,6.5013,6.5359,6.5551,6.4705,6.4282,6.4282,6.4282,6.4628,6.5243,6.5243,6.5936,6.7115,6.759,6.7782,6.7782,6.7782,6.7782,6.7782,6.7975,6.809,6.809,6.8321,6.7859,6.709,6.709,6.6551,6.5897,6.5897,6.5897,6.5897,6.5897,6.5897,6.5897,6.5897,6.5897,6.5897,6.5897,6.5897,6.6051,6.6628,6.6936,6.7321,6.8205,6.8898,6.9167,6.8552,6.8385,6.8667,6.9552,6.9706,7.0088,7.1311,7.1478,7.156,7.1747,7.248,7.263,7.1638,7.2821,7.3338,7.2482,7.3183,7.3681,7.3681,7.4554,7.5218,7.5584,7.6275,7.6816,7.7187,7.7851,7.8555,7.9414,8.0469,8.1328,8.1953,8.2146,8.2263,5.2578,5.5547,5.8515,6.0351,6.2656,6.4492,6.4492,6.4492,6.4492,6.4375,6.4375,0.0,0.0,0.0,0.0,0.0,0.0,0.0,0.0,0.0,0.0,0.0,0.0,0.0,0.0,0.0,0.0,0.0,6.3397,6.3346,6.3346,6.3346,6.3743,6.4589,6.3858,6.382,6.4666,6.382,6.3346,6.3346,6.3346,6.3397,6.3435,6.3435,6.3462,6.3666,6.532,6.6013,6.6013,6.6013,6.6013,6.609,6.6859,6.7167,6.7282,6.809,6.7859,6.709,6.709,6.6551,6.5897,6.5897,6.5897,6.5897,6.5897,6.5897,6.5897,6.5897,6.5897,6.5897,6.5897,6.5897,6.5897,6.5936,6.6551,6.7321,6.8205,6.8423,6.8462,6.8398,6.8385,6.8667,6.9552,6.9706,7.0088,7.1311,7.1478,7.1633,7.1949,7.2588,7.2658,7.176,7.2351,7.245,7.1633,7.2295,7.2755,7.2755,7.3763,7.4726,7.5588,7.5848,7.6367,7.7187,7.7226,7.7695,7.8555,8.0195,8.1015,8.1094,8.1725,8.212,5.1249,5.3203,5.539,5.8789,6.0703,6.2109,6.3203,6.3906,6.414,6.3594,6.3476,0.0,0.0,0.0,0.0,0.0,0.0,0.0,0.0,0.0,0.0,0.0,0.0,0.0,0.0,0.0,0.0,0.0,0.0,6.2512,6.2512,6.2512,6.2666,6.2974,6.3205,6.3205,6.3012,6.2704,6.2512,6.2512,6.2512,6.282,6.3308,6.3308,6.3308,6.3308,6.3974,6.4551,6.5051,6.5051,6.5397,6.5936,6.6205,6.632,6.6359,6.6667,6.659,6.632,6.632,6.6128,6.5897,6.5897,6.5897,6.5897,6.5897,6.5897,6.5897,6.5897,6.5897,6.5897,6.5897,6.5897,6.5897,6.5897,6.6128,6.6397,6.6744,6.7205,6.7398,6.6898,6.6782,6.7244,6.8629,6.8859,6.9437,7.1077,7.1317,7.1389,7.1663,7.1872,7.1917,7.1611,7.179,7.1828,7.1517,7.185,7.2057,7.2057,7.3049,7.4052,7.4912,7.5546,7.6328,7.7187,7.7187,7.7617,7.8515,7.9101,7.9648,8.0156,8.0425,8.0543,4.9562,5.1324,5.3512,5.7031,5.8515,5.9726,6.2031,6.2578,6.2578,6.2578,6.2578,0.0,0.0,0.0,0.0,0.0,0.0,0.0,0.0,0.0,0.0,0.0,0.0,0.0,0.0,0.0,0.0,0.0,0.0,0.0,6.1678,6.1678,6.1678,6.1678,6.2474,6.2512,6.1678,6.1678,6.1678,6.1678,6.1678,6.1935,6.2474,6.2474,6.2474,6.2474,6.2474,6.3281,6.4589,6.4589,6.5128,6.5897,6.5897,6.5897,6.5897,6.5897,6.5897,6.5897,6.5897,6.5897,6.5897,6.5897,6.5897,6.5897,6.5897,6.5897,6.5897,6.5897,6.5897,6.5897,6.5897,6.5897,6.5923,6.5955,6.5946,6.5897,6.5967,6.6369,6.6551,6.6013,6.5897,6.6436,6.8129,6.8385,6.9052,7.0909,7.1221,7.1271,7.1457,7.1478,7.1478,7.1478,7.1478,7.1478,7.1478,7.1583,7.1638,7.1638,7.2349,7.3157,7.4016,7.4686,7.543,7.6328,7.6601,7.7031,7.7617,7.8203,7.8789,7.9297,7.9487,7.9566,0.0,0.0,0.0,5.4725,5.5859,5.7383,6.0781,0.0,5.9609,6.1289,6.164,0.0,0.0,0.0,0.0,0.0,0.0,0.0,0.0,0.0,0.0,0.0,0.0,0.0,0.0,0.0,0.0,0.0,6.0781,6.0781,6.0781,6.0781,6.0781,6.0781,6.1639,6.1678,6.0819,6.0781,6.0781,6.0781,6.0781,6.0781,6.0781,6.0781,6.0781,6.0781,6.0819,6.2243,6.4551,6.4551,6.5089,6.5859,6.5897,6.5897,6.5897,6.5897,6.5897,6.5897,6.5897,6.5897,6.5897,6.5897,6.5897,6.5897,6.5897,6.5897,6.5897,6.5897,6.5897,6.5897,6.5897,6.591,6.5958,6.6089,6.603,6.5931,6.6061,6.6019,6.591,6.5897,6.5897,6.6436,6.809,6.8359,6.9014,7.0859,7.1172,7.1223,7.1442,7.1464,7.1464,7.1464,7.1464,7.1464,7.1464,7.151,7.1471,7.1471,7.1624,7.208,7.2942,7.3193,7.3711,7.457,7.543,7.5859,7.5859,7.7617,7.8476,7.8476,7.9067,7.9226,4.7061,0.0,0.0,0.0,0.0,0.0,0.0,0.0,5.7828,6.013,0.0,0.0,0.0,0.0,0.0,0.0,0.0,0.0,0.0,0.0,0.0,0.0,0.0,0.0,0.0,0.0,0.0,0.0,6.0781,6.0781,6.0781,6.0781,6.0781,6.0781,6.1012,6.105,6.0781,6.0781,6.0781,6.0781,6.0781,6.0781,6.0781,6.0781,6.0781,6.0819,6.1485,6.2474,6.3666,6.3666,6.4166,6.5013,6.5628,6.5897,6.5897,6.5897,6.5897,6.5897,6.5897,6.5897,6.5897,6.5897,6.5897,6.5897,6.5897,6.5897,6.5897,6.5897,6.5897,6.5897,6.5897,6.5951,6.6059,6.609,6.6191,6.6243,6.6137,6.6051,6.6014,6.5909,6.5897,6.6244,6.7282,6.7475,6.8052,6.9836,7.0118,7.0348,7.0973,7.1062,7.1062,7.1062,7.1062,7.1062,7.1062,7.1221,7.129,7.129,7.1457,7.1994,7.2977,7.3041,7.3578,7.457,7.4844,7.4961,7.4961,7.6719,7.7578,7.7578,7.7572,7.7909,4.7051,4.7792,4.8948,0.0,0.0,0.0,0.0,5.6308,0.0,0.0,0.0,0.0,0.0,0.0,0.0,0.0,0.0,0.0,0.0,0.0,0.0,0.0,0.0,0.0,0.0,6.1012,6.0781,6.0781,6.0781,6.0722,6.0508,6.0508,6.0508,6.0508,6.071,6.0781,6.0781,6.0781,6.0781,6.0781,6.0781,6.0781,6.0781,6.0781,6.0781,6.0858,6.1716,6.2358,6.2858,6.3551,6.4359,6.5205,6.5705,6.5897,6.5897,6.5897,6.5897,6.5897,6.5897,6.5897,6.5897,6.5897,6.5897,6.5897,6.5897,6.5897,6.5897,6.5897,6.5897,6.5897,6.5897,6.5967,6.6046,6.608,6.6137,6.6156,6.6119,6.6059,6.6008,6.5935,6.5897,6.6167,6.6974,6.709,6.7512,6.8666,6.9121,6.9406,6.9709,6.9911,7.0156,7.0539,7.0455,7.0552,7.086,7.1004,7.1074,7.1074,7.1262,7.1645,7.2231,7.2388,7.2768,7.3387,7.3827,7.4258,7.4609,7.5976,7.6836,7.7187,7.7097,7.7209,4.732,4.7914,4.9128,0.0,0.0,0.0,5.6036,5.5719,5.5286,0.0,0.0,0.0,0.0,0.0,0.0,0.0,0.0,0.0,0.0,0.0,0.0,0.0,0.0,0.0,6.2101,6.132,6.0819,6.0935,6.0935,6.0686,6.0132,6.0146,6.0146,6.0103,6.0572,6.0781,6.0781,6.0781,6.0781,6.0781,6.0781,6.0781,6.0781,6.0816,6.0839,6.0877,6.1874,6.2282,6.2436,6.412,6.5202,6.5782,6.5859,6.5897,6.5897,6.5897,6.5897,6.5897,6.5897,6.5897,6.5897,6.5897,6.5897,6.5897,6.5897,6.5897,6.5897,6.5897,6.5897,6.5897,6.5897,6.5923,6.5955,6.6051,6.6024,6.6001,6.607,6.5992,6.5909,6.591,6.5897,6.6128,6.6821,6.691,6.7006,6.7414,6.8041,6.8309,6.8015,6.8334,6.8938,6.9866,6.9758,6.9973,7.0821,7.0898,7.0898,7.0898,7.1062,7.119,7.1221,7.1485,7.1663,7.1675,7.2598,7.3512,7.441,7.5429,7.6289,7.707,7.7108,7.6939,4.816,4.9033,5.0224,5.0129,0.0,0.0,5.3124,5.2884,5.3204,0.0,0.0,0.0,0.0,0.0,0.0,0.0,0.0,0.0,0.0,0.0,0.0,0.0,0.0,0.0,6.2101,6.132,6.1089,6.1793,6.187,6.1339,6.017,6.0469,6.0495,6.0118,6.0572,6.0781,6.0781,6.0781,6.0781,6.0781,6.0781,6.0781,6.0793,6.0915,6.0973,6.1059,6.275,6.3486,6.3602,6.535,6.5596,6.4936,6.5628,6.5897,6.5897,6.5897,6.5897,6.5897,6.5897,6.5897,6.5897,6.5897,6.5897,6.5897,6.5897,6.5897,6.5897,6.5897,6.5897,6.5897,6.5897,6.5974,6.6089,6.61,6.6187,6.6283,6.6146,6.607,6.6046,6.5909,6.5897,6.5936,6.609,6.5786,6.5727,6.6526,6.6398,6.6428,6.7069,6.7222,6.773,6.8989,6.9104,6.9544,7.0794,7.0898,7.0898,7.0898,7.0927,7.1041,7.1211,7.128,7.1373,7.153,7.1761,7.2284,7.3147,7.4982,7.5976,7.6172,7.6552,7.669,4.9235,4.9448,5.0163,5.0619,0.0,0.0,0.0,5.2305,5.2503,5.432,5.4103,0.0,0.0,0.0,0.0,0.0,0.0,0.0,0.0,0.0,0.0,0.0,0.0,0.0,6.2101,6.132,6.0973,6.1396,6.1211,6.0811,6.0156,6.0324,6.0338,6.0118,6.0572,6.0781,6.0781,6.0781,6.0781,6.0781,6.086,6.0884,6.0895,6.1065,6.1158,6.1243,6.3042,6.3819,6.3935,6.5686,6.6042,6.5519,6.5881,6.5981,6.5981,6.5981,6.6077,6.6148,6.6148,6.6148,6.6148,6.6148,6.6148,6.6148,6.6148,6.6098,6.6063,6.6409,6.6205,6.5897,6.5897,6.5943,6.5981,6.5981,6.6088,6.6119,6.6014,6.5981,6.5974,6.5897,6.5897,6.5897,6.5897,6.5676,6.5571,6.5741,6.5664,6.5669,6.5841,6.6212,6.7002,6.8355,6.8718,6.9413,7.0794,7.0898,7.0898,7.0898,7.0898,7.094,7.1065,7.1148,7.1299,7.1517,7.1478,7.1718,7.2146,7.3631,7.4542,7.4971,7.5732,7.6002,0.0,0.0,0.0,0.0,0.0,5.1664,0.0,0.0,0.0,5.3532,0.0,0.0,0.0,0.0,0.0,0.0,0.0,0.0,0.0,0.0,0.0,0.0,0.0,0.0,0.0,6.1379,6.0888,6.0834,6.0493,6.0278,6.0212,6.025,6.0209,6.0141,6.0571,6.0781,6.0781,6.0781,6.0816,6.0834,6.0944,6.1023,6.1073,6.1259,6.1328,6.1412,6.2956,6.3746,6.4018,6.5616,6.6301,6.6418,6.6228,6.6144,6.6144,6.6144,6.6252,6.6387,6.6387,6.6387,6.6387,6.6387,6.6387,6.6387,6.6387,6.6283,6.6253,6.6814,6.6468,6.5958,6.5958,6.5909,6.5897,6.5897,6.5897,6.5897,6.5897,6.5897,6.5885,6.5781,6.5821,6.5897,6.5897,6.5808,6.5583,6.5161,6.5247,6.5213,6.478,6.5276,6.6223,6.7618,6.825,6.9129,7.0563,7.0821,7.0898,7.0898,7.0898,7.0898,7.0898,7.105,7.1203,7.1365,7.1365,7.1365,7.1403,7.2112,7.2935,7.3794,7.4945,7.5312,0.0,0.0,0.0,0.0,5.301,0.0,0.0,0.0,5.1799,5.1393,0.0,0.0,0.0,0.0,0.0,0.0,0.0,0.0,0.0,0.0,0.0,0.0,0.0,0.0,0.0,6.1578,6.1111,6.097,6.1027,6.0918,6.0576,6.076,6.0702,6.0284,6.0615,6.0781,6.0781,6.0781,6.0839,6.0961,6.0988,6.1105,6.1265,6.1404,6.1488,6.1534,6.2604,6.3512,6.4333,6.5309,6.6034,6.6553,6.6423,6.6361,6.6361,6.6361,6.6368,6.6387,6.6387,6.6387,6.6387,6.6387,6.6387,6.6387,6.6387,6.6374,6.6393,6.645,6.6273,6.607,6.607,6.5997,6.5897,6.5897,6.5897,6.5897,6.5897,6.5897,6.5768,6.5291,6.5569,6.5897,6.5897,6.5527,6.5161,6.5115,6.4772,6.4502,6.4445,6.452,6.5086,6.6434,6.7295,6.8304,6.9717,7.0475,7.0898,7.0898,7.0898,7.0898,7.0898,7.0939,7.094,7.0979,7.0979,7.0979,7.0979,7.1264,7.1926,7.2963,7.439,7.5051,0.0,0.0,0.0,0.0,0.0,0.0,0.0,0.0,5.127,0.0,0.0,0.0,0.0,0.0,0.0,0.0,0.0,0.0,0.0,0.0,0.0,0.0,0.0,0.0,0.0,0.0,0.0,0.0,6.0773,6.0663,6.0985,6.1102,6.1011,6.0741,6.0941,6.1027,6.0925,6.1027,6.1136,6.1179,6.1244,6.1315,6.1409,6.1532,6.163,6.167,6.2616,6.3476,6.4375,6.5234,6.6053,6.6784,6.6724,6.6606,6.6512,6.6512,6.6592,6.6675,6.6675,6.6675,6.6675,6.6675,6.6675,6.6742,6.7153,6.6902,6.6615,6.6996,6.6633,6.6109,6.6109,6.5981,6.5897,6.5897,6.5897,6.5897,6.5897,6.5663,6.5388,6.5146,6.5051,6.5121,6.5403,6.5527,6.5569,6.5569,6.5115,6.4799,6.4799,6.499,6.5424,6.6309,6.712,6.8173,6.9602,7.0014,7.0398,7.086,7.1004,7.1074,7.1074,7.1201,7.1242,7.1242,7.1242,7.1201,7.1074,7.1158,7.1355,7.1739,7.2982,7.3767,5.2598,0.0,0.0,0.0,0.0,0.0,0.0,0.0,0.0,0.0,0.0,0.0,0.0,0.0,0.0,0.0,0.0,0.0,0.0,0.0,0.0,0.0,0.0,0.0,0.0,0.0,0.0,0.0,0.0,6.0027,6.1357,6.1369,6.1301,6.114,6.1246,6.1227,6.1089,6.1227,6.1306,6.1349,6.1432,6.1515,6.1571,6.1677,6.1719,6.1758,6.2383,6.3125,6.3984,6.4648,6.539,6.6172,6.6172,6.6088,6.6021,6.6529,6.6785,6.6914,6.6914,6.6914,6.6914,6.6914,6.6914,6.6991,6.7477,6.719,6.6787,6.719,6.6754,6.6153,6.6128,6.5981,6.5897,6.5897,6.5897,6.5897,6.5897,6.5583,6.5276,6.513,6.4954,6.4871,6.5067,6.5432,6.5717,6.5885,6.5569,6.5306,6.5306,6.552,6.5817,6.6231,6.6973,6.7974,6.9256,6.9552,7.0052,7.086,7.1097,7.1221,7.1221,7.1373,7.1478,7.1478,7.1478,7.1412,7.129,7.129,7.1231,7.1101,7.1997,7.2828,0.0,0.0,0.0,5.2538,0.0,0.0,0.0,0.0,5.1654,0.0,0.0,0.0,0.0,0.0,0.0,5.1191,0.0,0.0,0.0,0.0,0.0,0.0,0.0,0.0,0.0,0.0,0.0,0.0,0.0,0.0,6.1562,6.1575,6.1498,6.1495,6.1359,6.1283,6.1277,6.1283,6.1359,6.1498,6.1501,6.1575,6.168,6.1719,6.1719,6.1719,6.1719,6.2226,6.3047,6.3086,6.3594,6.4375,6.4375,6.4375,6.457,6.6289,6.6875,6.6914,6.6914,6.6914,6.6914,6.6914,6.6914,6.6914,6.6914,6.6914,6.6834,6.6673,6.6532,6.6341,6.6135,6.5981,6.5897,6.5897,6.5897,6.5897,6.5897,6.5897,6.5703,6.5177,6.5527,6.569,6.5177,6.5115,6.5306,6.5808,6.5897,6.5885,6.5885,6.5872,6.591,6.5923,6.6654,6.7462,6.8359,6.9206,7.0052,7.086,7.1097,7.1221,7.1221,7.1373,7.1478,7.1478,7.1478,7.1517,7.1471,7.1471,7.151,7.1496,7.1986,7.2682,0.0,0.0,5.4703,5.3857,0.0,0.0,0.0,0.0,0.0,0.0,0.0,0.0,0.0,0.0,5.0996,5.1135,5.1405,0.0,0.0,0.0,0.0,0.0,0.0,0.0,0.0,0.0,0.0,0.0,5.9061,0.0,0.0,6.1677,6.1584,6.1504,6.1525,6.1515,6.1417,6.1515,6.1582,6.1633,6.1633,6.1677,6.1719,6.1719,6.1719,6.1719,6.1719,6.2187,6.3008,6.3008,6.3515,6.4297,6.4297,6.4297,6.4453,6.5625,6.6055,6.6133,6.6719,6.6791,6.6692,6.6692,6.6622,6.6568,6.6568,6.6568,6.656,6.6478,6.6347,6.617,6.6128,6.5981,6.5897,6.5897,6.5897,6.5897,6.5897,6.5597,6.5306,6.513,6.5003,6.4938,6.5083,6.5099,6.5291,6.5808,6.5897,6.5897,6.5897,6.5897,6.5897,6.5897,6.6128,6.6628,6.7475,6.8859,7.0052,7.086,7.1193,7.1381,7.1381,7.1686,7.1844,7.1844,7.1844,7.178,7.1638,7.1638,7.1588,7.1517,7.165,7.2414,5.4447,5.4703,0.0,5.4203,5.3857,0.0,5.2154,0.0,0.0,0.0,0.0,0.0,0.0,0.0,0.0,5.1063,5.1147,0.0,0.0,5.1834,0.0,0.0,0.0,0.0,0.0,0.0,5.6797,5.8594,5.8437,0.0,0.0,0.0,6.1677,6.1579,6.1638,6.1677,6.1577,6.1677,6.1719,6.1719,6.1719,6.1719,6.1719,6.1719,6.1679,6.1633,6.1633,6.1946,6.2454,6.2454,6.2849,6.3398,6.3398,6.3398,6.3555,6.5039,6.5741,6.6044,6.6538,6.6655,6.6525,6.6525,6.6468,6.6387,6.6387,6.6387,6.6374,6.6312,6.6187,6.609,6.6028,6.594,6.5897,6.5897,6.5897,6.5897,6.5897,6.5649,6.5403,6.5403,6.5153,6.5019,6.5321,6.5403,6.5489,6.5872,6.5897,6.5897,6.5897,6.5897,6.5897,6.5897,6.5897,6.6244,6.7013,6.8706,6.9937,7.0437,7.1038,7.1451,7.1517,7.1735,7.1949,7.1992,7.1992,7.195,7.1807,7.1807,7.1744,7.1681,7.1681,7.2306]}]]